<?xml version="1.0" encoding="UTF-8" standalone="no" ?>
<gpx xmlns="http://www.topografix.com/GPX/1/1" xmlns:xsi="http://www.w3.org/2001/XMLSchema-instance" xsi:schemaLocation="http://www.topografix.com/GPX/1/1 http://www.topografix.com/GPX/1/1/gpx.xsd" version="1.1" creator="VisuGPX - https://www.visugpx.com">
  <metadata>
    <name>Char à voile St Brévin</name>
  </metadata>
  <trk>
    <name><![CDATA[Tracé actuel: 15 MAI 2020 16:54]]></name>
    <trkseg>
      <trkpt lat="47.2318" lon="-2.18138">
        <ele>3.02</ele>
        <time>2020-05-15T14:54:32Z</time>
      </trkpt>
      <trkpt lat="47.2318" lon="-2.18138">
        <ele>0.62</ele>
        <time>2020-05-15T14:54:51Z</time>
      </trkpt>
      <trkpt lat="47.23181" lon="-2.18136">
        <ele>-0.82</ele>
        <time>2020-05-15T14:55:18Z</time>
      </trkpt>
      <trkpt lat="47.2318" lon="-2.18136">
        <ele>-2.75</ele>
        <time>2020-05-15T14:55:52Z</time>
      </trkpt>
      <trkpt lat="47.23181" lon="-2.18137">
        <ele>-2.27</ele>
        <time>2020-05-15T14:56:25Z</time>
      </trkpt>
      <trkpt lat="47.23181" lon="-2.18137">
        <ele>-1.79</ele>
        <time>2020-05-15T14:56:56Z</time>
      </trkpt>
      <trkpt lat="47.23181" lon="-2.18136">
        <ele>-2.27</ele>
        <time>2020-05-15T14:57:34Z</time>
      </trkpt>
      <trkpt lat="47.23181" lon="-2.18136">
        <ele>-2.75</ele>
        <time>2020-05-15T14:58:08Z</time>
      </trkpt>
      <trkpt lat="47.23181" lon="-2.18136">
        <ele>-4.19</ele>
        <time>2020-05-15T14:58:51Z</time>
      </trkpt>
      <trkpt lat="47.23181" lon="-2.18135">
        <ele>-4.19</ele>
        <time>2020-05-15T14:59:23Z</time>
      </trkpt>
      <trkpt lat="47.23181" lon="-2.18135">
        <ele>-5.15</ele>
        <time>2020-05-15T15:00:02Z</time>
      </trkpt>
      <trkpt lat="47.23181" lon="-2.18134">
        <ele>-5.15</ele>
        <time>2020-05-15T15:00:38Z</time>
      </trkpt>
      <trkpt lat="47.23181" lon="-2.18134">
        <ele>-5.63</ele>
        <time>2020-05-15T15:01:17Z</time>
      </trkpt>
      <trkpt lat="47.23181" lon="-2.18134">
        <ele>-5.63</ele>
        <time>2020-05-15T15:01:52Z</time>
      </trkpt>
      <trkpt lat="47.2318" lon="-2.18134">
        <ele>-5.63</ele>
        <time>2020-05-15T15:02:26Z</time>
      </trkpt>
      <trkpt lat="47.23182" lon="-2.18137">
        <ele>-5.15</ele>
        <time>2020-05-15T15:02:45Z</time>
      </trkpt>
      <trkpt lat="47.23183" lon="-2.18137">
        <ele>-4.67</ele>
        <time>2020-05-15T15:03:19Z</time>
      </trkpt>
      <trkpt lat="47.23182" lon="-2.18137">
        <ele>-4.67</ele>
        <time>2020-05-15T15:03:48Z</time>
      </trkpt>
      <trkpt lat="47.23182" lon="-2.18136">
        <ele>-4.19</ele>
        <time>2020-05-15T15:03:55Z</time>
      </trkpt>
      <trkpt lat="47.23176" lon="-2.18133">
        <ele>-4.19</ele>
        <time>2020-05-15T15:04:01Z</time>
      </trkpt>
      <trkpt lat="47.23171" lon="-2.18137">
        <ele>-3.23</ele>
        <time>2020-05-15T15:04:07Z</time>
      </trkpt>
      <trkpt lat="47.23176" lon="-2.18175">
        <ele>-2.75</ele>
        <time>2020-05-15T15:04:27Z</time>
      </trkpt>
      <trkpt lat="47.23182" lon="-2.18198">
        <ele>-3.23</ele>
        <time>2020-05-15T15:04:31Z</time>
      </trkpt>
      <trkpt lat="47.23167" lon="-2.18219">
        <ele>-3.71</ele>
        <time>2020-05-15T15:04:36Z</time>
      </trkpt>
      <trkpt lat="47.23164" lon="-2.18213">
        <ele>-4.19</ele>
        <time>2020-05-15T15:04:37Z</time>
      </trkpt>
      <trkpt lat="47.23123" lon="-2.1811">
        <ele>-3.71</ele>
        <time>2020-05-15T15:04:51Z</time>
      </trkpt>
      <trkpt lat="47.2311" lon="-2.18086">
        <ele>-3.71</ele>
        <time>2020-05-15T15:04:54Z</time>
      </trkpt>
      <trkpt lat="47.23102" lon="-2.18061">
        <ele>-3.23</ele>
        <time>2020-05-15T15:04:57Z</time>
      </trkpt>
      <trkpt lat="47.23084" lon="-2.18063">
        <ele>-3.23</ele>
        <time>2020-05-15T15:05:02Z</time>
      </trkpt>
      <trkpt lat="47.23082" lon="-2.18089">
        <ele>-3.23</ele>
        <time>2020-05-15T15:05:05Z</time>
      </trkpt>
      <trkpt lat="47.23087" lon="-2.18132">
        <ele>-3.71</ele>
        <time>2020-05-15T15:05:10Z</time>
      </trkpt>
      <trkpt lat="47.2306" lon="-2.18187">
        <ele>-4.67</ele>
        <time>2020-05-15T15:05:17Z</time>
      </trkpt>
      <trkpt lat="47.23054" lon="-2.18183">
        <ele>-5.15</ele>
        <time>2020-05-15T15:05:18Z</time>
      </trkpt>
      <trkpt lat="47.23035" lon="-2.18172">
        <ele>-5.15</ele>
        <time>2020-05-15T15:05:21Z</time>
      </trkpt>
      <trkpt lat="47.23009" lon="-2.18151">
        <ele>-5.63</ele>
        <time>2020-05-15T15:05:26Z</time>
      </trkpt>
      <trkpt lat="47.23" lon="-2.18123">
        <ele>-5.63</ele>
        <time>2020-05-15T15:05:31Z</time>
      </trkpt>
      <trkpt lat="47.22997" lon="-2.18067">
        <ele>-3.71</ele>
        <time>2020-05-15T15:05:45Z</time>
      </trkpt>
      <trkpt lat="47.22991" lon="-2.18033">
        <ele>-2.75</ele>
        <time>2020-05-15T15:06:03Z</time>
      </trkpt>
      <trkpt lat="47.22991" lon="-2.18032">
        <ele>-2.75</ele>
        <time>2020-05-15T15:06:22Z</time>
      </trkpt>
      <trkpt lat="47.2299" lon="-2.18031">
        <ele>-2.75</ele>
        <time>2020-05-15T15:06:28Z</time>
      </trkpt>
      <trkpt lat="47.22983" lon="-2.18027">
        <ele>-3.23</ele>
        <time>2020-05-15T15:06:47Z</time>
      </trkpt>
      <trkpt lat="47.22982" lon="-2.18027">
        <ele>-3.23</ele>
        <time>2020-05-15T15:06:50Z</time>
      </trkpt>
      <trkpt lat="47.22973" lon="-2.18042">
        <ele>-3.23</ele>
        <time>2020-05-15T15:07:08Z</time>
      </trkpt>
      <trkpt lat="47.22973" lon="-2.18043">
        <ele>-3.23</ele>
        <time>2020-05-15T15:07:09Z</time>
      </trkpt>
      <trkpt lat="47.22969" lon="-2.18088">
        <ele>-3.71</ele>
        <time>2020-05-15T15:07:19Z</time>
      </trkpt>
      <trkpt lat="47.22943" lon="-2.18148">
        <ele>-4.19</ele>
        <time>2020-05-15T15:07:26Z</time>
      </trkpt>
      <trkpt lat="47.22925" lon="-2.18136">
        <ele>-4.67</ele>
        <time>2020-05-15T15:07:29Z</time>
      </trkpt>
      <trkpt lat="47.22874" lon="-2.18069">
        <ele>-4.67</ele>
        <time>2020-05-15T15:07:38Z</time>
      </trkpt>
      <trkpt lat="47.22813" lon="-2.18002">
        <ele>-4.67</ele>
        <time>2020-05-15T15:07:47Z</time>
      </trkpt>
      <trkpt lat="47.22784" lon="-2.18">
        <ele>-4.19</ele>
        <time>2020-05-15T15:07:51Z</time>
      </trkpt>
      <trkpt lat="47.22757" lon="-2.18021">
        <ele>-4.67</ele>
        <time>2020-05-15T15:07:55Z</time>
      </trkpt>
      <trkpt lat="47.22734" lon="-2.17995">
        <ele>-5.15</ele>
        <time>2020-05-15T15:08:00Z</time>
      </trkpt>
      <trkpt lat="47.22681" lon="-2.1786">
        <ele>-3.71</ele>
        <time>2020-05-15T15:08:13Z</time>
      </trkpt>
      <trkpt lat="47.22677" lon="-2.17851">
        <ele>-3.71</ele>
        <time>2020-05-15T15:08:14Z</time>
      </trkpt>
      <trkpt lat="47.22652" lon="-2.17819">
        <ele>-3.23</ele>
        <time>2020-05-15T15:08:20Z</time>
      </trkpt>
      <trkpt lat="47.22658" lon="-2.17846">
        <ele>-3.23</ele>
        <time>2020-05-15T15:08:24Z</time>
      </trkpt>
      <trkpt lat="47.22666" lon="-2.17855">
        <ele>-3.23</ele>
        <time>2020-05-15T15:08:26Z</time>
      </trkpt>
      <trkpt lat="47.22673" lon="-2.17866">
        <ele>-3.23</ele>
        <time>2020-05-15T15:08:28Z</time>
      </trkpt>
      <trkpt lat="47.22722" lon="-2.1796">
        <ele>-3.71</ele>
        <time>2020-05-15T15:08:43Z</time>
      </trkpt>
      <trkpt lat="47.22784" lon="-2.18076">
        <ele>-4.19</ele>
        <time>2020-05-15T15:08:55Z</time>
      </trkpt>
      <trkpt lat="47.22808" lon="-2.18072">
        <ele>-4.67</ele>
        <time>2020-05-15T15:08:59Z</time>
      </trkpt>
      <trkpt lat="47.22829" lon="-2.18022">
        <ele>-4.67</ele>
        <time>2020-05-15T15:09:06Z</time>
      </trkpt>
      <trkpt lat="47.22846" lon="-2.1802">
        <ele>-4.67</ele>
        <time>2020-05-15T15:09:11Z</time>
      </trkpt>
      <trkpt lat="47.22877" lon="-2.18078">
        <ele>-4.67</ele>
        <time>2020-05-15T15:09:21Z</time>
      </trkpt>
      <trkpt lat="47.22945" lon="-2.18162">
        <ele>-5.15</ele>
        <time>2020-05-15T15:09:34Z</time>
      </trkpt>
      <trkpt lat="47.22965" lon="-2.18143">
        <ele>-5.15</ele>
        <time>2020-05-15T15:09:39Z</time>
      </trkpt>
      <trkpt lat="47.22972" lon="-2.1813">
        <ele>-5.15</ele>
        <time>2020-05-15T15:09:41Z</time>
      </trkpt>
      <trkpt lat="47.2298" lon="-2.18094">
        <ele>-4.67</ele>
        <time>2020-05-15T15:09:47Z</time>
      </trkpt>
      <trkpt lat="47.22988" lon="-2.18059">
        <ele>-3.71</ele>
        <time>2020-05-15T15:09:55Z</time>
      </trkpt>
      <trkpt lat="47.22997" lon="-2.1806">
        <ele>-3.71</ele>
        <time>2020-05-15T15:09:59Z</time>
      </trkpt>
      <trkpt lat="47.23027" lon="-2.18107">
        <ele>-3.71</ele>
        <time>2020-05-15T15:10:12Z</time>
      </trkpt>
      <trkpt lat="47.23072" lon="-2.18165">
        <ele>-5.15</ele>
        <time>2020-05-15T15:10:22Z</time>
      </trkpt>
      <trkpt lat="47.23092" lon="-2.18194">
        <ele>-5.15</ele>
        <time>2020-05-15T15:10:26Z</time>
      </trkpt>
      <trkpt lat="47.23127" lon="-2.18225">
        <ele>-5.15</ele>
        <time>2020-05-15T15:10:32Z</time>
      </trkpt>
      <trkpt lat="47.23153" lon="-2.1826">
        <ele>-5.63</ele>
        <time>2020-05-15T15:10:37Z</time>
      </trkpt>
      <trkpt lat="47.23177" lon="-2.18254">
        <ele>-6.11</ele>
        <time>2020-05-15T15:10:42Z</time>
      </trkpt>
      <trkpt lat="47.23186" lon="-2.18232">
        <ele>-6.11</ele>
        <time>2020-05-15T15:10:45Z</time>
      </trkpt>
      <trkpt lat="47.23195" lon="-2.18209">
        <ele>-5.63</ele>
        <time>2020-05-15T15:10:48Z</time>
      </trkpt>
      <trkpt lat="47.23212" lon="-2.1821">
        <ele>-4.67</ele>
        <time>2020-05-15T15:10:52Z</time>
      </trkpt>
      <trkpt lat="47.23217" lon="-2.18223">
        <ele>-4.67</ele>
        <time>2020-05-15T15:10:54Z</time>
      </trkpt>
      <trkpt lat="47.23241" lon="-2.18255">
        <ele>-4.67</ele>
        <time>2020-05-15T15:10:59Z</time>
      </trkpt>
      <trkpt lat="47.23308" lon="-2.18337">
        <ele>-5.15</ele>
        <time>2020-05-15T15:11:12Z</time>
      </trkpt>
      <trkpt lat="47.23344" lon="-2.18375">
        <ele>-5.15</ele>
        <time>2020-05-15T15:11:18Z</time>
      </trkpt>
      <trkpt lat="47.2336" lon="-2.18365">
        <ele>-5.63</ele>
        <time>2020-05-15T15:11:23Z</time>
      </trkpt>
      <trkpt lat="47.23348" lon="-2.18344">
        <ele>-5.15</ele>
        <time>2020-05-15T15:11:26Z</time>
      </trkpt>
      <trkpt lat="47.23302" lon="-2.18278">
        <ele>-4.67</ele>
        <time>2020-05-15T15:11:34Z</time>
      </trkpt>
      <trkpt lat="47.23234" lon="-2.18216">
        <ele>-4.67</ele>
        <time>2020-05-15T15:11:44Z</time>
      </trkpt>
      <trkpt lat="47.23207" lon="-2.18229">
        <ele>-4.19</ele>
        <time>2020-05-15T15:11:49Z</time>
      </trkpt>
      <trkpt lat="47.23158" lon="-2.18273">
        <ele>-4.67</ele>
        <time>2020-05-15T15:11:58Z</time>
      </trkpt>
      <trkpt lat="47.2314" lon="-2.18244">
        <ele>-5.15</ele>
        <time>2020-05-15T15:12:03Z</time>
      </trkpt>
      <trkpt lat="47.23139" lon="-2.18228">
        <ele>-5.15</ele>
        <time>2020-05-15T15:12:05Z</time>
      </trkpt>
      <trkpt lat="47.23123" lon="-2.18209">
        <ele>-4.67</ele>
        <time>2020-05-15T15:12:09Z</time>
      </trkpt>
      <trkpt lat="47.23111" lon="-2.18169">
        <ele>-4.67</ele>
        <time>2020-05-15T15:12:15Z</time>
      </trkpt>
      <trkpt lat="47.23077" lon="-2.18114">
        <ele>-3.71</ele>
        <time>2020-05-15T15:12:23Z</time>
      </trkpt>
      <trkpt lat="47.23072" lon="-2.1812">
        <ele>-3.71</ele>
        <time>2020-05-15T15:12:24Z</time>
      </trkpt>
      <trkpt lat="47.23063" lon="-2.18134">
        <ele>-3.71</ele>
        <time>2020-05-15T15:12:26Z</time>
      </trkpt>
      <trkpt lat="47.23035" lon="-2.18164">
        <ele>-4.67</ele>
        <time>2020-05-15T15:12:31Z</time>
      </trkpt>
      <trkpt lat="47.23026" lon="-2.18177">
        <ele>-4.67</ele>
        <time>2020-05-15T15:12:33Z</time>
      </trkpt>
      <trkpt lat="47.23" lon="-2.18176">
        <ele>-4.67</ele>
        <time>2020-05-15T15:12:39Z</time>
      </trkpt>
      <trkpt lat="47.22992" lon="-2.1814">
        <ele>-4.19</ele>
        <time>2020-05-15T15:12:44Z</time>
      </trkpt>
      <trkpt lat="47.22936" lon="-2.18051">
        <ele>-3.71</ele>
        <time>2020-05-15T15:12:57Z</time>
      </trkpt>
      <trkpt lat="47.22886" lon="-2.18001">
        <ele>-3.71</ele>
        <time>2020-05-15T15:13:07Z</time>
      </trkpt>
      <trkpt lat="47.22869" lon="-2.17972">
        <ele>-4.19</ele>
        <time>2020-05-15T15:13:12Z</time>
      </trkpt>
      <trkpt lat="47.22856" lon="-2.17984">
        <ele>-3.71</ele>
        <time>2020-05-15T15:13:18Z</time>
      </trkpt>
      <trkpt lat="47.22859" lon="-2.18022">
        <ele>-3.71</ele>
        <time>2020-05-15T15:13:23Z</time>
      </trkpt>
      <trkpt lat="47.22835" lon="-2.18095">
        <ele>-3.71</ele>
        <time>2020-05-15T15:13:33Z</time>
      </trkpt>
      <trkpt lat="47.22807" lon="-2.18085">
        <ele>-4.19</ele>
        <time>2020-05-15T15:13:40Z</time>
      </trkpt>
      <trkpt lat="47.22752" lon="-2.17989">
        <ele>-3.71</ele>
        <time>2020-05-15T15:13:53Z</time>
      </trkpt>
      <trkpt lat="47.2268" lon="-2.17908">
        <ele>-3.23</ele>
        <time>2020-05-15T15:14:02Z</time>
      </trkpt>
      <trkpt lat="47.22595" lon="-2.17817">
        <ele>-3.71</ele>
        <time>2020-05-15T15:14:11Z</time>
      </trkpt>
      <trkpt lat="47.22551" lon="-2.17784">
        <ele>-3.23</ele>
        <time>2020-05-15T15:14:15Z</time>
      </trkpt>
      <trkpt lat="47.22506" lon="-2.1774">
        <ele>-3.23</ele>
        <time>2020-05-15T15:14:19Z</time>
      </trkpt>
      <trkpt lat="47.22378" lon="-2.17643">
        <ele>-3.23</ele>
        <time>2020-05-15T15:14:30Z</time>
      </trkpt>
      <trkpt lat="47.22282" lon="-2.17573">
        <ele>-3.23</ele>
        <time>2020-05-15T15:14:40Z</time>
      </trkpt>
      <trkpt lat="47.22196" lon="-2.17492">
        <ele>-2.75</ele>
        <time>2020-05-15T15:14:49Z</time>
      </trkpt>
      <trkpt lat="47.22109" lon="-2.17424">
        <ele>-3.23</ele>
        <time>2020-05-15T15:14:58Z</time>
      </trkpt>
      <trkpt lat="47.22098" lon="-2.17368">
        <ele>-3.71</ele>
        <time>2020-05-15T15:15:03Z</time>
      </trkpt>
      <trkpt lat="47.22105" lon="-2.17347">
        <ele>-3.23</ele>
        <time>2020-05-15T15:15:05Z</time>
      </trkpt>
      <trkpt lat="47.22132" lon="-2.17335">
        <ele>-2.75</ele>
        <time>2020-05-15T15:15:10Z</time>
      </trkpt>
      <trkpt lat="47.22136" lon="-2.17343">
        <ele>-2.75</ele>
        <time>2020-05-15T15:15:11Z</time>
      </trkpt>
      <trkpt lat="47.22165" lon="-2.17401">
        <ele>-2.75</ele>
        <time>2020-05-15T15:15:17Z</time>
      </trkpt>
      <trkpt lat="47.222" lon="-2.17483">
        <ele>-3.23</ele>
        <time>2020-05-15T15:15:24Z</time>
      </trkpt>
      <trkpt lat="47.22218" lon="-2.1751">
        <ele>-3.23</ele>
        <time>2020-05-15T15:15:27Z</time>
      </trkpt>
      <trkpt lat="47.2226" lon="-2.17571">
        <ele>-3.71</ele>
        <time>2020-05-15T15:15:35Z</time>
      </trkpt>
      <trkpt lat="47.22303" lon="-2.17646">
        <ele>-4.67</ele>
        <time>2020-05-15T15:15:44Z</time>
      </trkpt>
      <trkpt lat="47.22328" lon="-2.17681">
        <ele>-5.15</ele>
        <time>2020-05-15T15:15:48Z</time>
      </trkpt>
      <trkpt lat="47.22355" lon="-2.17723">
        <ele>-5.15</ele>
        <time>2020-05-15T15:15:53Z</time>
      </trkpt>
      <trkpt lat="47.22378" lon="-2.17718">
        <ele>-6.11</ele>
        <time>2020-05-15T15:15:58Z</time>
      </trkpt>
      <trkpt lat="47.22381" lon="-2.17705">
        <ele>-6.11</ele>
        <time>2020-05-15T15:16:00Z</time>
      </trkpt>
      <trkpt lat="47.22387" lon="-2.17623">
        <ele>-5.15</ele>
        <time>2020-05-15T15:16:10Z</time>
      </trkpt>
      <trkpt lat="47.22404" lon="-2.17568">
        <ele>-3.71</ele>
        <time>2020-05-15T15:16:16Z</time>
      </trkpt>
      <trkpt lat="47.22428" lon="-2.1756">
        <ele>-3.71</ele>
        <time>2020-05-15T15:16:22Z</time>
      </trkpt>
      <trkpt lat="47.22438" lon="-2.17584">
        <ele>-3.23</ele>
        <time>2020-05-15T15:16:27Z</time>
      </trkpt>
      <trkpt lat="47.22454" lon="-2.17605">
        <ele>-3.71</ele>
        <time>2020-05-15T15:16:32Z</time>
      </trkpt>
      <trkpt lat="47.22464" lon="-2.17634">
        <ele>-3.71</ele>
        <time>2020-05-15T15:16:36Z</time>
      </trkpt>
      <trkpt lat="47.22492" lon="-2.17678">
        <ele>-4.19</ele>
        <time>2020-05-15T15:16:42Z</time>
      </trkpt>
      <trkpt lat="47.22572" lon="-2.17806">
        <ele>-5.15</ele>
        <time>2020-05-15T15:16:58Z</time>
      </trkpt>
      <trkpt lat="47.2266" lon="-2.17916">
        <ele>-6.11</ele>
        <time>2020-05-15T15:17:12Z</time>
      </trkpt>
      <trkpt lat="47.22741" lon="-2.17993">
        <ele>-6.11</ele>
        <time>2020-05-15T15:17:24Z</time>
      </trkpt>
      <trkpt lat="47.22825" lon="-2.18093">
        <ele>-6.11</ele>
        <time>2020-05-15T15:17:36Z</time>
      </trkpt>
      <trkpt lat="47.22922" lon="-2.1815">
        <ele>-6.11</ele>
        <time>2020-05-15T15:17:46Z</time>
      </trkpt>
      <trkpt lat="47.22974" lon="-2.18146">
        <ele>-6.11</ele>
        <time>2020-05-15T15:17:53Z</time>
      </trkpt>
      <trkpt lat="47.22988" lon="-2.18154">
        <ele>-6.11</ele>
        <time>2020-05-15T15:17:56Z</time>
      </trkpt>
      <trkpt lat="47.23042" lon="-2.18204">
        <ele>-6.59</ele>
        <time>2020-05-15T15:18:15Z</time>
      </trkpt>
      <trkpt lat="47.23081" lon="-2.18239">
        <ele>-6.59</ele>
        <time>2020-05-15T15:18:37Z</time>
      </trkpt>
      <trkpt lat="47.23109" lon="-2.18258">
        <ele>-7.07</ele>
        <time>2020-05-15T15:18:49Z</time>
      </trkpt>
      <trkpt lat="47.23119" lon="-2.1825">
        <ele>-7.07</ele>
        <time>2020-05-15T15:18:53Z</time>
      </trkpt>
      <trkpt lat="47.23118" lon="-2.18234">
        <ele>-6.59</ele>
        <time>2020-05-15T15:19:04Z</time>
      </trkpt>
      <trkpt lat="47.23115" lon="-2.1822">
        <ele>-6.11</ele>
        <time>2020-05-15T15:19:22Z</time>
      </trkpt>
      <trkpt lat="47.2311" lon="-2.18204">
        <ele>-5.63</ele>
        <time>2020-05-15T15:19:35Z</time>
      </trkpt>
      <trkpt lat="47.23102" lon="-2.18205">
        <ele>-5.63</ele>
        <time>2020-05-15T15:19:44Z</time>
      </trkpt>
      <trkpt lat="47.23103" lon="-2.18214">
        <ele>-5.63</ele>
        <time>2020-05-15T15:19:48Z</time>
      </trkpt>
      <trkpt lat="47.23123" lon="-2.18261">
        <ele>-6.59</ele>
        <time>2020-05-15T15:20:01Z</time>
      </trkpt>
      <trkpt lat="47.23131" lon="-2.18252">
        <ele>-6.59</ele>
        <time>2020-05-15T15:20:06Z</time>
      </trkpt>
      <trkpt lat="47.23125" lon="-2.18245">
        <ele>-7.07</ele>
        <time>2020-05-15T15:20:08Z</time>
      </trkpt>
      <trkpt lat="47.23094" lon="-2.18203">
        <ele>-7.07</ele>
        <time>2020-05-15T15:20:23Z</time>
      </trkpt>
      <trkpt lat="47.23067" lon="-2.18144">
        <ele>-6.11</ele>
        <time>2020-05-15T15:20:40Z</time>
      </trkpt>
      <trkpt lat="47.23022" lon="-2.18095">
        <ele>-5.15</ele>
        <time>2020-05-15T15:20:56Z</time>
      </trkpt>
      <trkpt lat="47.22987" lon="-2.1805">
        <ele>-4.67</ele>
        <time>2020-05-15T15:21:11Z</time>
      </trkpt>
      <trkpt lat="47.2298" lon="-2.18058">
        <ele>-5.15</ele>
        <time>2020-05-15T15:21:16Z</time>
      </trkpt>
      <trkpt lat="47.22991" lon="-2.18098">
        <ele>-5.15</ele>
        <time>2020-05-15T15:21:28Z</time>
      </trkpt>
      <trkpt lat="47.22984" lon="-2.1817">
        <ele>-6.11</ele>
        <time>2020-05-15T15:21:37Z</time>
      </trkpt>
      <trkpt lat="47.22961" lon="-2.18163">
        <ele>-6.59</ele>
        <time>2020-05-15T15:21:41Z</time>
      </trkpt>
      <trkpt lat="47.22958" lon="-2.18156">
        <ele>-6.59</ele>
        <time>2020-05-15T15:21:42Z</time>
      </trkpt>
      <trkpt lat="47.22953" lon="-2.18137">
        <ele>-6.59</ele>
        <time>2020-05-15T15:21:44Z</time>
      </trkpt>
      <trkpt lat="47.22926" lon="-2.18088">
        <ele>-6.11</ele>
        <time>2020-05-15T15:21:49Z</time>
      </trkpt>
      <trkpt lat="47.2289" lon="-2.18035">
        <ele>-5.63</ele>
        <time>2020-05-15T15:21:54Z</time>
      </trkpt>
      <trkpt lat="47.22831" lon="-2.17976">
        <ele>-5.15</ele>
        <time>2020-05-15T15:22:02Z</time>
      </trkpt>
      <trkpt lat="47.22753" lon="-2.17901">
        <ele>-4.67</ele>
        <time>2020-05-15T15:22:13Z</time>
      </trkpt>
      <trkpt lat="47.22745" lon="-2.17897">
        <ele>-4.67</ele>
        <time>2020-05-15T15:22:14Z</time>
      </trkpt>
      <trkpt lat="47.22701" lon="-2.17833">
        <ele>-4.67</ele>
        <time>2020-05-15T15:22:22Z</time>
      </trkpt>
      <trkpt lat="47.22663" lon="-2.17774">
        <ele>-4.19</ele>
        <time>2020-05-15T15:22:29Z</time>
      </trkpt>
      <trkpt lat="47.22635" lon="-2.17789">
        <ele>-3.71</ele>
        <time>2020-05-15T15:22:34Z</time>
      </trkpt>
      <trkpt lat="47.22629" lon="-2.17807">
        <ele>-3.71</ele>
        <time>2020-05-15T15:22:36Z</time>
      </trkpt>
      <trkpt lat="47.22622" lon="-2.17825">
        <ele>-3.71</ele>
        <time>2020-05-15T15:22:38Z</time>
      </trkpt>
      <trkpt lat="47.22604" lon="-2.17855">
        <ele>-4.19</ele>
        <time>2020-05-15T15:22:42Z</time>
      </trkpt>
      <trkpt lat="47.22593" lon="-2.17866">
        <ele>-4.19</ele>
        <time>2020-05-15T15:22:44Z</time>
      </trkpt>
      <trkpt lat="47.22556" lon="-2.17861">
        <ele>-4.67</ele>
        <time>2020-05-15T15:22:51Z</time>
      </trkpt>
      <trkpt lat="47.22542" lon="-2.17831">
        <ele>-4.19</ele>
        <time>2020-05-15T15:22:55Z</time>
      </trkpt>
      <trkpt lat="47.22475" lon="-2.17734">
        <ele>-3.71</ele>
        <time>2020-05-15T15:23:10Z</time>
      </trkpt>
      <trkpt lat="47.22459" lon="-2.177">
        <ele>-3.23</ele>
        <time>2020-05-15T15:23:15Z</time>
      </trkpt>
      <trkpt lat="47.22406" lon="-2.17628">
        <ele>-2.75</ele>
        <time>2020-05-15T15:23:24Z</time>
      </trkpt>
      <trkpt lat="47.22287" lon="-2.17534">
        <ele>-2.75</ele>
        <time>2020-05-15T15:23:36Z</time>
      </trkpt>
      <trkpt lat="47.22188" lon="-2.1745">
        <ele>-2.75</ele>
        <time>2020-05-15T15:23:46Z</time>
      </trkpt>
      <trkpt lat="47.22178" lon="-2.17443">
        <ele>-2.75</ele>
        <time>2020-05-15T15:23:47Z</time>
      </trkpt>
      <trkpt lat="47.22056" lon="-2.17306">
        <ele>-2.75</ele>
        <time>2020-05-15T15:24:02Z</time>
      </trkpt>
      <trkpt lat="47.22023" lon="-2.17277">
        <ele>-2.75</ele>
        <time>2020-05-15T15:24:06Z</time>
      </trkpt>
      <trkpt lat="47.21961" lon="-2.17282">
        <ele>-3.23</ele>
        <time>2020-05-15T15:24:13Z</time>
      </trkpt>
      <trkpt lat="47.21966" lon="-2.17322">
        <ele>-3.71</ele>
        <time>2020-05-15T15:24:17Z</time>
      </trkpt>
      <trkpt lat="47.2197" lon="-2.1733">
        <ele>-3.71</ele>
        <time>2020-05-15T15:24:18Z</time>
      </trkpt>
      <trkpt lat="47.22043" lon="-2.17439">
        <ele>-4.19</ele>
        <time>2020-05-15T15:24:32Z</time>
      </trkpt>
      <trkpt lat="47.22151" lon="-2.17572">
        <ele>-4.67</ele>
        <time>2020-05-15T15:24:47Z</time>
      </trkpt>
      <trkpt lat="47.22226" lon="-2.1765">
        <ele>-5.15</ele>
        <time>2020-05-15T15:24:58Z</time>
      </trkpt>
      <trkpt lat="47.22238" lon="-2.17662">
        <ele>-5.15</ele>
        <time>2020-05-15T15:25:00Z</time>
      </trkpt>
      <trkpt lat="47.22253" lon="-2.17641">
        <ele>-5.15</ele>
        <time>2020-05-15T15:25:05Z</time>
      </trkpt>
      <trkpt lat="47.22268" lon="-2.17621">
        <ele>-5.15</ele>
        <time>2020-05-15T15:25:11Z</time>
      </trkpt>
      <trkpt lat="47.22271" lon="-2.17625">
        <ele>-5.15</ele>
        <time>2020-05-15T15:25:12Z</time>
      </trkpt>
      <trkpt lat="47.22288" lon="-2.17661">
        <ele>-5.15</ele>
        <time>2020-05-15T15:25:19Z</time>
      </trkpt>
      <trkpt lat="47.22296" lon="-2.17669">
        <ele>-5.63</ele>
        <time>2020-05-15T15:25:21Z</time>
      </trkpt>
      <trkpt lat="47.22312" lon="-2.17683">
        <ele>-5.63</ele>
        <time>2020-05-15T15:25:25Z</time>
      </trkpt>
      <trkpt lat="47.22322" lon="-2.17696">
        <ele>-5.63</ele>
        <time>2020-05-15T15:25:28Z</time>
      </trkpt>
      <trkpt lat="47.22336" lon="-2.17718">
        <ele>-5.63</ele>
        <time>2020-05-15T15:25:32Z</time>
      </trkpt>
      <trkpt lat="47.22351" lon="-2.17711">
        <ele>-6.11</ele>
        <time>2020-05-15T15:25:37Z</time>
      </trkpt>
      <trkpt lat="47.22341" lon="-2.17682">
        <ele>-5.63</ele>
        <time>2020-05-15T15:25:41Z</time>
      </trkpt>
      <trkpt lat="47.22314" lon="-2.17635">
        <ele>-5.15</ele>
        <time>2020-05-15T15:25:50Z</time>
      </trkpt>
      <trkpt lat="47.22297" lon="-2.17588">
        <ele>-4.67</ele>
        <time>2020-05-15T15:26:05Z</time>
      </trkpt>
      <trkpt lat="47.22294" lon="-2.17607">
        <ele>-4.67</ele>
        <time>2020-05-15T15:26:13Z</time>
      </trkpt>
      <trkpt lat="47.22295" lon="-2.17622">
        <ele>-4.67</ele>
        <time>2020-05-15T15:26:15Z</time>
      </trkpt>
      <trkpt lat="47.22293" lon="-2.17698">
        <ele>-5.15</ele>
        <time>2020-05-15T15:26:24Z</time>
      </trkpt>
      <trkpt lat="47.22281" lon="-2.17691">
        <ele>-5.63</ele>
        <time>2020-05-15T15:26:26Z</time>
      </trkpt>
      <trkpt lat="47.22226" lon="-2.17612">
        <ele>-5.15</ele>
        <time>2020-05-15T15:26:36Z</time>
      </trkpt>
      <trkpt lat="47.22207" lon="-2.17583">
        <ele>-4.19</ele>
        <time>2020-05-15T15:26:40Z</time>
      </trkpt>
      <trkpt lat="47.22167" lon="-2.17554">
        <ele>-4.19</ele>
        <time>2020-05-15T15:26:46Z</time>
      </trkpt>
      <trkpt lat="47.22154" lon="-2.17576">
        <ele>-4.19</ele>
        <time>2020-05-15T15:26:50Z</time>
      </trkpt>
      <trkpt lat="47.2217" lon="-2.17584">
        <ele>-4.19</ele>
        <time>2020-05-15T15:26:53Z</time>
      </trkpt>
      <trkpt lat="47.2225" lon="-2.17661">
        <ele>-4.67</ele>
        <time>2020-05-15T15:27:06Z</time>
      </trkpt>
      <trkpt lat="47.22273" lon="-2.17649">
        <ele>-4.67</ele>
        <time>2020-05-15T15:27:11Z</time>
      </trkpt>
      <trkpt lat="47.22246" lon="-2.17632">
        <ele>-4.19</ele>
        <time>2020-05-15T15:27:16Z</time>
      </trkpt>
      <trkpt lat="47.22165" lon="-2.17548">
        <ele>-3.71</ele>
        <time>2020-05-15T15:27:29Z</time>
      </trkpt>
      <trkpt lat="47.22076" lon="-2.17466">
        <ele>-3.71</ele>
        <time>2020-05-15T15:27:41Z</time>
      </trkpt>
      <trkpt lat="47.21977" lon="-2.17346">
        <ele>-3.23</ele>
        <time>2020-05-15T15:27:54Z</time>
      </trkpt>
      <trkpt lat="47.21877" lon="-2.17239">
        <ele>-3.71</ele>
        <time>2020-05-15T15:28:05Z</time>
      </trkpt>
      <trkpt lat="47.21803" lon="-2.17161">
        <ele>-4.67</ele>
        <time>2020-05-15T15:28:12Z</time>
      </trkpt>
      <trkpt lat="47.21763" lon="-2.17111">
        <ele>-4.67</ele>
        <time>2020-05-15T15:28:16Z</time>
      </trkpt>
      <trkpt lat="47.21749" lon="-2.17084">
        <ele>-4.67</ele>
        <time>2020-05-15T15:28:18Z</time>
      </trkpt>
      <trkpt lat="47.21706" lon="-2.17034">
        <ele>-4.67</ele>
        <time>2020-05-15T15:28:23Z</time>
      </trkpt>
      <trkpt lat="47.21589" lon="-2.16944">
        <ele>-4.19</ele>
        <time>2020-05-15T15:28:35Z</time>
      </trkpt>
      <trkpt lat="47.21553" lon="-2.16959">
        <ele>-4.19</ele>
        <time>2020-05-15T15:28:39Z</time>
      </trkpt>
      <trkpt lat="47.21566" lon="-2.17006">
        <ele>-4.19</ele>
        <time>2020-05-15T15:28:43Z</time>
      </trkpt>
      <trkpt lat="47.21573" lon="-2.17013">
        <ele>-4.19</ele>
        <time>2020-05-15T15:28:44Z</time>
      </trkpt>
      <trkpt lat="47.21632" lon="-2.17079">
        <ele>-5.15</ele>
        <time>2020-05-15T15:28:53Z</time>
      </trkpt>
      <trkpt lat="47.21692" lon="-2.17175">
        <ele>-5.15</ele>
        <time>2020-05-15T15:29:05Z</time>
      </trkpt>
      <trkpt lat="47.21733" lon="-2.17228">
        <ele>-5.63</ele>
        <time>2020-05-15T15:29:12Z</time>
      </trkpt>
      <trkpt lat="47.21774" lon="-2.17265">
        <ele>-5.15</ele>
        <time>2020-05-15T15:29:17Z</time>
      </trkpt>
      <trkpt lat="47.21807" lon="-2.17303">
        <ele>-5.15</ele>
        <time>2020-05-15T15:29:21Z</time>
      </trkpt>
      <trkpt lat="47.21828" lon="-2.17288">
        <ele>-5.15</ele>
        <time>2020-05-15T15:29:26Z</time>
      </trkpt>
      <trkpt lat="47.21822" lon="-2.17283">
        <ele>-5.15</ele>
        <time>2020-05-15T15:29:27Z</time>
      </trkpt>
      <trkpt lat="47.21786" lon="-2.17289">
        <ele>-4.67</ele>
        <time>2020-05-15T15:29:35Z</time>
      </trkpt>
      <trkpt lat="47.21775" lon="-2.1728">
        <ele>-4.19</ele>
        <time>2020-05-15T15:29:38Z</time>
      </trkpt>
      <trkpt lat="47.21733" lon="-2.1723">
        <ele>-4.67</ele>
        <time>2020-05-15T15:29:50Z</time>
      </trkpt>
      <trkpt lat="47.21716" lon="-2.17202">
        <ele>-4.67</ele>
        <time>2020-05-15T15:29:56Z</time>
      </trkpt>
      <trkpt lat="47.21701" lon="-2.17181">
        <ele>-4.67</ele>
        <time>2020-05-15T15:30:00Z</time>
      </trkpt>
      <trkpt lat="47.21658" lon="-2.17135">
        <ele>-4.67</ele>
        <time>2020-05-15T15:30:09Z</time>
      </trkpt>
      <trkpt lat="47.2164" lon="-2.1711">
        <ele>-4.67</ele>
        <time>2020-05-15T15:30:14Z</time>
      </trkpt>
      <trkpt lat="47.21623" lon="-2.17093">
        <ele>-5.15</ele>
        <time>2020-05-15T15:30:23Z</time>
      </trkpt>
      <trkpt lat="47.21612" lon="-2.17079">
        <ele>-5.15</ele>
        <time>2020-05-15T15:30:37Z</time>
      </trkpt>
      <trkpt lat="47.21609" lon="-2.17073">
        <ele>-5.15</ele>
        <time>2020-05-15T15:30:51Z</time>
      </trkpt>
      <trkpt lat="47.21594" lon="-2.17047">
        <ele>-5.15</ele>
        <time>2020-05-15T15:31:05Z</time>
      </trkpt>
      <trkpt lat="47.21592" lon="-2.17035">
        <ele>-4.67</ele>
        <time>2020-05-15T15:31:20Z</time>
      </trkpt>
      <trkpt lat="47.21585" lon="-2.17016">
        <ele>-4.67</ele>
        <time>2020-05-15T15:31:31Z</time>
      </trkpt>
      <trkpt lat="47.21587" lon="-2.17016">
        <ele>-4.67</ele>
        <time>2020-05-15T15:31:37Z</time>
      </trkpt>
      <trkpt lat="47.21569" lon="-2.16965">
        <ele>-5.15</ele>
        <time>2020-05-15T15:31:51Z</time>
      </trkpt>
      <trkpt lat="47.21557" lon="-2.16933">
        <ele>-4.19</ele>
        <time>2020-05-15T15:32:03Z</time>
      </trkpt>
      <trkpt lat="47.21557" lon="-2.16918">
        <ele>-3.71</ele>
        <time>2020-05-15T15:32:13Z</time>
      </trkpt>
      <trkpt lat="47.2156" lon="-2.16917">
        <ele>-3.71</ele>
        <time>2020-05-15T15:32:16Z</time>
      </trkpt>
      <trkpt lat="47.2158" lon="-2.16935">
        <ele>-4.19</ele>
        <time>2020-05-15T15:32:30Z</time>
      </trkpt>
      <trkpt lat="47.21613" lon="-2.1697">
        <ele>-4.67</ele>
        <time>2020-05-15T15:32:42Z</time>
      </trkpt>
      <trkpt lat="47.2164" lon="-2.17001">
        <ele>-5.15</ele>
        <time>2020-05-15T15:32:49Z</time>
      </trkpt>
      <trkpt lat="47.21653" lon="-2.16993">
        <ele>-5.63</ele>
        <time>2020-05-15T15:32:54Z</time>
      </trkpt>
      <trkpt lat="47.21653" lon="-2.16987">
        <ele>-5.63</ele>
        <time>2020-05-15T15:32:55Z</time>
      </trkpt>
      <trkpt lat="47.2166" lon="-2.16965">
        <ele>-4.67</ele>
        <time>2020-05-15T15:33:05Z</time>
      </trkpt>
      <trkpt lat="47.21656" lon="-2.16966">
        <ele>-4.19</ele>
        <time>2020-05-15T15:33:25Z</time>
      </trkpt>
      <trkpt lat="47.21658" lon="-2.16969">
        <ele>-4.19</ele>
        <time>2020-05-15T15:33:30Z</time>
      </trkpt>
      <trkpt lat="47.21696" lon="-2.1701">
        <ele>-4.19</ele>
        <time>2020-05-15T15:33:48Z</time>
      </trkpt>
      <trkpt lat="47.21762" lon="-2.17087">
        <ele>-4.19</ele>
        <time>2020-05-15T15:34:04Z</time>
      </trkpt>
      <trkpt lat="47.2185" lon="-2.17193">
        <ele>-4.67</ele>
        <time>2020-05-15T15:34:20Z</time>
      </trkpt>
      <trkpt lat="47.21931" lon="-2.17306">
        <ele>-5.15</ele>
        <time>2020-05-15T15:34:36Z</time>
      </trkpt>
      <trkpt lat="47.22019" lon="-2.17395">
        <ele>-4.67</ele>
        <time>2020-05-15T15:34:49Z</time>
      </trkpt>
      <trkpt lat="47.22102" lon="-2.17506">
        <ele>-4.67</ele>
        <time>2020-05-15T15:35:03Z</time>
      </trkpt>
      <trkpt lat="47.22109" lon="-2.17515">
        <ele>-4.67</ele>
        <time>2020-05-15T15:35:04Z</time>
      </trkpt>
      <trkpt lat="47.22197" lon="-2.17579">
        <ele>-5.15</ele>
        <time>2020-05-15T15:35:15Z</time>
      </trkpt>
      <trkpt lat="47.22299" lon="-2.17638">
        <ele>-5.15</ele>
        <time>2020-05-15T15:35:28Z</time>
      </trkpt>
      <trkpt lat="47.22376" lon="-2.17711">
        <ele>-5.63</ele>
        <time>2020-05-15T15:35:41Z</time>
      </trkpt>
      <trkpt lat="47.22388" lon="-2.17706">
        <ele>-5.63</ele>
        <time>2020-05-15T15:35:45Z</time>
      </trkpt>
      <trkpt lat="47.22386" lon="-2.17683">
        <ele>-5.15</ele>
        <time>2020-05-15T15:35:55Z</time>
      </trkpt>
      <trkpt lat="47.22385" lon="-2.17683">
        <ele>-4.19</ele>
        <time>2020-05-15T15:36:20Z</time>
      </trkpt>
      <trkpt lat="47.22385" lon="-2.17683">
        <ele>-4.19</ele>
        <time>2020-05-15T15:36:45Z</time>
      </trkpt>
      <trkpt lat="47.22362" lon="-2.17638">
        <ele>-3.71</ele>
        <time>2020-05-15T15:36:59Z</time>
      </trkpt>
      <trkpt lat="47.22347" lon="-2.1763">
        <ele>-3.71</ele>
        <time>2020-05-15T15:37:04Z</time>
      </trkpt>
      <trkpt lat="47.2235" lon="-2.17647">
        <ele>-4.19</ele>
        <time>2020-05-15T15:37:09Z</time>
      </trkpt>
      <trkpt lat="47.22355" lon="-2.17662">
        <ele>-4.67</ele>
        <time>2020-05-15T15:37:12Z</time>
      </trkpt>
      <trkpt lat="47.22369" lon="-2.1766">
        <ele>-4.67</ele>
        <time>2020-05-15T15:37:17Z</time>
      </trkpt>
      <trkpt lat="47.22377" lon="-2.17647">
        <ele>-4.67</ele>
        <time>2020-05-15T15:37:20Z</time>
      </trkpt>
      <trkpt lat="47.2239" lon="-2.17651">
        <ele>-4.67</ele>
        <time>2020-05-15T15:37:25Z</time>
      </trkpt>
      <trkpt lat="47.2244" lon="-2.17718">
        <ele>-5.15</ele>
        <time>2020-05-15T15:37:40Z</time>
      </trkpt>
      <trkpt lat="47.22518" lon="-2.17823">
        <ele>-5.63</ele>
        <time>2020-05-15T15:37:56Z</time>
      </trkpt>
      <trkpt lat="47.22522" lon="-2.1783">
        <ele>-5.63</ele>
        <time>2020-05-15T15:37:57Z</time>
      </trkpt>
      <trkpt lat="47.22563" lon="-2.17893">
        <ele>-5.63</ele>
        <time>2020-05-15T15:38:06Z</time>
      </trkpt>
      <trkpt lat="47.22583" lon="-2.17893">
        <ele>-5.15</ele>
        <time>2020-05-15T15:38:10Z</time>
      </trkpt>
      <trkpt lat="47.22608" lon="-2.17825">
        <ele>-3.71</ele>
        <time>2020-05-15T15:38:20Z</time>
      </trkpt>
      <trkpt lat="47.22626" lon="-2.17821">
        <ele>-3.71</ele>
        <time>2020-05-15T15:38:25Z</time>
      </trkpt>
      <trkpt lat="47.22635" lon="-2.17838">
        <ele>-3.71</ele>
        <time>2020-05-15T15:38:29Z</time>
      </trkpt>
      <trkpt lat="47.22662" lon="-2.17869">
        <ele>-3.71</ele>
        <time>2020-05-15T15:38:38Z</time>
      </trkpt>
      <trkpt lat="47.22714" lon="-2.1792">
        <ele>-4.19</ele>
        <time>2020-05-15T15:38:47Z</time>
      </trkpt>
      <trkpt lat="47.22774" lon="-2.17982">
        <ele>-4.19</ele>
        <time>2020-05-15T15:38:57Z</time>
      </trkpt>
      <trkpt lat="47.22875" lon="-2.18063">
        <ele>-4.67</ele>
        <time>2020-05-15T15:39:13Z</time>
      </trkpt>
      <trkpt lat="47.22975" lon="-2.18138">
        <ele>-5.15</ele>
        <time>2020-05-15T15:39:26Z</time>
      </trkpt>
      <trkpt lat="47.2303" lon="-2.18173">
        <ele>-5.63</ele>
        <time>2020-05-15T15:39:33Z</time>
      </trkpt>
      <trkpt lat="47.23058" lon="-2.1821">
        <ele>-5.63</ele>
        <time>2020-05-15T15:39:38Z</time>
      </trkpt>
      <trkpt lat="47.23085" lon="-2.18208">
        <ele>-5.63</ele>
        <time>2020-05-15T15:39:44Z</time>
      </trkpt>
      <trkpt lat="47.23062" lon="-2.1814">
        <ele>-5.15</ele>
        <time>2020-05-15T15:39:53Z</time>
      </trkpt>
      <trkpt lat="47.23036" lon="-2.18142">
        <ele>-4.67</ele>
        <time>2020-05-15T15:39:59Z</time>
      </trkpt>
      <trkpt lat="47.23036" lon="-2.1815">
        <ele>-4.67</ele>
        <time>2020-05-15T15:40:00Z</time>
      </trkpt>
      <trkpt lat="47.23051" lon="-2.18184">
        <ele>-4.67</ele>
        <time>2020-05-15T15:40:05Z</time>
      </trkpt>
      <trkpt lat="47.23096" lon="-2.18237">
        <ele>-4.67</ele>
        <time>2020-05-15T15:40:16Z</time>
      </trkpt>
      <trkpt lat="47.23177" lon="-2.18304">
        <ele>-5.63</ele>
        <time>2020-05-15T15:40:30Z</time>
      </trkpt>
      <trkpt lat="47.23184" lon="-2.18308">
        <ele>-5.63</ele>
        <time>2020-05-15T15:40:31Z</time>
      </trkpt>
      <trkpt lat="47.23202" lon="-2.18291">
        <ele>-5.15</ele>
        <time>2020-05-15T15:40:36Z</time>
      </trkpt>
      <trkpt lat="47.23176" lon="-2.18274">
        <ele>-4.19</ele>
        <time>2020-05-15T15:40:42Z</time>
      </trkpt>
      <trkpt lat="47.23167" lon="-2.18277">
        <ele>-4.19</ele>
        <time>2020-05-15T15:40:44Z</time>
      </trkpt>
      <trkpt lat="47.23121" lon="-2.18245">
        <ele>-4.19</ele>
        <time>2020-05-15T15:40:54Z</time>
      </trkpt>
      <trkpt lat="47.231" lon="-2.18168">
        <ele>-3.71</ele>
        <time>2020-05-15T15:41:02Z</time>
      </trkpt>
      <trkpt lat="47.23063" lon="-2.18138">
        <ele>-3.71</ele>
        <time>2020-05-15T15:41:07Z</time>
      </trkpt>
      <trkpt lat="47.23012" lon="-2.18112">
        <ele>-3.71</ele>
        <time>2020-05-15T15:41:13Z</time>
      </trkpt>
      <trkpt lat="47.22916" lon="-2.18061">
        <ele>-3.71</ele>
        <time>2020-05-15T15:41:27Z</time>
      </trkpt>
      <trkpt lat="47.22911" lon="-2.18056">
        <ele>-3.71</ele>
        <time>2020-05-15T15:41:28Z</time>
      </trkpt>
      <trkpt lat="47.22857" lon="-2.18001">
        <ele>-3.71</ele>
        <time>2020-05-15T15:41:40Z</time>
      </trkpt>
      <trkpt lat="47.22774" lon="-2.17931">
        <ele>-3.23</ele>
        <time>2020-05-15T15:41:54Z</time>
      </trkpt>
      <trkpt lat="47.22757" lon="-2.17918">
        <ele>-2.75</ele>
        <time>2020-05-15T15:41:56Z</time>
      </trkpt>
      <trkpt lat="47.22635" lon="-2.17862">
        <ele>-3.23</ele>
        <time>2020-05-15T15:42:08Z</time>
      </trkpt>
      <trkpt lat="47.22496" lon="-2.17772">
        <ele>-3.71</ele>
        <time>2020-05-15T15:42:22Z</time>
      </trkpt>
      <trkpt lat="47.22363" lon="-2.1765">
        <ele>-3.71</ele>
        <time>2020-05-15T15:42:37Z</time>
      </trkpt>
      <trkpt lat="47.22335" lon="-2.17622">
        <ele>-3.71</ele>
        <time>2020-05-15T15:42:40Z</time>
      </trkpt>
      <trkpt lat="47.22253" lon="-2.17567">
        <ele>-3.23</ele>
        <time>2020-05-15T15:42:48Z</time>
      </trkpt>
      <trkpt lat="47.2218" lon="-2.17496">
        <ele>-3.71</ele>
        <time>2020-05-15T15:42:56Z</time>
      </trkpt>
      <trkpt lat="47.2211" lon="-2.17426">
        <ele>-3.71</ele>
        <time>2020-05-15T15:43:04Z</time>
      </trkpt>
      <trkpt lat="47.22074" lon="-2.17409">
        <ele>-3.71</ele>
        <time>2020-05-15T15:43:08Z</time>
      </trkpt>
      <trkpt lat="47.22038" lon="-2.17377">
        <ele>-3.23</ele>
        <time>2020-05-15T15:43:14Z</time>
      </trkpt>
      <trkpt lat="47.22057" lon="-2.17375">
        <ele>-3.23</ele>
        <time>2020-05-15T15:43:18Z</time>
      </trkpt>
      <trkpt lat="47.22142" lon="-2.17449">
        <ele>-3.71</ele>
        <time>2020-05-15T15:43:37Z</time>
      </trkpt>
      <trkpt lat="47.22186" lon="-2.17496">
        <ele>-3.23</ele>
        <time>2020-05-15T15:43:48Z</time>
      </trkpt>
      <trkpt lat="47.2225" lon="-2.17554">
        <ele>-3.23</ele>
        <time>2020-05-15T15:44:02Z</time>
      </trkpt>
      <trkpt lat="47.22341" lon="-2.17623">
        <ele>-3.71</ele>
        <time>2020-05-15T15:44:15Z</time>
      </trkpt>
      <trkpt lat="47.22458" lon="-2.17718">
        <ele>-4.19</ele>
        <time>2020-05-15T15:44:29Z</time>
      </trkpt>
      <trkpt lat="47.22499" lon="-2.17751">
        <ele>-3.71</ele>
        <time>2020-05-15T15:44:34Z</time>
      </trkpt>
      <trkpt lat="47.22625" lon="-2.17869">
        <ele>-4.19</ele>
        <time>2020-05-15T15:44:49Z</time>
      </trkpt>
      <trkpt lat="47.22634" lon="-2.17879">
        <ele>-4.19</ele>
        <time>2020-05-15T15:44:50Z</time>
      </trkpt>
      <trkpt lat="47.22649" lon="-2.17899">
        <ele>-4.19</ele>
        <time>2020-05-15T15:44:52Z</time>
      </trkpt>
      <trkpt lat="47.2267" lon="-2.17927">
        <ele>-4.19</ele>
        <time>2020-05-15T15:44:55Z</time>
      </trkpt>
      <trkpt lat="47.22706" lon="-2.18006">
        <ele>-4.19</ele>
        <time>2020-05-15T15:45:02Z</time>
      </trkpt>
      <trkpt lat="47.22759" lon="-2.18085">
        <ele>-4.67</ele>
        <time>2020-05-15T15:45:10Z</time>
      </trkpt>
      <trkpt lat="47.22791" lon="-2.1808">
        <ele>-5.15</ele>
        <time>2020-05-15T15:45:15Z</time>
      </trkpt>
      <trkpt lat="47.22793" lon="-2.18071">
        <ele>-5.15</ele>
        <time>2020-05-15T15:45:16Z</time>
      </trkpt>
      <trkpt lat="47.22797" lon="-2.18029">
        <ele>-5.15</ele>
        <time>2020-05-15T15:45:21Z</time>
      </trkpt>
      <trkpt lat="47.22804" lon="-2.18003">
        <ele>-4.67</ele>
        <time>2020-05-15T15:45:25Z</time>
      </trkpt>
      <trkpt lat="47.2282" lon="-2.18011">
        <ele>-4.67</ele>
        <time>2020-05-15T15:45:31Z</time>
      </trkpt>
      <trkpt lat="47.22864" lon="-2.18071">
        <ele>-4.19</ele>
        <time>2020-05-15T15:45:43Z</time>
      </trkpt>
      <trkpt lat="47.22878" lon="-2.18088">
        <ele>-4.67</ele>
        <time>2020-05-15T15:45:46Z</time>
      </trkpt>
      <trkpt lat="47.229" lon="-2.18121">
        <ele>-4.67</ele>
        <time>2020-05-15T15:45:51Z</time>
      </trkpt>
      <trkpt lat="47.22951" lon="-2.18179">
        <ele>-5.15</ele>
        <time>2020-05-15T15:46:01Z</time>
      </trkpt>
      <trkpt lat="47.22969" lon="-2.18162">
        <ele>-5.63</ele>
        <time>2020-05-15T15:46:06Z</time>
      </trkpt>
      <trkpt lat="47.22974" lon="-2.18148">
        <ele>-5.15</ele>
        <time>2020-05-15T15:46:08Z</time>
      </trkpt>
      <trkpt lat="47.22979" lon="-2.18135">
        <ele>-5.15</ele>
        <time>2020-05-15T15:46:10Z</time>
      </trkpt>
      <trkpt lat="47.23" lon="-2.1814">
        <ele>-5.15</ele>
        <time>2020-05-15T15:46:17Z</time>
      </trkpt>
      <trkpt lat="47.2301" lon="-2.18165">
        <ele>-4.67</ele>
        <time>2020-05-15T15:46:23Z</time>
      </trkpt>
      <trkpt lat="47.23061" lon="-2.18201">
        <ele>-4.19</ele>
        <time>2020-05-15T15:46:43Z</time>
      </trkpt>
      <trkpt lat="47.23114" lon="-2.1823">
        <ele>-4.19</ele>
        <time>2020-05-15T15:47:08Z</time>
      </trkpt>
      <trkpt lat="47.23123" lon="-2.18233">
        <ele>-3.71</ele>
        <time>2020-05-15T15:47:28Z</time>
      </trkpt>
      <trkpt lat="47.23123" lon="-2.18234">
        <ele>-4.19</ele>
        <time>2020-05-15T15:48:03Z</time>
      </trkpt>
      <trkpt lat="47.23123" lon="-2.18234">
        <ele>-4.19</ele>
        <time>2020-05-15T15:48:27Z</time>
      </trkpt>
      <trkpt lat="47.23127" lon="-2.1824">
        <ele>-4.19</ele>
        <time>2020-05-15T15:48:42Z</time>
      </trkpt>
      <trkpt lat="47.23128" lon="-2.18244">
        <ele>-4.19</ele>
        <time>2020-05-15T15:48:45Z</time>
      </trkpt>
      <trkpt lat="47.2312" lon="-2.18251">
        <ele>-3.71</ele>
        <time>2020-05-15T15:48:55Z</time>
      </trkpt>
      <trkpt lat="47.23084" lon="-2.18218">
        <ele>-3.71</ele>
        <time>2020-05-15T15:49:17Z</time>
      </trkpt>
      <trkpt lat="47.23033" lon="-2.18177">
        <ele>-3.23</ele>
        <time>2020-05-15T15:49:35Z</time>
      </trkpt>
      <trkpt lat="47.22963" lon="-2.18129">
        <ele>-3.71</ele>
        <time>2020-05-15T15:49:52Z</time>
      </trkpt>
      <trkpt lat="47.22949" lon="-2.18106">
        <ele>-3.71</ele>
        <time>2020-05-15T15:49:57Z</time>
      </trkpt>
      <trkpt lat="47.22934" lon="-2.18081">
        <ele>-3.71</ele>
        <time>2020-05-15T15:50:02Z</time>
      </trkpt>
      <trkpt lat="47.2288" lon="-2.18016">
        <ele>-2.75</ele>
        <time>2020-05-15T15:50:19Z</time>
      </trkpt>
      <trkpt lat="47.22829" lon="-2.17968">
        <ele>-3.23</ele>
        <time>2020-05-15T15:50:40Z</time>
      </trkpt>
      <trkpt lat="47.22797" lon="-2.17937">
        <ele>-3.23</ele>
        <time>2020-05-15T15:50:56Z</time>
      </trkpt>
      <trkpt lat="47.22788" lon="-2.1793">
        <ele>-3.23</ele>
        <time>2020-05-15T15:51:13Z</time>
      </trkpt>
      <trkpt lat="47.22752" lon="-2.17906">
        <ele>-2.75</ele>
        <time>2020-05-15T15:51:28Z</time>
      </trkpt>
      <trkpt lat="47.22703" lon="-2.17877">
        <ele>-3.23</ele>
        <time>2020-05-15T15:51:38Z</time>
      </trkpt>
      <trkpt lat="47.22657" lon="-2.17838">
        <ele>-2.75</ele>
        <time>2020-05-15T15:51:51Z</time>
      </trkpt>
      <trkpt lat="47.22639" lon="-2.17823">
        <ele>-2.75</ele>
        <time>2020-05-15T15:51:56Z</time>
      </trkpt>
      <trkpt lat="47.22632" lon="-2.17788">
        <ele>-2.27</ele>
        <time>2020-05-15T15:52:01Z</time>
      </trkpt>
      <trkpt lat="47.22612" lon="-2.1772">
        <ele>-2.27</ele>
        <time>2020-05-15T15:52:08Z</time>
      </trkpt>
      <trkpt lat="47.22574" lon="-2.17677">
        <ele>-1.79</ele>
        <time>2020-05-15T15:52:14Z</time>
      </trkpt>
      <trkpt lat="47.22443" lon="-2.17626">
        <ele>-1.79</ele>
        <time>2020-05-15T15:52:30Z</time>
      </trkpt>
      <trkpt lat="47.22358" lon="-2.17565">
        <ele>-2.27</ele>
        <time>2020-05-15T15:52:43Z</time>
      </trkpt>
      <trkpt lat="47.22346" lon="-2.17558">
        <ele>-2.27</ele>
        <time>2020-05-15T15:52:45Z</time>
      </trkpt>
      <trkpt lat="47.22287" lon="-2.17515">
        <ele>-2.27</ele>
        <time>2020-05-15T15:53:00Z</time>
      </trkpt>
      <trkpt lat="47.22284" lon="-2.17514">
        <ele>-2.27</ele>
        <time>2020-05-15T15:53:01Z</time>
      </trkpt>
      <trkpt lat="47.2228" lon="-2.17525">
        <ele>-2.27</ele>
        <time>2020-05-15T15:53:05Z</time>
      </trkpt>
      <trkpt lat="47.22311" lon="-2.17581">
        <ele>-2.75</ele>
        <time>2020-05-15T15:53:19Z</time>
      </trkpt>
      <trkpt lat="47.22319" lon="-2.17603">
        <ele>-2.75</ele>
        <time>2020-05-15T15:53:22Z</time>
      </trkpt>
      <trkpt lat="47.22369" lon="-2.17659">
        <ele>-3.71</ele>
        <time>2020-05-15T15:53:31Z</time>
      </trkpt>
      <trkpt lat="47.2238" lon="-2.17671">
        <ele>-4.19</ele>
        <time>2020-05-15T15:53:33Z</time>
      </trkpt>
      <trkpt lat="47.22398" lon="-2.17658">
        <ele>-3.71</ele>
        <time>2020-05-15T15:53:38Z</time>
      </trkpt>
      <trkpt lat="47.224" lon="-2.1765">
        <ele>-3.71</ele>
        <time>2020-05-15T15:53:39Z</time>
      </trkpt>
      <trkpt lat="47.22431" lon="-2.17581">
        <ele>-2.75</ele>
        <time>2020-05-15T15:53:51Z</time>
      </trkpt>
      <trkpt lat="47.22444" lon="-2.17592">
        <ele>-2.27</ele>
        <time>2020-05-15T15:53:57Z</time>
      </trkpt>
      <trkpt lat="47.22484" lon="-2.17649">
        <ele>-2.27</ele>
        <time>2020-05-15T15:54:08Z</time>
      </trkpt>
      <trkpt lat="47.22554" lon="-2.17754">
        <ele>-2.75</ele>
        <time>2020-05-15T15:54:21Z</time>
      </trkpt>
      <trkpt lat="47.22655" lon="-2.17885">
        <ele>-3.71</ele>
        <time>2020-05-15T15:54:34Z</time>
      </trkpt>
      <trkpt lat="47.22729" lon="-2.18009">
        <ele>-4.19</ele>
        <time>2020-05-15T15:54:44Z</time>
      </trkpt>
      <trkpt lat="47.22766" lon="-2.18069">
        <ele>-4.67</ele>
        <time>2020-05-15T15:54:48Z</time>
      </trkpt>
      <trkpt lat="47.228" lon="-2.181">
        <ele>-4.67</ele>
        <time>2020-05-15T15:54:51Z</time>
      </trkpt>
      <trkpt lat="47.22842" lon="-2.1812">
        <ele>-5.15</ele>
        <time>2020-05-15T15:54:55Z</time>
      </trkpt>
      <trkpt lat="47.22908" lon="-2.18158">
        <ele>-5.15</ele>
        <time>2020-05-15T15:55:02Z</time>
      </trkpt>
      <trkpt lat="47.22951" lon="-2.18177">
        <ele>-5.15</ele>
        <time>2020-05-15T15:55:06Z</time>
      </trkpt>
      <trkpt lat="47.23055" lon="-2.18227">
        <ele>-4.67</ele>
        <time>2020-05-15T15:55:17Z</time>
      </trkpt>
      <trkpt lat="47.23147" lon="-2.18282">
        <ele>-4.19</ele>
        <time>2020-05-15T15:55:28Z</time>
      </trkpt>
      <trkpt lat="47.23175" lon="-2.1827">
        <ele>-4.19</ele>
        <time>2020-05-15T15:55:33Z</time>
      </trkpt>
      <trkpt lat="47.23179" lon="-2.18247">
        <ele>-4.19</ele>
        <time>2020-05-15T15:55:37Z</time>
      </trkpt>
      <trkpt lat="47.23174" lon="-2.18225">
        <ele>-3.23</ele>
        <time>2020-05-15T15:55:50Z</time>
      </trkpt>
      <trkpt lat="47.23172" lon="-2.18215">
        <ele>-3.23</ele>
        <time>2020-05-15T15:56:07Z</time>
      </trkpt>
      <trkpt lat="47.23173" lon="-2.18196">
        <ele>-2.75</ele>
        <time>2020-05-15T15:56:27Z</time>
      </trkpt>
      <trkpt lat="47.23173" lon="-2.18196">
        <ele>-2.27</ele>
        <time>2020-05-15T15:57:09Z</time>
      </trkpt>
      <trkpt lat="47.23173" lon="-2.18195">
        <ele>-2.75</ele>
        <time>2020-05-15T15:57:46Z</time>
      </trkpt>
      <trkpt lat="47.23173" lon="-2.18197">
        <ele>-2.27</ele>
        <time>2020-05-15T15:58:05Z</time>
      </trkpt>
      <trkpt lat="47.23175" lon="-2.18191">
        <ele>-2.75</ele>
        <time>2020-05-15T15:58:24Z</time>
      </trkpt>
      <trkpt lat="47.23176" lon="-2.18189">
        <ele>-2.75</ele>
        <time>2020-05-15T15:58:26Z</time>
      </trkpt>
      <trkpt lat="47.2318" lon="-2.18164">
        <ele>-2.27</ele>
        <time>2020-05-15T15:58:43Z</time>
      </trkpt>
      <trkpt lat="47.23182" lon="-2.18143">
        <ele>-1.79</ele>
        <time>2020-05-15T15:58:55Z</time>
      </trkpt>
      <trkpt lat="47.23182" lon="-2.18142">
        <ele>-1.79</ele>
        <time>2020-05-15T15:59:13Z</time>
      </trkpt>
      <trkpt lat="47.23182" lon="-2.18141">
        <ele>-1.3</ele>
        <time>2020-05-15T15:59:41Z</time>
      </trkpt>
      <trkpt lat="47.23181" lon="-2.18142">
        <ele>-1.3</ele>
        <time>2020-05-15T15:59:51Z</time>
      </trkpt>
    </trkseg>
  </trk>
  <trk>
    <name><![CDATA[Tracé actuel: 25 MAI 2020 16:24]]></name>
    <trkseg>
      <trkpt lat="47.23187" lon="-2.18111">
        <ele>15.52</ele>
        <time>2020-05-25T14:24:32Z</time>
      </trkpt>
      <trkpt lat="47.23187" lon="-2.18125">
        <ele>-5.15</ele>
        <time>2020-05-25T14:24:53Z</time>
      </trkpt>
      <trkpt lat="47.23173" lon="-2.1812">
        <ele>-3.23</ele>
        <time>2020-05-25T14:25:09Z</time>
      </trkpt>
      <trkpt lat="47.2317" lon="-2.18121">
        <ele>-3.23</ele>
        <time>2020-05-25T14:25:30Z</time>
      </trkpt>
      <trkpt lat="47.23141" lon="-2.18126">
        <ele>-2.27</ele>
        <time>2020-05-25T14:25:43Z</time>
      </trkpt>
      <trkpt lat="47.23122" lon="-2.18109">
        <ele>-2.75</ele>
        <time>2020-05-25T14:26:01Z</time>
      </trkpt>
      <trkpt lat="47.23101" lon="-2.1809">
        <ele>-2.75</ele>
        <time>2020-05-25T14:26:15Z</time>
      </trkpt>
      <trkpt lat="47.23026" lon="-2.18038">
        <ele>-3.23</ele>
        <time>2020-05-25T14:26:37Z</time>
      </trkpt>
      <trkpt lat="47.22995" lon="-2.1802">
        <ele>-3.23</ele>
        <time>2020-05-25T14:26:53Z</time>
      </trkpt>
      <trkpt lat="47.22982" lon="-2.18017">
        <ele>-3.23</ele>
        <time>2020-05-25T14:27:10Z</time>
      </trkpt>
      <trkpt lat="47.2295" lon="-2.18003">
        <ele>-3.71</ele>
        <time>2020-05-25T14:27:25Z</time>
      </trkpt>
      <trkpt lat="47.22886" lon="-2.17963">
        <ele>-2.75</ele>
        <time>2020-05-25T14:27:43Z</time>
      </trkpt>
      <trkpt lat="47.22866" lon="-2.1795">
        <ele>-2.75</ele>
        <time>2020-05-25T14:28:00Z</time>
      </trkpt>
      <trkpt lat="47.22847" lon="-2.17942">
        <ele>-2.27</ele>
        <time>2020-05-25T14:28:14Z</time>
      </trkpt>
      <trkpt lat="47.22833" lon="-2.17931">
        <ele>-3.71</ele>
        <time>2020-05-25T14:28:33Z</time>
      </trkpt>
      <trkpt lat="47.22812" lon="-2.17916">
        <ele>-3.71</ele>
        <time>2020-05-25T14:28:54Z</time>
      </trkpt>
      <trkpt lat="47.22804" lon="-2.17908">
        <ele>-3.71</ele>
        <time>2020-05-25T14:28:57Z</time>
      </trkpt>
      <trkpt lat="47.22723" lon="-2.1784">
        <ele>-4.19</ele>
        <time>2020-05-25T14:29:14Z</time>
      </trkpt>
      <trkpt lat="47.22631" lon="-2.17783">
        <ele>-4.19</ele>
        <time>2020-05-25T14:29:27Z</time>
      </trkpt>
      <trkpt lat="47.22514" lon="-2.17703">
        <ele>-3.71</ele>
        <time>2020-05-25T14:29:41Z</time>
      </trkpt>
      <trkpt lat="47.22424" lon="-2.17658">
        <ele>-3.23</ele>
        <time>2020-05-25T14:29:53Z</time>
      </trkpt>
      <trkpt lat="47.22366" lon="-2.17581">
        <ele>-2.75</ele>
        <time>2020-05-25T14:30:02Z</time>
      </trkpt>
      <trkpt lat="47.22272" lon="-2.175">
        <ele>-2.27</ele>
        <time>2020-05-25T14:30:12Z</time>
      </trkpt>
      <trkpt lat="47.22194" lon="-2.17438">
        <ele>-2.27</ele>
        <time>2020-05-25T14:30:19Z</time>
      </trkpt>
      <trkpt lat="47.22073" lon="-2.17326">
        <ele>-1.79</ele>
        <time>2020-05-25T14:30:29Z</time>
      </trkpt>
      <trkpt lat="47.22001" lon="-2.17265">
        <ele>-1.79</ele>
        <time>2020-05-25T14:30:35Z</time>
      </trkpt>
      <trkpt lat="47.21995" lon="-2.17201">
        <ele>-1.79</ele>
        <time>2020-05-25T14:30:40Z</time>
      </trkpt>
      <trkpt lat="47.2202" lon="-2.17212">
        <ele>-1.79</ele>
        <time>2020-05-25T14:30:44Z</time>
      </trkpt>
      <trkpt lat="47.22035" lon="-2.17233">
        <ele>-1.3</ele>
        <time>2020-05-25T14:30:47Z</time>
      </trkpt>
      <trkpt lat="47.22099" lon="-2.17352">
        <ele>-2.27</ele>
        <time>2020-05-25T14:31:02Z</time>
      </trkpt>
      <trkpt lat="47.22142" lon="-2.17445">
        <ele>-2.27</ele>
        <time>2020-05-25T14:31:11Z</time>
      </trkpt>
      <trkpt lat="47.22169" lon="-2.17449">
        <ele>-2.75</ele>
        <time>2020-05-25T14:31:16Z</time>
      </trkpt>
      <trkpt lat="47.22173" lon="-2.17436">
        <ele>-2.75</ele>
        <time>2020-05-25T14:31:18Z</time>
      </trkpt>
      <trkpt lat="47.22182" lon="-2.17398">
        <ele>-2.27</ele>
        <time>2020-05-25T14:31:23Z</time>
      </trkpt>
      <trkpt lat="47.22205" lon="-2.1739">
        <ele>-1.79</ele>
        <time>2020-05-25T14:31:28Z</time>
      </trkpt>
      <trkpt lat="47.22212" lon="-2.17405">
        <ele>-1.79</ele>
        <time>2020-05-25T14:31:30Z</time>
      </trkpt>
      <trkpt lat="47.22225" lon="-2.17433">
        <ele>-1.79</ele>
        <time>2020-05-25T14:31:33Z</time>
      </trkpt>
      <trkpt lat="47.22234" lon="-2.17453">
        <ele>-1.79</ele>
        <time>2020-05-25T14:31:35Z</time>
      </trkpt>
      <trkpt lat="47.22298" lon="-2.17544">
        <ele>-2.27</ele>
        <time>2020-05-25T14:31:44Z</time>
      </trkpt>
      <trkpt lat="47.22328" lon="-2.17536">
        <ele>-2.27</ele>
        <time>2020-05-25T14:31:49Z</time>
      </trkpt>
      <trkpt lat="47.22309" lon="-2.17492">
        <ele>-1.79</ele>
        <time>2020-05-25T14:31:54Z</time>
      </trkpt>
      <trkpt lat="47.22301" lon="-2.17486">
        <ele>-1.79</ele>
        <time>2020-05-25T14:31:55Z</time>
      </trkpt>
      <trkpt lat="47.22199" lon="-2.17413">
        <ele>-1.79</ele>
        <time>2020-05-25T14:32:09Z</time>
      </trkpt>
      <trkpt lat="47.22133" lon="-2.17376">
        <ele>-1.79</ele>
        <time>2020-05-25T14:32:18Z</time>
      </trkpt>
      <trkpt lat="47.22033" lon="-2.17292">
        <ele>-2.27</ele>
        <time>2020-05-25T14:32:30Z</time>
      </trkpt>
      <trkpt lat="47.21944" lon="-2.17245">
        <ele>-2.27</ele>
        <time>2020-05-25T14:32:40Z</time>
      </trkpt>
      <trkpt lat="47.21894" lon="-2.17213">
        <ele>-2.27</ele>
        <time>2020-05-25T14:32:46Z</time>
      </trkpt>
      <trkpt lat="47.21873" lon="-2.17167">
        <ele>-2.27</ele>
        <time>2020-05-25T14:32:51Z</time>
      </trkpt>
      <trkpt lat="47.21851" lon="-2.17116">
        <ele>-1.3</ele>
        <time>2020-05-25T14:32:57Z</time>
      </trkpt>
      <trkpt lat="47.21751" lon="-2.17016">
        <ele>-1.3</ele>
        <time>2020-05-25T14:33:13Z</time>
      </trkpt>
      <trkpt lat="47.21641" lon="-2.16929">
        <ele>-1.3</ele>
        <time>2020-05-25T14:33:25Z</time>
      </trkpt>
      <trkpt lat="47.21621" lon="-2.16914">
        <ele>-1.3</ele>
        <time>2020-05-25T14:33:27Z</time>
      </trkpt>
      <trkpt lat="47.21505" lon="-2.16844">
        <ele>-1.79</ele>
        <time>2020-05-25T14:33:39Z</time>
      </trkpt>
      <trkpt lat="47.21442" lon="-2.16781">
        <ele>-1.79</ele>
        <time>2020-05-25T14:33:46Z</time>
      </trkpt>
      <trkpt lat="47.21439" lon="-2.16732">
        <ele>-1.79</ele>
        <time>2020-05-25T14:33:51Z</time>
      </trkpt>
      <trkpt lat="47.21464" lon="-2.16748">
        <ele>-2.27</ele>
        <time>2020-05-25T14:33:55Z</time>
      </trkpt>
      <trkpt lat="47.21556" lon="-2.16852">
        <ele>-2.27</ele>
        <time>2020-05-25T14:34:09Z</time>
      </trkpt>
      <trkpt lat="47.21637" lon="-2.16946">
        <ele>-2.27</ele>
        <time>2020-05-25T14:34:21Z</time>
      </trkpt>
      <trkpt lat="47.21663" lon="-2.16941">
        <ele>-2.27</ele>
        <time>2020-05-25T14:34:26Z</time>
      </trkpt>
      <trkpt lat="47.21663" lon="-2.16907">
        <ele>-1.79</ele>
        <time>2020-05-25T14:34:31Z</time>
      </trkpt>
      <trkpt lat="47.21675" lon="-2.16901">
        <ele>-1.79</ele>
        <time>2020-05-25T14:34:41Z</time>
      </trkpt>
      <trkpt lat="47.21676" lon="-2.16901">
        <ele>-1.79</ele>
        <time>2020-05-25T14:34:48Z</time>
      </trkpt>
      <trkpt lat="47.21683" lon="-2.16921">
        <ele>-2.27</ele>
        <time>2020-05-25T14:35:01Z</time>
      </trkpt>
      <trkpt lat="47.21682" lon="-2.16924">
        <ele>-1.79</ele>
        <time>2020-05-25T14:35:20Z</time>
      </trkpt>
      <trkpt lat="47.21683" lon="-2.16924">
        <ele>-1.79</ele>
        <time>2020-05-25T14:35:59Z</time>
      </trkpt>
      <trkpt lat="47.21683" lon="-2.16924">
        <ele>-1.79</ele>
        <time>2020-05-25T14:36:18Z</time>
      </trkpt>
      <trkpt lat="47.21686" lon="-2.16923">
        <ele>-1.79</ele>
        <time>2020-05-25T14:36:31Z</time>
      </trkpt>
      <trkpt lat="47.2169" lon="-2.16923">
        <ele>-1.79</ele>
        <time>2020-05-25T14:36:45Z</time>
      </trkpt>
      <trkpt lat="47.21691" lon="-2.16923">
        <ele>-1.79</ele>
        <time>2020-05-25T14:36:48Z</time>
      </trkpt>
      <trkpt lat="47.21715" lon="-2.16959">
        <ele>-1.79</ele>
        <time>2020-05-25T14:37:03Z</time>
      </trkpt>
      <trkpt lat="47.21718" lon="-2.16962">
        <ele>-1.79</ele>
        <time>2020-05-25T14:37:04Z</time>
      </trkpt>
      <trkpt lat="47.21766" lon="-2.17019">
        <ele>-2.27</ele>
        <time>2020-05-25T14:37:13Z</time>
      </trkpt>
      <trkpt lat="47.21862" lon="-2.17122">
        <ele>-2.27</ele>
        <time>2020-05-25T14:37:24Z</time>
      </trkpt>
      <trkpt lat="47.2189" lon="-2.17163">
        <ele>-2.27</ele>
        <time>2020-05-25T14:37:28Z</time>
      </trkpt>
      <trkpt lat="47.21973" lon="-2.17271">
        <ele>-2.27</ele>
        <time>2020-05-25T14:37:41Z</time>
      </trkpt>
      <trkpt lat="47.22029" lon="-2.17371">
        <ele>-2.27</ele>
        <time>2020-05-25T14:37:52Z</time>
      </trkpt>
      <trkpt lat="47.22051" lon="-2.1737">
        <ele>-2.75</ele>
        <time>2020-05-25T14:37:57Z</time>
      </trkpt>
      <trkpt lat="47.22045" lon="-2.17335">
        <ele>-3.23</ele>
        <time>2020-05-25T14:38:02Z</time>
      </trkpt>
      <trkpt lat="47.22027" lon="-2.17263">
        <ele>-3.23</ele>
        <time>2020-05-25T14:38:16Z</time>
      </trkpt>
      <trkpt lat="47.2204" lon="-2.17262">
        <ele>-3.71</ele>
        <time>2020-05-25T14:38:23Z</time>
      </trkpt>
      <trkpt lat="47.22056" lon="-2.17284">
        <ele>-2.75</ele>
        <time>2020-05-25T14:38:43Z</time>
      </trkpt>
      <trkpt lat="47.22068" lon="-2.17304">
        <ele>-3.23</ele>
        <time>2020-05-25T14:38:58Z</time>
      </trkpt>
      <trkpt lat="47.22109" lon="-2.17351">
        <ele>-3.23</ele>
        <time>2020-05-25T14:39:12Z</time>
      </trkpt>
      <trkpt lat="47.22168" lon="-2.17412">
        <ele>-3.23</ele>
        <time>2020-05-25T14:39:23Z</time>
      </trkpt>
      <trkpt lat="47.22184" lon="-2.17428">
        <ele>-3.23</ele>
        <time>2020-05-25T14:39:25Z</time>
      </trkpt>
      <trkpt lat="47.22281" lon="-2.17511">
        <ele>-2.75</ele>
        <time>2020-05-25T14:39:37Z</time>
      </trkpt>
      <trkpt lat="47.22346" lon="-2.17556">
        <ele>-2.75</ele>
        <time>2020-05-25T14:39:46Z</time>
      </trkpt>
      <trkpt lat="47.22441" lon="-2.1762">
        <ele>-2.75</ele>
        <time>2020-05-25T14:39:59Z</time>
      </trkpt>
      <trkpt lat="47.22483" lon="-2.17656">
        <ele>-2.75</ele>
        <time>2020-05-25T14:40:05Z</time>
      </trkpt>
      <trkpt lat="47.22587" lon="-2.17726">
        <ele>-3.23</ele>
        <time>2020-05-25T14:40:16Z</time>
      </trkpt>
      <trkpt lat="47.22616" lon="-2.17748">
        <ele>-3.23</ele>
        <time>2020-05-25T14:40:19Z</time>
      </trkpt>
      <trkpt lat="47.2271" lon="-2.17833">
        <ele>-3.23</ele>
        <time>2020-05-25T14:40:31Z</time>
      </trkpt>
      <trkpt lat="47.22717" lon="-2.17839">
        <ele>-3.23</ele>
        <time>2020-05-25T14:40:32Z</time>
      </trkpt>
      <trkpt lat="47.22746" lon="-2.17858">
        <ele>-3.23</ele>
        <time>2020-05-25T14:40:36Z</time>
      </trkpt>
      <trkpt lat="47.22846" lon="-2.17942">
        <ele>-3.23</ele>
        <time>2020-05-25T14:40:51Z</time>
      </trkpt>
      <trkpt lat="47.22947" lon="-2.18023">
        <ele>-2.75</ele>
        <time>2020-05-25T14:41:05Z</time>
      </trkpt>
      <trkpt lat="47.22958" lon="-2.18028">
        <ele>-2.75</ele>
        <time>2020-05-25T14:41:07Z</time>
      </trkpt>
      <trkpt lat="47.22959" lon="-2.18052">
        <ele>-2.75</ele>
        <time>2020-05-25T14:41:12Z</time>
      </trkpt>
      <trkpt lat="47.22954" lon="-2.1805">
        <ele>-2.75</ele>
        <time>2020-05-25T14:41:13Z</time>
      </trkpt>
      <trkpt lat="47.2292" lon="-2.18013">
        <ele>-2.75</ele>
        <time>2020-05-25T14:41:26Z</time>
      </trkpt>
      <trkpt lat="47.22902" lon="-2.17992">
        <ele>-2.75</ele>
        <time>2020-05-25T14:41:41Z</time>
      </trkpt>
      <trkpt lat="47.22878" lon="-2.17971">
        <ele>-2.75</ele>
        <time>2020-05-25T14:41:58Z</time>
      </trkpt>
      <trkpt lat="47.22834" lon="-2.17936">
        <ele>-2.75</ele>
        <time>2020-05-25T14:42:18Z</time>
      </trkpt>
      <trkpt lat="47.2278" lon="-2.17887">
        <ele>-2.75</ele>
        <time>2020-05-25T14:42:30Z</time>
      </trkpt>
      <trkpt lat="47.22692" lon="-2.17808">
        <ele>-3.23</ele>
        <time>2020-05-25T14:42:48Z</time>
      </trkpt>
      <trkpt lat="47.22607" lon="-2.17737">
        <ele>-3.23</ele>
        <time>2020-05-25T14:43:04Z</time>
      </trkpt>
      <trkpt lat="47.22495" lon="-2.17651">
        <ele>-2.75</ele>
        <time>2020-05-25T14:43:16Z</time>
      </trkpt>
      <trkpt lat="47.22395" lon="-2.17573">
        <ele>-2.27</ele>
        <time>2020-05-25T14:43:26Z</time>
      </trkpt>
      <trkpt lat="47.22317" lon="-2.17509">
        <ele>-1.79</ele>
        <time>2020-05-25T14:43:34Z</time>
      </trkpt>
      <trkpt lat="47.22189" lon="-2.17432">
        <ele>-1.79</ele>
        <time>2020-05-25T14:43:47Z</time>
      </trkpt>
      <trkpt lat="47.22059" lon="-2.17319">
        <ele>-1.79</ele>
        <time>2020-05-25T14:43:59Z</time>
      </trkpt>
      <trkpt lat="47.21917" lon="-2.17194">
        <ele>-1.79</ele>
        <time>2020-05-25T14:44:12Z</time>
      </trkpt>
      <trkpt lat="47.21856" lon="-2.17137">
        <ele>-1.79</ele>
        <time>2020-05-25T14:44:18Z</time>
      </trkpt>
      <trkpt lat="47.2175" lon="-2.17051">
        <ele>-1.79</ele>
        <time>2020-05-25T14:44:28Z</time>
      </trkpt>
      <trkpt lat="47.21697" lon="-2.17013">
        <ele>-1.79</ele>
        <time>2020-05-25T14:44:33Z</time>
      </trkpt>
      <trkpt lat="47.21661" lon="-2.16971">
        <ele>-1.79</ele>
        <time>2020-05-25T14:44:37Z</time>
      </trkpt>
      <trkpt lat="47.21622" lon="-2.16928">
        <ele>-1.79</ele>
        <time>2020-05-25T14:44:41Z</time>
      </trkpt>
      <trkpt lat="47.21514" lon="-2.16835">
        <ele>-1.3</ele>
        <time>2020-05-25T14:44:52Z</time>
      </trkpt>
      <trkpt lat="47.21485" lon="-2.1681">
        <ele>-1.3</ele>
        <time>2020-05-25T14:44:55Z</time>
      </trkpt>
      <trkpt lat="47.21447" lon="-2.16759">
        <ele>-1.79</ele>
        <time>2020-05-25T14:45:00Z</time>
      </trkpt>
      <trkpt lat="47.21405" lon="-2.16704">
        <ele>-1.79</ele>
        <time>2020-05-25T14:45:06Z</time>
      </trkpt>
      <trkpt lat="47.2141" lon="-2.16663">
        <ele>-1.79</ele>
        <time>2020-05-25T14:45:11Z</time>
      </trkpt>
      <trkpt lat="47.21415" lon="-2.16667">
        <ele>-1.79</ele>
        <time>2020-05-25T14:45:12Z</time>
      </trkpt>
      <trkpt lat="47.21498" lon="-2.16762">
        <ele>-1.79</ele>
        <time>2020-05-25T14:45:27Z</time>
      </trkpt>
      <trkpt lat="47.2159" lon="-2.16872">
        <ele>-2.27</ele>
        <time>2020-05-25T14:45:42Z</time>
      </trkpt>
      <trkpt lat="47.21581" lon="-2.16903">
        <ele>-2.27</ele>
        <time>2020-05-25T14:45:47Z</time>
      </trkpt>
      <trkpt lat="47.21575" lon="-2.16899">
        <ele>-2.27</ele>
        <time>2020-05-25T14:45:48Z</time>
      </trkpt>
      <trkpt lat="47.21506" lon="-2.16843">
        <ele>-1.3</ele>
        <time>2020-05-25T14:46:02Z</time>
      </trkpt>
      <trkpt lat="47.21444" lon="-2.16798">
        <ele>-1.79</ele>
        <time>2020-05-25T14:46:11Z</time>
      </trkpt>
      <trkpt lat="47.21443" lon="-2.1677">
        <ele>-1.79</ele>
        <time>2020-05-25T14:46:16Z</time>
      </trkpt>
      <trkpt lat="47.21455" lon="-2.16785">
        <ele>-2.27</ele>
        <time>2020-05-25T14:46:20Z</time>
      </trkpt>
      <trkpt lat="47.21494" lon="-2.16827">
        <ele>-2.27</ele>
        <time>2020-05-25T14:46:31Z</time>
      </trkpt>
      <trkpt lat="47.21522" lon="-2.16848">
        <ele>-2.27</ele>
        <time>2020-05-25T14:46:37Z</time>
      </trkpt>
      <trkpt lat="47.21601" lon="-2.1692">
        <ele>-1.79</ele>
        <time>2020-05-25T14:46:55Z</time>
      </trkpt>
      <trkpt lat="47.2163" lon="-2.16948">
        <ele>-2.27</ele>
        <time>2020-05-25T14:47:02Z</time>
      </trkpt>
      <trkpt lat="47.21645" lon="-2.16938">
        <ele>-1.79</ele>
        <time>2020-05-25T14:47:07Z</time>
      </trkpt>
      <trkpt lat="47.21645" lon="-2.16922">
        <ele>-1.3</ele>
        <time>2020-05-25T14:47:10Z</time>
      </trkpt>
      <trkpt lat="47.21645" lon="-2.16903">
        <ele>-0.82</ele>
        <time>2020-05-25T14:47:14Z</time>
      </trkpt>
      <trkpt lat="47.21654" lon="-2.169">
        <ele>-0.82</ele>
        <time>2020-05-25T14:47:24Z</time>
      </trkpt>
      <trkpt lat="47.21665" lon="-2.16913">
        <ele>-0.82</ele>
        <time>2020-05-25T14:47:36Z</time>
      </trkpt>
      <trkpt lat="47.21679" lon="-2.16935">
        <ele>-1.79</ele>
        <time>2020-05-25T14:47:50Z</time>
      </trkpt>
      <trkpt lat="47.21681" lon="-2.16939">
        <ele>-1.79</ele>
        <time>2020-05-25T14:47:51Z</time>
      </trkpt>
      <trkpt lat="47.21736" lon="-2.17">
        <ele>-1.79</ele>
        <time>2020-05-25T14:48:03Z</time>
      </trkpt>
      <trkpt lat="47.21763" lon="-2.17028">
        <ele>-2.27</ele>
        <time>2020-05-25T14:48:07Z</time>
      </trkpt>
      <trkpt lat="47.21838" lon="-2.17105">
        <ele>-2.27</ele>
        <time>2020-05-25T14:48:18Z</time>
      </trkpt>
      <trkpt lat="47.21866" lon="-2.17129">
        <ele>-1.79</ele>
        <time>2020-05-25T14:48:23Z</time>
      </trkpt>
      <trkpt lat="47.21886" lon="-2.17167">
        <ele>-1.79</ele>
        <time>2020-05-25T14:48:28Z</time>
      </trkpt>
      <trkpt lat="47.21912" lon="-2.17194">
        <ele>-2.27</ele>
        <time>2020-05-25T14:48:32Z</time>
      </trkpt>
      <trkpt lat="47.22018" lon="-2.17295">
        <ele>-2.75</ele>
        <time>2020-05-25T14:48:47Z</time>
      </trkpt>
      <trkpt lat="47.22115" lon="-2.1739">
        <ele>-2.75</ele>
        <time>2020-05-25T14:49:02Z</time>
      </trkpt>
      <trkpt lat="47.22219" lon="-2.17471">
        <ele>-2.75</ele>
        <time>2020-05-25T14:49:15Z</time>
      </trkpt>
      <trkpt lat="47.22318" lon="-2.17557">
        <ele>-2.27</ele>
        <time>2020-05-25T14:49:28Z</time>
      </trkpt>
      <trkpt lat="47.22326" lon="-2.17565">
        <ele>-2.27</ele>
        <time>2020-05-25T14:49:29Z</time>
      </trkpt>
      <trkpt lat="47.22361" lon="-2.17592">
        <ele>-2.75</ele>
        <time>2020-05-25T14:49:33Z</time>
      </trkpt>
      <trkpt lat="47.22387" lon="-2.17589">
        <ele>-2.27</ele>
        <time>2020-05-25T14:49:37Z</time>
      </trkpt>
      <trkpt lat="47.22364" lon="-2.17564">
        <ele>-2.27</ele>
        <time>2020-05-25T14:49:42Z</time>
      </trkpt>
      <trkpt lat="47.22358" lon="-2.1756">
        <ele>-2.27</ele>
        <time>2020-05-25T14:49:43Z</time>
      </trkpt>
      <trkpt lat="47.22248" lon="-2.17476">
        <ele>-1.3</ele>
        <time>2020-05-25T14:50:00Z</time>
      </trkpt>
      <trkpt lat="47.2215" lon="-2.17399">
        <ele>-0.34</ele>
        <time>2020-05-25T14:50:15Z</time>
      </trkpt>
      <trkpt lat="47.22067" lon="-2.17319">
        <ele>-0.34</ele>
        <time>2020-05-25T14:50:27Z</time>
      </trkpt>
      <trkpt lat="47.21974" lon="-2.17236">
        <ele>-0.34</ele>
        <time>2020-05-25T14:50:42Z</time>
      </trkpt>
      <trkpt lat="47.2195" lon="-2.17209">
        <ele>-0.34</ele>
        <time>2020-05-25T14:50:47Z</time>
      </trkpt>
      <trkpt lat="47.21939" lon="-2.1723">
        <ele>-0.82</ele>
        <time>2020-05-25T14:50:52Z</time>
      </trkpt>
      <trkpt lat="47.21986" lon="-2.17295">
        <ele>-1.3</ele>
        <time>2020-05-25T14:51:04Z</time>
      </trkpt>
      <trkpt lat="47.22049" lon="-2.17365">
        <ele>-2.27</ele>
        <time>2020-05-25T14:51:17Z</time>
      </trkpt>
      <trkpt lat="47.22069" lon="-2.17347">
        <ele>-2.75</ele>
        <time>2020-05-25T14:51:22Z</time>
      </trkpt>
      <trkpt lat="47.22076" lon="-2.17302">
        <ele>-2.27</ele>
        <time>2020-05-25T14:51:27Z</time>
      </trkpt>
      <trkpt lat="47.22094" lon="-2.17297">
        <ele>-1.79</ele>
        <time>2020-05-25T14:51:32Z</time>
      </trkpt>
      <trkpt lat="47.22111" lon="-2.17323">
        <ele>-1.79</ele>
        <time>2020-05-25T14:51:36Z</time>
      </trkpt>
      <trkpt lat="47.22204" lon="-2.17422">
        <ele>-1.79</ele>
        <time>2020-05-25T14:51:52Z</time>
      </trkpt>
      <trkpt lat="47.22248" lon="-2.17456">
        <ele>-1.79</ele>
        <time>2020-05-25T14:51:58Z</time>
      </trkpt>
      <trkpt lat="47.22352" lon="-2.17554">
        <ele>-2.75</ele>
        <time>2020-05-25T14:52:14Z</time>
      </trkpt>
      <trkpt lat="47.22446" lon="-2.17639">
        <ele>-3.23</ele>
        <time>2020-05-25T14:52:29Z</time>
      </trkpt>
      <trkpt lat="47.22547" lon="-2.17715">
        <ele>-3.71</ele>
        <time>2020-05-25T14:52:42Z</time>
      </trkpt>
      <trkpt lat="47.22624" lon="-2.17775">
        <ele>-3.71</ele>
        <time>2020-05-25T14:52:53Z</time>
      </trkpt>
      <trkpt lat="47.22635" lon="-2.17762">
        <ele>-3.23</ele>
        <time>2020-05-25T14:52:58Z</time>
      </trkpt>
      <trkpt lat="47.22619" lon="-2.17732">
        <ele>-2.75</ele>
        <time>2020-05-25T14:53:04Z</time>
      </trkpt>
      <trkpt lat="47.22569" lon="-2.17676">
        <ele>-2.75</ele>
        <time>2020-05-25T14:53:23Z</time>
      </trkpt>
      <trkpt lat="47.22522" lon="-2.17639">
        <ele>-2.27</ele>
        <time>2020-05-25T14:53:43Z</time>
      </trkpt>
      <trkpt lat="47.22521" lon="-2.17653">
        <ele>-2.27</ele>
        <time>2020-05-25T14:53:49Z</time>
      </trkpt>
      <trkpt lat="47.22524" lon="-2.17659">
        <ele>-2.27</ele>
        <time>2020-05-25T14:53:51Z</time>
      </trkpt>
      <trkpt lat="47.22549" lon="-2.17685">
        <ele>-2.27</ele>
        <time>2020-05-25T14:54:03Z</time>
      </trkpt>
      <trkpt lat="47.22537" lon="-2.17696">
        <ele>-2.27</ele>
        <time>2020-05-25T14:54:12Z</time>
      </trkpt>
      <trkpt lat="47.22501" lon="-2.17665">
        <ele>-2.27</ele>
        <time>2020-05-25T14:54:31Z</time>
      </trkpt>
      <trkpt lat="47.22467" lon="-2.17629">
        <ele>-1.79</ele>
        <time>2020-05-25T14:54:56Z</time>
      </trkpt>
      <trkpt lat="47.22451" lon="-2.17617">
        <ele>-1.3</ele>
        <time>2020-05-25T14:55:22Z</time>
      </trkpt>
      <trkpt lat="47.22422" lon="-2.17593">
        <ele>-1.79</ele>
        <time>2020-05-25T14:55:48Z</time>
      </trkpt>
      <trkpt lat="47.22382" lon="-2.17569">
        <ele>-1.3</ele>
        <time>2020-05-25T14:56:10Z</time>
      </trkpt>
      <trkpt lat="47.22349" lon="-2.17553">
        <ele>-1.3</ele>
        <time>2020-05-25T14:56:18Z</time>
      </trkpt>
      <trkpt lat="47.22321" lon="-2.1753">
        <ele>-1.3</ele>
        <time>2020-05-25T14:56:25Z</time>
      </trkpt>
      <trkpt lat="47.22262" lon="-2.17479">
        <ele>-1.79</ele>
        <time>2020-05-25T14:56:37Z</time>
      </trkpt>
      <trkpt lat="47.22166" lon="-2.17387">
        <ele>-1.79</ele>
        <time>2020-05-25T14:56:50Z</time>
      </trkpt>
      <trkpt lat="47.22158" lon="-2.17379">
        <ele>-1.79</ele>
        <time>2020-05-25T14:56:51Z</time>
      </trkpt>
      <trkpt lat="47.22072" lon="-2.17319">
        <ele>-1.79</ele>
        <time>2020-05-25T14:57:02Z</time>
      </trkpt>
      <trkpt lat="47.21979" lon="-2.17226">
        <ele>-1.79</ele>
        <time>2020-05-25T14:57:12Z</time>
      </trkpt>
      <trkpt lat="47.21948" lon="-2.1719">
        <ele>-1.3</ele>
        <time>2020-05-25T14:57:15Z</time>
      </trkpt>
      <trkpt lat="47.21826" lon="-2.17085">
        <ele>-1.3</ele>
        <time>2020-05-25T14:57:28Z</time>
      </trkpt>
      <trkpt lat="47.21675" lon="-2.16951">
        <ele>-1.3</ele>
        <time>2020-05-25T14:57:47Z</time>
      </trkpt>
      <trkpt lat="47.21582" lon="-2.16883">
        <ele>-1.3</ele>
        <time>2020-05-25T14:57:59Z</time>
      </trkpt>
      <trkpt lat="47.21522" lon="-2.16829">
        <ele>-1.3</ele>
        <time>2020-05-25T14:58:07Z</time>
      </trkpt>
      <trkpt lat="47.21522" lon="-2.16804">
        <ele>-1.3</ele>
        <time>2020-05-25T14:58:11Z</time>
      </trkpt>
      <trkpt lat="47.21525" lon="-2.16808">
        <ele>-0.82</ele>
        <time>2020-05-25T14:58:12Z</time>
      </trkpt>
      <trkpt lat="47.21573" lon="-2.16864">
        <ele>-1.3</ele>
        <time>2020-05-25T14:58:28Z</time>
      </trkpt>
      <trkpt lat="47.21608" lon="-2.169">
        <ele>-1.3</ele>
        <time>2020-05-25T14:58:44Z</time>
      </trkpt>
      <trkpt lat="47.21653" lon="-2.1694">
        <ele>-1.79</ele>
        <time>2020-05-25T14:59:00Z</time>
      </trkpt>
      <trkpt lat="47.21751" lon="-2.17013">
        <ele>-1.3</ele>
        <time>2020-05-25T14:59:16Z</time>
      </trkpt>
      <trkpt lat="47.21863" lon="-2.17119">
        <ele>-1.3</ele>
        <time>2020-05-25T14:59:35Z</time>
      </trkpt>
      <trkpt lat="47.21927" lon="-2.1716">
        <ele>-1.79</ele>
        <time>2020-05-25T14:59:43Z</time>
      </trkpt>
      <trkpt lat="47.21946" lon="-2.17166">
        <ele>-1.79</ele>
        <time>2020-05-25T14:59:45Z</time>
      </trkpt>
      <trkpt lat="47.2198" lon="-2.17188">
        <ele>-1.79</ele>
        <time>2020-05-25T14:59:49Z</time>
      </trkpt>
      <trkpt lat="47.22072" lon="-2.17296">
        <ele>-1.79</ele>
        <time>2020-05-25T15:00:01Z</time>
      </trkpt>
      <trkpt lat="47.22122" lon="-2.17333">
        <ele>-1.79</ele>
        <time>2020-05-25T15:00:07Z</time>
      </trkpt>
      <trkpt lat="47.22145" lon="-2.17349">
        <ele>-1.3</ele>
        <time>2020-05-25T15:00:10Z</time>
      </trkpt>
      <trkpt lat="47.22169" lon="-2.17382">
        <ele>-1.3</ele>
        <time>2020-05-25T15:00:14Z</time>
      </trkpt>
      <trkpt lat="47.22229" lon="-2.17447">
        <ele>-1.3</ele>
        <time>2020-05-25T15:00:23Z</time>
      </trkpt>
      <trkpt lat="47.2231" lon="-2.17502">
        <ele>-0.82</ele>
        <time>2020-05-25T15:00:34Z</time>
      </trkpt>
      <trkpt lat="47.22375" lon="-2.17553">
        <ele>-0.82</ele>
        <time>2020-05-25T15:00:43Z</time>
      </trkpt>
      <trkpt lat="47.22392" lon="-2.17546">
        <ele>-0.34</ele>
        <time>2020-05-25T15:00:47Z</time>
      </trkpt>
      <trkpt lat="47.22388" lon="-2.17542">
        <ele>-0.82</ele>
        <time>2020-05-25T15:00:48Z</time>
      </trkpt>
      <trkpt lat="47.22316" lon="-2.17495">
        <ele>-0.82</ele>
        <time>2020-05-25T15:01:04Z</time>
      </trkpt>
      <trkpt lat="47.22278" lon="-2.17466">
        <ele>-0.82</ele>
        <time>2020-05-25T15:01:17Z</time>
      </trkpt>
      <trkpt lat="47.22216" lon="-2.1741">
        <ele>-1.3</ele>
        <time>2020-05-25T15:01:40Z</time>
      </trkpt>
      <trkpt lat="47.22213" lon="-2.17407">
        <ele>-1.3</ele>
        <time>2020-05-25T15:01:41Z</time>
      </trkpt>
      <trkpt lat="47.22215" lon="-2.17421">
        <ele>-1.3</ele>
        <time>2020-05-25T15:01:47Z</time>
      </trkpt>
      <trkpt lat="47.22228" lon="-2.17434">
        <ele>-1.3</ele>
        <time>2020-05-25T15:01:52Z</time>
      </trkpt>
      <trkpt lat="47.22235" lon="-2.17441">
        <ele>-1.3</ele>
        <time>2020-05-25T15:01:54Z</time>
      </trkpt>
      <trkpt lat="47.22311" lon="-2.175">
        <ele>-1.3</ele>
        <time>2020-05-25T15:02:09Z</time>
      </trkpt>
      <trkpt lat="47.22367" lon="-2.17537">
        <ele>-1.3</ele>
        <time>2020-05-25T15:02:17Z</time>
      </trkpt>
      <trkpt lat="47.22446" lon="-2.17606">
        <ele>-1.3</ele>
        <time>2020-05-25T15:02:32Z</time>
      </trkpt>
      <trkpt lat="47.22543" lon="-2.17683">
        <ele>-1.79</ele>
        <time>2020-05-25T15:02:51Z</time>
      </trkpt>
      <trkpt lat="47.2265" lon="-2.17767">
        <ele>-1.79</ele>
        <time>2020-05-25T15:03:09Z</time>
      </trkpt>
      <trkpt lat="47.2267" lon="-2.17779">
        <ele>-1.79</ele>
        <time>2020-05-25T15:03:12Z</time>
      </trkpt>
      <trkpt lat="47.22749" lon="-2.17827">
        <ele>-2.27</ele>
        <time>2020-05-25T15:03:25Z</time>
      </trkpt>
      <trkpt lat="47.22815" lon="-2.17897">
        <ele>-2.27</ele>
        <time>2020-05-25T15:03:38Z</time>
      </trkpt>
      <trkpt lat="47.22882" lon="-2.17951">
        <ele>-2.27</ele>
        <time>2020-05-25T15:03:53Z</time>
      </trkpt>
      <trkpt lat="47.22898" lon="-2.17965">
        <ele>-2.75</ele>
        <time>2020-05-25T15:03:57Z</time>
      </trkpt>
      <trkpt lat="47.22912" lon="-2.17971">
        <ele>-2.75</ele>
        <time>2020-05-25T15:04:00Z</time>
      </trkpt>
      <trkpt lat="47.22969" lon="-2.1801">
        <ele>-2.27</ele>
        <time>2020-05-25T15:04:13Z</time>
      </trkpt>
      <trkpt lat="47.23017" lon="-2.18056">
        <ele>-2.27</ele>
        <time>2020-05-25T15:04:25Z</time>
      </trkpt>
      <trkpt lat="47.23043" lon="-2.18073">
        <ele>-2.27</ele>
        <time>2020-05-25T15:04:29Z</time>
      </trkpt>
      <trkpt lat="47.23072" lon="-2.18056">
        <ele>-2.75</ele>
        <time>2020-05-25T15:04:35Z</time>
      </trkpt>
      <trkpt lat="47.23047" lon="-2.1804">
        <ele>-2.27</ele>
        <time>2020-05-25T15:04:41Z</time>
      </trkpt>
      <trkpt lat="47.23042" lon="-2.18039">
        <ele>-2.27</ele>
        <time>2020-05-25T15:04:42Z</time>
      </trkpt>
      <trkpt lat="47.23022" lon="-2.18035">
        <ele>-2.27</ele>
        <time>2020-05-25T15:04:46Z</time>
      </trkpt>
      <trkpt lat="47.22976" lon="-2.18008">
        <ele>-2.27</ele>
        <time>2020-05-25T15:04:57Z</time>
      </trkpt>
      <trkpt lat="47.22915" lon="-2.17992">
        <ele>-1.79</ele>
        <time>2020-05-25T15:05:18Z</time>
      </trkpt>
      <trkpt lat="47.22882" lon="-2.17968">
        <ele>-2.27</ele>
        <time>2020-05-25T15:05:38Z</time>
      </trkpt>
      <trkpt lat="47.2286" lon="-2.17942">
        <ele>-1.79</ele>
        <time>2020-05-25T15:06:01Z</time>
      </trkpt>
      <trkpt lat="47.22838" lon="-2.17921">
        <ele>-1.3</ele>
        <time>2020-05-25T15:06:21Z</time>
      </trkpt>
      <trkpt lat="47.22827" lon="-2.17913">
        <ele>-1.3</ele>
        <time>2020-05-25T15:06:43Z</time>
      </trkpt>
      <trkpt lat="47.22794" lon="-2.17889">
        <ele>-1.3</ele>
        <time>2020-05-25T15:07:00Z</time>
      </trkpt>
      <trkpt lat="47.22749" lon="-2.17857">
        <ele>-0.82</ele>
        <time>2020-05-25T15:07:18Z</time>
      </trkpt>
      <trkpt lat="47.22711" lon="-2.17838">
        <ele>-1.3</ele>
        <time>2020-05-25T15:07:25Z</time>
      </trkpt>
      <trkpt lat="47.22696" lon="-2.17827">
        <ele>-1.3</ele>
        <time>2020-05-25T15:07:28Z</time>
      </trkpt>
      <trkpt lat="47.22669" lon="-2.17793">
        <ele>-1.3</ele>
        <time>2020-05-25T15:07:35Z</time>
      </trkpt>
      <trkpt lat="47.22648" lon="-2.17766">
        <ele>-1.3</ele>
        <time>2020-05-25T15:07:40Z</time>
      </trkpt>
      <trkpt lat="47.22553" lon="-2.17709">
        <ele>-1.3</ele>
        <time>2020-05-25T15:07:54Z</time>
      </trkpt>
      <trkpt lat="47.22537" lon="-2.17705">
        <ele>-1.3</ele>
        <time>2020-05-25T15:07:56Z</time>
      </trkpt>
      <trkpt lat="47.22521" lon="-2.177">
        <ele>-1.3</ele>
        <time>2020-05-25T15:07:58Z</time>
      </trkpt>
      <trkpt lat="47.22465" lon="-2.1765">
        <ele>-0.82</ele>
        <time>2020-05-25T15:08:07Z</time>
      </trkpt>
      <trkpt lat="47.2244" lon="-2.17612">
        <ele>-0.82</ele>
        <time>2020-05-25T15:08:12Z</time>
      </trkpt>
      <trkpt lat="47.22393" lon="-2.17574">
        <ele>-0.82</ele>
        <time>2020-05-25T15:08:19Z</time>
      </trkpt>
      <trkpt lat="47.22364" lon="-2.17569">
        <ele>-0.82</ele>
        <time>2020-05-25T15:08:22Z</time>
      </trkpt>
      <trkpt lat="47.22287" lon="-2.17491">
        <ele>-0.34</ele>
        <time>2020-05-25T15:08:32Z</time>
      </trkpt>
      <trkpt lat="47.22262" lon="-2.17464">
        <ele>-0.34</ele>
        <time>2020-05-25T15:08:35Z</time>
      </trkpt>
      <trkpt lat="47.22231" lon="-2.17449">
        <ele>-0.82</ele>
        <time>2020-05-25T15:08:38Z</time>
      </trkpt>
      <trkpt lat="47.22111" lon="-2.17387">
        <ele>-1.3</ele>
        <time>2020-05-25T15:08:50Z</time>
      </trkpt>
      <trkpt lat="47.22102" lon="-2.17381">
        <ele>-1.3</ele>
        <time>2020-05-25T15:08:51Z</time>
      </trkpt>
      <trkpt lat="47.22058" lon="-2.17329">
        <ele>-1.3</ele>
        <time>2020-05-25T15:08:57Z</time>
      </trkpt>
      <trkpt lat="47.22013" lon="-2.17266">
        <ele>-1.3</ele>
        <time>2020-05-25T15:09:05Z</time>
      </trkpt>
      <trkpt lat="47.21991" lon="-2.17241">
        <ele>-0.82</ele>
        <time>2020-05-25T15:09:09Z</time>
      </trkpt>
      <trkpt lat="47.21971" lon="-2.17211">
        <ele>-0.82</ele>
        <time>2020-05-25T15:09:13Z</time>
      </trkpt>
      <trkpt lat="47.21962" lon="-2.17196">
        <ele>-0.82</ele>
        <time>2020-05-25T15:09:15Z</time>
      </trkpt>
      <trkpt lat="47.21933" lon="-2.17169">
        <ele>-0.82</ele>
        <time>2020-05-25T15:09:20Z</time>
      </trkpt>
      <trkpt lat="47.21913" lon="-2.17158">
        <ele>-0.82</ele>
        <time>2020-05-25T15:09:23Z</time>
      </trkpt>
      <trkpt lat="47.21865" lon="-2.17139">
        <ele>-0.82</ele>
        <time>2020-05-25T15:09:30Z</time>
      </trkpt>
      <trkpt lat="47.21839" lon="-2.17121">
        <ele>-0.82</ele>
        <time>2020-05-25T15:09:34Z</time>
      </trkpt>
      <trkpt lat="47.21792" lon="-2.17063">
        <ele>-0.82</ele>
        <time>2020-05-25T15:09:43Z</time>
      </trkpt>
      <trkpt lat="47.21782" lon="-2.17046">
        <ele>-0.82</ele>
        <time>2020-05-25T15:09:45Z</time>
      </trkpt>
      <trkpt lat="47.21731" lon="-2.17003">
        <ele>-0.82</ele>
        <time>2020-05-25T15:09:52Z</time>
      </trkpt>
      <trkpt lat="47.2169" lon="-2.16977">
        <ele>-0.82</ele>
        <time>2020-05-25T15:09:57Z</time>
      </trkpt>
      <trkpt lat="47.21624" lon="-2.16926">
        <ele>-0.82</ele>
        <time>2020-05-25T15:10:06Z</time>
      </trkpt>
      <trkpt lat="47.21598" lon="-2.16907">
        <ele>-0.82</ele>
        <time>2020-05-25T15:10:09Z</time>
      </trkpt>
      <trkpt lat="47.21587" lon="-2.16863">
        <ele>-0.82</ele>
        <time>2020-05-25T15:10:14Z</time>
      </trkpt>
      <trkpt lat="47.21599" lon="-2.1687">
        <ele>-0.82</ele>
        <time>2020-05-25T15:10:16Z</time>
      </trkpt>
      <trkpt lat="47.21625" lon="-2.16901">
        <ele>-0.82</ele>
        <time>2020-05-25T15:10:20Z</time>
      </trkpt>
      <trkpt lat="47.21732" lon="-2.16985">
        <ele>-0.82</ele>
        <time>2020-05-25T15:10:33Z</time>
      </trkpt>
      <trkpt lat="47.21838" lon="-2.1709">
        <ele>-0.82</ele>
        <time>2020-05-25T15:10:47Z</time>
      </trkpt>
      <trkpt lat="47.21869" lon="-2.17112">
        <ele>-1.3</ele>
        <time>2020-05-25T15:10:51Z</time>
      </trkpt>
      <trkpt lat="47.21919" lon="-2.17153">
        <ele>-0.82</ele>
        <time>2020-05-25T15:10:58Z</time>
      </trkpt>
      <trkpt lat="47.21958" lon="-2.1723">
        <ele>-1.3</ele>
        <time>2020-05-25T15:11:06Z</time>
      </trkpt>
      <trkpt lat="47.21984" lon="-2.17267">
        <ele>-1.79</ele>
        <time>2020-05-25T15:11:10Z</time>
      </trkpt>
      <trkpt lat="47.22046" lon="-2.1732">
        <ele>-1.79</ele>
        <time>2020-05-25T15:11:18Z</time>
      </trkpt>
      <trkpt lat="47.22063" lon="-2.17327">
        <ele>-1.79</ele>
        <time>2020-05-25T15:11:20Z</time>
      </trkpt>
      <trkpt lat="47.22113" lon="-2.17337">
        <ele>-1.3</ele>
        <time>2020-05-25T15:11:26Z</time>
      </trkpt>
      <trkpt lat="47.22208" lon="-2.17407">
        <ele>-0.82</ele>
        <time>2020-05-25T15:11:40Z</time>
      </trkpt>
      <trkpt lat="47.22295" lon="-2.17491">
        <ele>-0.82</ele>
        <time>2020-05-25T15:11:52Z</time>
      </trkpt>
      <trkpt lat="47.22402" lon="-2.17582">
        <ele>-1.3</ele>
        <time>2020-05-25T15:12:08Z</time>
      </trkpt>
      <trkpt lat="47.22482" lon="-2.17638">
        <ele>-1.3</ele>
        <time>2020-05-25T15:12:21Z</time>
      </trkpt>
      <trkpt lat="47.22538" lon="-2.17706">
        <ele>-1.79</ele>
        <time>2020-05-25T15:12:31Z</time>
      </trkpt>
      <trkpt lat="47.22551" lon="-2.17718">
        <ele>-1.79</ele>
        <time>2020-05-25T15:12:33Z</time>
      </trkpt>
      <trkpt lat="47.22585" lon="-2.17735">
        <ele>-2.27</ele>
        <time>2020-05-25T15:12:38Z</time>
      </trkpt>
      <trkpt lat="47.22647" lon="-2.17733">
        <ele>-1.3</ele>
        <time>2020-05-25T15:12:50Z</time>
      </trkpt>
      <trkpt lat="47.22665" lon="-2.17743">
        <ele>-1.3</ele>
        <time>2020-05-25T15:12:54Z</time>
      </trkpt>
      <trkpt lat="47.22747" lon="-2.17818">
        <ele>-1.3</ele>
        <time>2020-05-25T15:13:07Z</time>
      </trkpt>
      <trkpt lat="47.22802" lon="-2.17874">
        <ele>-1.79</ele>
        <time>2020-05-25T15:13:14Z</time>
      </trkpt>
      <trkpt lat="47.22836" lon="-2.1793">
        <ele>-2.27</ele>
        <time>2020-05-25T15:13:19Z</time>
      </trkpt>
      <trkpt lat="47.22904" lon="-2.17984">
        <ele>-2.75</ele>
        <time>2020-05-25T15:13:28Z</time>
      </trkpt>
      <trkpt lat="47.22916" lon="-2.17992">
        <ele>-2.75</ele>
        <time>2020-05-25T15:13:30Z</time>
      </trkpt>
      <trkpt lat="47.22935" lon="-2.17981">
        <ele>-2.27</ele>
        <time>2020-05-25T15:13:35Z</time>
      </trkpt>
      <trkpt lat="47.22934" lon="-2.17967">
        <ele>-2.27</ele>
        <time>2020-05-25T15:13:37Z</time>
      </trkpt>
      <trkpt lat="47.22934" lon="-2.17948">
        <ele>-1.79</ele>
        <time>2020-05-25T15:13:40Z</time>
      </trkpt>
      <trkpt lat="47.22948" lon="-2.17944">
        <ele>-1.79</ele>
        <time>2020-05-25T15:13:46Z</time>
      </trkpt>
      <trkpt lat="47.2298" lon="-2.1798">
        <ele>-1.79</ele>
        <time>2020-05-25T15:14:02Z</time>
      </trkpt>
      <trkpt lat="47.23004" lon="-2.18007">
        <ele>-1.3</ele>
        <time>2020-05-25T15:14:25Z</time>
      </trkpt>
      <trkpt lat="47.23036" lon="-2.18035">
        <ele>-0.82</ele>
        <time>2020-05-25T15:14:43Z</time>
      </trkpt>
      <trkpt lat="47.23054" lon="-2.18053">
        <ele>-1.3</ele>
        <time>2020-05-25T15:15:01Z</time>
      </trkpt>
      <trkpt lat="47.23063" lon="-2.18061">
        <ele>-1.3</ele>
        <time>2020-05-25T15:15:22Z</time>
      </trkpt>
      <trkpt lat="47.23118" lon="-2.18096">
        <ele>-1.79</ele>
        <time>2020-05-25T15:15:37Z</time>
      </trkpt>
      <trkpt lat="47.23166" lon="-2.18126">
        <ele>-1.79</ele>
        <time>2020-05-25T15:15:47Z</time>
      </trkpt>
      <trkpt lat="47.23188" lon="-2.18113">
        <ele>-1.79</ele>
        <time>2020-05-25T15:15:53Z</time>
      </trkpt>
      <trkpt lat="47.23187" lon="-2.18109">
        <ele>-1.3</ele>
        <time>2020-05-25T15:16:11Z</time>
      </trkpt>
      <trkpt lat="47.23186" lon="-2.18109">
        <ele>-0.82</ele>
        <time>2020-05-25T15:16:38Z</time>
      </trkpt>
      <trkpt lat="47.23186" lon="-2.18109">
        <ele>-0.82</ele>
        <time>2020-05-25T15:17:07Z</time>
      </trkpt>
      <trkpt lat="47.23186" lon="-2.18109">
        <ele>-0.82</ele>
        <time>2020-05-25T15:17:26Z</time>
      </trkpt>
      <trkpt lat="47.23187" lon="-2.1811">
        <ele>-0.82</ele>
        <time>2020-05-25T15:17:50Z</time>
      </trkpt>
      <trkpt lat="47.23186" lon="-2.18109">
        <ele>-0.82</ele>
        <time>2020-05-25T15:17:52Z</time>
      </trkpt>
      <trkpt lat="47.23181" lon="-2.18128">
        <ele>-1.3</ele>
        <time>2020-05-25T15:18:01Z</time>
      </trkpt>
      <trkpt lat="47.23194" lon="-2.18152">
        <ele>-2.27</ele>
        <time>2020-05-25T15:18:09Z</time>
      </trkpt>
      <trkpt lat="47.23205" lon="-2.18137">
        <ele>0.62</ele>
        <time>2020-05-25T15:18:25Z</time>
      </trkpt>
      <trkpt lat="47.2321" lon="-2.18123">
        <ele>2.06</ele>
        <time>2020-05-25T15:18:42Z</time>
      </trkpt>
      <trkpt lat="47.23212" lon="-2.18101">
        <ele>3.02</ele>
        <time>2020-05-25T15:19:04Z</time>
      </trkpt>
      <trkpt lat="47.23213" lon="-2.18097">
        <ele>3.02</ele>
        <time>2020-05-25T15:19:09Z</time>
      </trkpt>
      <trkpt lat="47.23215" lon="-2.18073">
        <ele>2.54</ele>
        <time>2020-05-25T15:19:20Z</time>
      </trkpt>
      <trkpt lat="47.23213" lon="-2.18065">
        <ele>2.06</ele>
        <time>2020-05-25T15:19:36Z</time>
      </trkpt>
      <trkpt lat="47.23212" lon="-2.18066">
        <ele>2.06</ele>
        <time>2020-05-25T15:19:51Z</time>
      </trkpt>
      <trkpt lat="47.23212" lon="-2.18066">
        <ele>2.54</ele>
        <time>2020-05-25T15:20:21Z</time>
      </trkpt>
      <trkpt lat="47.23212" lon="-2.18066">
        <ele>2.54</ele>
        <time>2020-05-25T15:20:41Z</time>
      </trkpt>
      <trkpt lat="47.23212" lon="-2.18067">
        <ele>2.06</ele>
        <time>2020-05-25T15:20:43Z</time>
      </trkpt>
      <trkpt lat="47.23211" lon="-2.18066">
        <ele>2.06</ele>
        <time>2020-05-25T15:20:49Z</time>
      </trkpt>
      <trkpt lat="47.23211" lon="-2.18065">
        <ele>1.58</ele>
        <time>2020-05-25T15:20:55Z</time>
      </trkpt>
      <trkpt lat="47.23207" lon="-2.18066">
        <ele>0.14</ele>
        <time>2020-05-25T15:21:06Z</time>
      </trkpt>
      <trkpt lat="47.23206" lon="-2.18067">
        <ele>1.58</ele>
        <time>2020-05-25T15:21:42Z</time>
      </trkpt>
      <trkpt lat="47.23206" lon="-2.18068">
        <ele>2.06</ele>
        <time>2020-05-25T15:22:16Z</time>
      </trkpt>
      <trkpt lat="47.23206" lon="-2.18068">
        <ele>2.54</ele>
        <time>2020-05-25T15:22:48Z</time>
      </trkpt>
      <trkpt lat="47.23206" lon="-2.18067">
        <ele>3.02</ele>
        <time>2020-05-25T15:23:16Z</time>
      </trkpt>
      <trkpt lat="47.23206" lon="-2.18067">
        <ele>3.02</ele>
        <time>2020-05-25T15:23:52Z</time>
      </trkpt>
      <trkpt lat="47.23206" lon="-2.18067">
        <ele>3.5</ele>
        <time>2020-05-25T15:24:27Z</time>
      </trkpt>
      <trkpt lat="47.23206" lon="-2.18067">
        <ele>3.5</ele>
        <time>2020-05-25T15:24:57Z</time>
      </trkpt>
      <trkpt lat="47.23206" lon="-2.18067">
        <ele>3.5</ele>
        <time>2020-05-25T15:25:29Z</time>
      </trkpt>
      <trkpt lat="47.23206" lon="-2.18067">
        <ele>3.5</ele>
        <time>2020-05-25T15:26:04Z</time>
      </trkpt>
      <trkpt lat="47.23207" lon="-2.18066">
        <ele>3.98</ele>
        <time>2020-05-25T15:26:38Z</time>
      </trkpt>
      <trkpt lat="47.23207" lon="-2.18067">
        <ele>3.98</ele>
        <time>2020-05-25T15:27:13Z</time>
      </trkpt>
      <trkpt lat="47.23207" lon="-2.18067">
        <ele>4.46</ele>
        <time>2020-05-25T15:27:50Z</time>
      </trkpt>
      <trkpt lat="47.23207" lon="-2.18067">
        <ele>4.46</ele>
        <time>2020-05-25T15:28:26Z</time>
      </trkpt>
      <trkpt lat="47.23207" lon="-2.18067">
        <ele>4.46</ele>
        <time>2020-05-25T15:29:01Z</time>
      </trkpt>
      <trkpt lat="47.23208" lon="-2.18067">
        <ele>4.46</ele>
        <time>2020-05-25T15:29:33Z</time>
      </trkpt>
      <trkpt lat="47.23208" lon="-2.18067">
        <ele>4.46</ele>
        <time>2020-05-25T15:30:10Z</time>
      </trkpt>
      <trkpt lat="47.23208" lon="-2.18067">
        <ele>4.46</ele>
        <time>2020-05-25T15:30:45Z</time>
      </trkpt>
      <trkpt lat="47.23208" lon="-2.18068">
        <ele>3.98</ele>
        <time>2020-05-25T15:31:22Z</time>
      </trkpt>
      <trkpt lat="47.23208" lon="-2.18068">
        <ele>3.98</ele>
        <time>2020-05-25T15:31:57Z</time>
      </trkpt>
      <trkpt lat="47.23208" lon="-2.18069">
        <ele>4.46</ele>
        <time>2020-05-25T15:32:30Z</time>
      </trkpt>
      <trkpt lat="47.23208" lon="-2.18068">
        <ele>3.98</ele>
        <time>2020-05-25T15:33:01Z</time>
      </trkpt>
      <trkpt lat="47.23209" lon="-2.18069">
        <ele>3.98</ele>
        <time>2020-05-25T15:33:03Z</time>
      </trkpt>
      <trkpt lat="47.23211" lon="-2.18068">
        <ele>4.46</ele>
        <time>2020-05-25T15:33:05Z</time>
      </trkpt>
      <trkpt lat="47.23206" lon="-2.18066">
        <ele>3.98</ele>
        <time>2020-05-25T15:33:15Z</time>
      </trkpt>
      <trkpt lat="47.23205" lon="-2.18066">
        <ele>3.5</ele>
        <time>2020-05-25T15:33:40Z</time>
      </trkpt>
      <trkpt lat="47.23205" lon="-2.18067">
        <ele>3.02</ele>
        <time>2020-05-25T15:33:57Z</time>
      </trkpt>
      <trkpt lat="47.23205" lon="-2.18067">
        <ele>2.54</ele>
        <time>2020-05-25T15:34:24Z</time>
      </trkpt>
      <trkpt lat="47.23204" lon="-2.18067">
        <ele>2.54</ele>
        <time>2020-05-25T15:34:57Z</time>
      </trkpt>
      <trkpt lat="47.23204" lon="-2.18067">
        <ele>2.54</ele>
        <time>2020-05-25T15:35:32Z</time>
      </trkpt>
      <trkpt lat="47.23203" lon="-2.18066">
        <ele>3.02</ele>
        <time>2020-05-25T15:36:06Z</time>
      </trkpt>
      <trkpt lat="47.23203" lon="-2.18067">
        <ele>2.54</ele>
        <time>2020-05-25T15:36:43Z</time>
      </trkpt>
      <trkpt lat="47.23203" lon="-2.18067">
        <ele>2.54</ele>
        <time>2020-05-25T15:37:26Z</time>
      </trkpt>
      <trkpt lat="47.23202" lon="-2.18068">
        <ele>2.54</ele>
        <time>2020-05-25T15:38:07Z</time>
      </trkpt>
      <trkpt lat="47.23202" lon="-2.18069">
        <ele>2.06</ele>
        <time>2020-05-25T15:38:48Z</time>
      </trkpt>
      <trkpt lat="47.23202" lon="-2.18069">
        <ele>2.54</ele>
        <time>2020-05-25T15:39:28Z</time>
      </trkpt>
      <trkpt lat="47.23203" lon="-2.18068">
        <ele>3.02</ele>
        <time>2020-05-25T15:40:04Z</time>
      </trkpt>
      <trkpt lat="47.23203" lon="-2.18068">
        <ele>3.02</ele>
        <time>2020-05-25T15:40:42Z</time>
      </trkpt>
      <trkpt lat="47.23204" lon="-2.18068">
        <ele>3.98</ele>
        <time>2020-05-25T15:41:20Z</time>
      </trkpt>
      <trkpt lat="47.23204" lon="-2.18067">
        <ele>4.46</ele>
        <time>2020-05-25T15:42:00Z</time>
      </trkpt>
      <trkpt lat="47.23204" lon="-2.18067">
        <ele>5.91</ele>
        <time>2020-05-25T15:42:41Z</time>
      </trkpt>
      <trkpt lat="47.23205" lon="-2.18066">
        <ele>5.91</ele>
        <time>2020-05-25T15:43:20Z</time>
      </trkpt>
      <trkpt lat="47.23205" lon="-2.18067">
        <ele>5.91</ele>
        <time>2020-05-25T15:43:55Z</time>
      </trkpt>
      <trkpt lat="47.23205" lon="-2.18067">
        <ele>5.42</ele>
        <time>2020-05-25T15:44:23Z</time>
      </trkpt>
      <trkpt lat="47.23205" lon="-2.18067">
        <ele>5.42</ele>
        <time>2020-05-25T15:44:45Z</time>
      </trkpt>
      <trkpt lat="47.23201" lon="-2.18041">
        <ele>5.42</ele>
        <time>2020-05-25T15:44:59Z</time>
      </trkpt>
      <trkpt lat="47.2321" lon="-2.18032">
        <ele>4.46</ele>
        <time>2020-05-25T15:45:04Z</time>
      </trkpt>
      <trkpt lat="47.23245" lon="-2.17989">
        <ele>3.98</ele>
        <time>2020-05-25T15:45:20Z</time>
      </trkpt>
      <trkpt lat="47.23246" lon="-2.17973">
        <ele>3.98</ele>
        <time>2020-05-25T15:45:32Z</time>
      </trkpt>
      <trkpt lat="47.23255" lon="-2.17933">
        <ele>4.94</ele>
        <time>2020-05-25T15:45:43Z</time>
      </trkpt>
      <trkpt lat="47.23262" lon="-2.17906">
        <ele>6.87</ele>
        <time>2020-05-25T15:45:53Z</time>
      </trkpt>
      <trkpt lat="47.23273" lon="-2.17879">
        <ele>6.87</ele>
        <time>2020-05-25T15:46:03Z</time>
      </trkpt>
      <trkpt lat="47.23305" lon="-2.17839">
        <ele>5.91</ele>
        <time>2020-05-25T15:46:10Z</time>
      </trkpt>
      <trkpt lat="47.2331" lon="-2.17831">
        <ele>5.42</ele>
        <time>2020-05-25T15:46:11Z</time>
      </trkpt>
      <trkpt lat="47.23322" lon="-2.17804">
        <ele>5.42</ele>
        <time>2020-05-25T15:46:14Z</time>
      </trkpt>
      <trkpt lat="47.23325" lon="-2.17794">
        <ele>5.42</ele>
        <time>2020-05-25T15:46:15Z</time>
      </trkpt>
      <trkpt lat="47.23335" lon="-2.17663">
        <ele>4.46</ele>
        <time>2020-05-25T15:46:27Z</time>
      </trkpt>
      <trkpt lat="47.23339" lon="-2.1757">
        <ele>4.46</ele>
        <time>2020-05-25T15:46:36Z</time>
      </trkpt>
      <trkpt lat="47.2334" lon="-2.17554">
        <ele>5.91</ele>
        <time>2020-05-25T15:46:45Z</time>
      </trkpt>
      <trkpt lat="47.23335" lon="-2.17535">
        <ele>5.91</ele>
        <time>2020-05-25T15:46:49Z</time>
      </trkpt>
      <trkpt lat="47.23335" lon="-2.17529">
        <ele>6.39</ele>
        <time>2020-05-25T15:46:50Z</time>
      </trkpt>
      <trkpt lat="47.23337" lon="-2.17524">
        <ele>6.39</ele>
        <time>2020-05-25T15:46:51Z</time>
      </trkpt>
      <trkpt lat="47.23341" lon="-2.17521">
        <ele>6.39</ele>
        <time>2020-05-25T15:46:52Z</time>
      </trkpt>
      <trkpt lat="47.23346" lon="-2.1752">
        <ele>6.87</ele>
        <time>2020-05-25T15:46:53Z</time>
      </trkpt>
      <trkpt lat="47.23351" lon="-2.17521">
        <ele>6.87</ele>
        <time>2020-05-25T15:46:54Z</time>
      </trkpt>
      <trkpt lat="47.23357" lon="-2.17523">
        <ele>6.87</ele>
        <time>2020-05-25T15:46:55Z</time>
      </trkpt>
      <trkpt lat="47.23452" lon="-2.1754">
        <ele>9.75</ele>
        <time>2020-05-25T15:47:09Z</time>
      </trkpt>
      <trkpt lat="47.23491" lon="-2.17546">
        <ele>10.71</ele>
        <time>2020-05-25T15:47:14Z</time>
      </trkpt>
      <trkpt lat="47.23499" lon="-2.17544">
        <ele>10.71</ele>
        <time>2020-05-25T15:47:15Z</time>
      </trkpt>
      <trkpt lat="47.23507" lon="-2.17541">
        <ele>10.71</ele>
        <time>2020-05-25T15:47:16Z</time>
      </trkpt>
      <trkpt lat="47.23538" lon="-2.1752">
        <ele>10.23</ele>
        <time>2020-05-25T15:47:20Z</time>
      </trkpt>
      <trkpt lat="47.23546" lon="-2.17513">
        <ele>10.23</ele>
        <time>2020-05-25T15:47:21Z</time>
      </trkpt>
      <trkpt lat="47.23553" lon="-2.17504">
        <ele>10.23</ele>
        <time>2020-05-25T15:47:22Z</time>
      </trkpt>
      <trkpt lat="47.23559" lon="-2.17493">
        <ele>10.23</ele>
        <time>2020-05-25T15:47:23Z</time>
      </trkpt>
      <trkpt lat="47.23565" lon="-2.17482">
        <ele>10.23</ele>
        <time>2020-05-25T15:47:24Z</time>
      </trkpt>
      <trkpt lat="47.23571" lon="-2.1747">
        <ele>10.23</ele>
        <time>2020-05-25T15:47:25Z</time>
      </trkpt>
      <trkpt lat="47.23616" lon="-2.17325">
        <ele>8.79</ele>
        <time>2020-05-25T15:47:36Z</time>
      </trkpt>
      <trkpt lat="47.23617" lon="-2.17314">
        <ele>8.79</ele>
        <time>2020-05-25T15:47:37Z</time>
      </trkpt>
      <trkpt lat="47.23619" lon="-2.17293">
        <ele>8.31</ele>
        <time>2020-05-25T15:47:39Z</time>
      </trkpt>
      <trkpt lat="47.23622" lon="-2.17285">
        <ele>8.31</ele>
        <time>2020-05-25T15:47:40Z</time>
      </trkpt>
      <trkpt lat="47.23646" lon="-2.17214">
        <ele>7.83</ele>
        <time>2020-05-25T15:47:46Z</time>
      </trkpt>
      <trkpt lat="47.23653" lon="-2.17202">
        <ele>7.83</ele>
        <time>2020-05-25T15:47:47Z</time>
      </trkpt>
      <trkpt lat="47.23659" lon="-2.17192">
        <ele>7.83</ele>
        <time>2020-05-25T15:47:48Z</time>
      </trkpt>
      <trkpt lat="47.23704" lon="-2.17134">
        <ele>8.79</ele>
        <time>2020-05-25T15:47:56Z</time>
      </trkpt>
      <trkpt lat="47.23789" lon="-2.17026">
        <ele>7.83</ele>
        <time>2020-05-25T15:48:07Z</time>
      </trkpt>
      <trkpt lat="47.23845" lon="-2.16956">
        <ele>6.87</ele>
        <time>2020-05-25T15:48:16Z</time>
      </trkpt>
      <trkpt lat="47.2385" lon="-2.16946">
        <ele>6.87</ele>
        <time>2020-05-25T15:48:17Z</time>
      </trkpt>
      <trkpt lat="47.23857" lon="-2.16928">
        <ele>6.87</ele>
        <time>2020-05-25T15:48:19Z</time>
      </trkpt>
      <trkpt lat="47.23858" lon="-2.16918">
        <ele>6.39</ele>
        <time>2020-05-25T15:48:20Z</time>
      </trkpt>
      <trkpt lat="47.23858" lon="-2.16908">
        <ele>6.39</ele>
        <time>2020-05-25T15:48:21Z</time>
      </trkpt>
      <trkpt lat="47.23859" lon="-2.16898">
        <ele>5.91</ele>
        <time>2020-05-25T15:48:22Z</time>
      </trkpt>
      <trkpt lat="47.23861" lon="-2.16889">
        <ele>5.91</ele>
        <time>2020-05-25T15:48:23Z</time>
      </trkpt>
      <trkpt lat="47.23864" lon="-2.16882">
        <ele>5.91</ele>
        <time>2020-05-25T15:48:24Z</time>
      </trkpt>
      <trkpt lat="47.23869" lon="-2.16876">
        <ele>5.91</ele>
        <time>2020-05-25T15:48:25Z</time>
      </trkpt>
      <trkpt lat="47.23876" lon="-2.16869">
        <ele>5.42</ele>
        <time>2020-05-25T15:48:26Z</time>
      </trkpt>
      <trkpt lat="47.23953" lon="-2.16783">
        <ele>4.94</ele>
        <time>2020-05-25T15:48:35Z</time>
      </trkpt>
      <trkpt lat="47.23976" lon="-2.16756">
        <ele>4.94</ele>
        <time>2020-05-25T15:48:39Z</time>
      </trkpt>
      <trkpt lat="47.23991" lon="-2.16732">
        <ele>4.94</ele>
        <time>2020-05-25T15:48:42Z</time>
      </trkpt>
      <trkpt lat="47.24055" lon="-2.16662">
        <ele>5.91</ele>
        <time>2020-05-25T15:48:52Z</time>
      </trkpt>
      <trkpt lat="47.24115" lon="-2.16589">
        <ele>6.39</ele>
        <time>2020-05-25T15:49:00Z</time>
      </trkpt>
      <trkpt lat="47.24228" lon="-2.16455">
        <ele>6.39</ele>
        <time>2020-05-25T15:49:13Z</time>
      </trkpt>
      <trkpt lat="47.24337" lon="-2.16322">
        <ele>6.87</ele>
        <time>2020-05-25T15:49:26Z</time>
      </trkpt>
      <trkpt lat="47.2438" lon="-2.16286">
        <ele>6.87</ele>
        <time>2020-05-25T15:49:32Z</time>
      </trkpt>
      <trkpt lat="47.24384" lon="-2.16281">
        <ele>6.87</ele>
        <time>2020-05-25T15:49:33Z</time>
      </trkpt>
      <trkpt lat="47.24386" lon="-2.16275">
        <ele>7.35</ele>
        <time>2020-05-25T15:49:34Z</time>
      </trkpt>
      <trkpt lat="47.24388" lon="-2.16269">
        <ele>7.35</ele>
        <time>2020-05-25T15:49:35Z</time>
      </trkpt>
      <trkpt lat="47.24389" lon="-2.16263">
        <ele>7.35</ele>
        <time>2020-05-25T15:49:36Z</time>
      </trkpt>
      <trkpt lat="47.24392" lon="-2.1626">
        <ele>7.35</ele>
        <time>2020-05-25T15:49:37Z</time>
      </trkpt>
      <trkpt lat="47.24395" lon="-2.16259">
        <ele>7.83</ele>
        <time>2020-05-25T15:49:38Z</time>
      </trkpt>
      <trkpt lat="47.24399" lon="-2.1626">
        <ele>7.83</ele>
        <time>2020-05-25T15:49:39Z</time>
      </trkpt>
      <trkpt lat="47.24405" lon="-2.1626">
        <ele>7.83</ele>
        <time>2020-05-25T15:49:40Z</time>
      </trkpt>
      <trkpt lat="47.2441" lon="-2.16259">
        <ele>8.31</ele>
        <time>2020-05-25T15:49:41Z</time>
      </trkpt>
      <trkpt lat="47.24416" lon="-2.16256">
        <ele>7.83</ele>
        <time>2020-05-25T15:49:42Z</time>
      </trkpt>
      <trkpt lat="47.2442" lon="-2.16251">
        <ele>7.83</ele>
        <time>2020-05-25T15:49:43Z</time>
      </trkpt>
      <trkpt lat="47.24425" lon="-2.16247">
        <ele>7.83</ele>
        <time>2020-05-25T15:49:44Z</time>
      </trkpt>
      <trkpt lat="47.2445" lon="-2.16222">
        <ele>7.83</ele>
        <time>2020-05-25T15:49:53Z</time>
      </trkpt>
      <trkpt lat="47.24455" lon="-2.16218">
        <ele>7.83</ele>
        <time>2020-05-25T15:49:55Z</time>
      </trkpt>
      <trkpt lat="47.24459" lon="-2.16217">
        <ele>7.83</ele>
        <time>2020-05-25T15:49:56Z</time>
      </trkpt>
      <trkpt lat="47.24464" lon="-2.16215">
        <ele>8.31</ele>
        <time>2020-05-25T15:49:57Z</time>
      </trkpt>
      <trkpt lat="47.24468" lon="-2.16215">
        <ele>8.31</ele>
        <time>2020-05-25T15:49:58Z</time>
      </trkpt>
      <trkpt lat="47.24471" lon="-2.16214">
        <ele>8.31</ele>
        <time>2020-05-25T15:49:59Z</time>
      </trkpt>
      <trkpt lat="47.24477" lon="-2.16212">
        <ele>8.79</ele>
        <time>2020-05-25T15:50:03Z</time>
      </trkpt>
      <trkpt lat="47.24479" lon="-2.1621">
        <ele>8.79</ele>
        <time>2020-05-25T15:50:04Z</time>
      </trkpt>
      <trkpt lat="47.24483" lon="-2.16207">
        <ele>8.79</ele>
        <time>2020-05-25T15:50:05Z</time>
      </trkpt>
      <trkpt lat="47.24487" lon="-2.16205">
        <ele>8.79</ele>
        <time>2020-05-25T15:50:06Z</time>
      </trkpt>
      <trkpt lat="47.24492" lon="-2.16203">
        <ele>9.27</ele>
        <time>2020-05-25T15:50:07Z</time>
      </trkpt>
      <trkpt lat="47.24498" lon="-2.162">
        <ele>9.27</ele>
        <time>2020-05-25T15:50:08Z</time>
      </trkpt>
      <trkpt lat="47.24504" lon="-2.16196">
        <ele>9.27</ele>
        <time>2020-05-25T15:50:09Z</time>
      </trkpt>
      <trkpt lat="47.2451" lon="-2.16188">
        <ele>9.27</ele>
        <time>2020-05-25T15:50:10Z</time>
      </trkpt>
      <trkpt lat="47.24513" lon="-2.16179">
        <ele>9.27</ele>
        <time>2020-05-25T15:50:11Z</time>
      </trkpt>
      <trkpt lat="47.24516" lon="-2.16168">
        <ele>9.27</ele>
        <time>2020-05-25T15:50:12Z</time>
      </trkpt>
      <trkpt lat="47.24517" lon="-2.16156">
        <ele>8.79</ele>
        <time>2020-05-25T15:50:13Z</time>
      </trkpt>
      <trkpt lat="47.24517" lon="-2.16143">
        <ele>8.79</ele>
        <time>2020-05-25T15:50:14Z</time>
      </trkpt>
      <trkpt lat="47.24516" lon="-2.16129">
        <ele>8.31</ele>
        <time>2020-05-25T15:50:15Z</time>
      </trkpt>
      <trkpt lat="47.24514" lon="-2.16116">
        <ele>8.31</ele>
        <time>2020-05-25T15:50:16Z</time>
      </trkpt>
      <trkpt lat="47.24512" lon="-2.16101">
        <ele>7.83</ele>
        <time>2020-05-25T15:50:17Z</time>
      </trkpt>
      <trkpt lat="47.2449" lon="-2.15944">
        <ele>6.87</ele>
        <time>2020-05-25T15:50:27Z</time>
      </trkpt>
      <trkpt lat="47.24488" lon="-2.15845">
        <ele>5.91</ele>
        <time>2020-05-25T15:50:34Z</time>
      </trkpt>
      <trkpt lat="47.24485" lon="-2.15827">
        <ele>5.91</ele>
        <time>2020-05-25T15:50:36Z</time>
      </trkpt>
      <trkpt lat="47.24478" lon="-2.15806">
        <ele>5.42</ele>
        <time>2020-05-25T15:50:38Z</time>
      </trkpt>
      <trkpt lat="47.24476" lon="-2.15795">
        <ele>5.42</ele>
        <time>2020-05-25T15:50:39Z</time>
      </trkpt>
      <trkpt lat="47.24476" lon="-2.15783">
        <ele>4.94</ele>
        <time>2020-05-25T15:50:40Z</time>
      </trkpt>
      <trkpt lat="47.24479" lon="-2.15772">
        <ele>5.42</ele>
        <time>2020-05-25T15:50:41Z</time>
      </trkpt>
      <trkpt lat="47.24484" lon="-2.15763">
        <ele>5.42</ele>
        <time>2020-05-25T15:50:42Z</time>
      </trkpt>
      <trkpt lat="47.2449" lon="-2.15757">
        <ele>5.91</ele>
        <time>2020-05-25T15:50:43Z</time>
      </trkpt>
      <trkpt lat="47.24497" lon="-2.15753">
        <ele>5.91</ele>
        <time>2020-05-25T15:50:44Z</time>
      </trkpt>
      <trkpt lat="47.24505" lon="-2.15753">
        <ele>5.91</ele>
        <time>2020-05-25T15:50:45Z</time>
      </trkpt>
      <trkpt lat="47.24514" lon="-2.15756">
        <ele>6.39</ele>
        <time>2020-05-25T15:50:46Z</time>
      </trkpt>
      <trkpt lat="47.24522" lon="-2.15762">
        <ele>6.39</ele>
        <time>2020-05-25T15:50:47Z</time>
      </trkpt>
      <trkpt lat="47.24528" lon="-2.15771">
        <ele>6.39</ele>
        <time>2020-05-25T15:50:48Z</time>
      </trkpt>
      <trkpt lat="47.24533" lon="-2.15783">
        <ele>6.39</ele>
        <time>2020-05-25T15:50:49Z</time>
      </trkpt>
      <trkpt lat="47.24536" lon="-2.15796">
        <ele>5.91</ele>
        <time>2020-05-25T15:50:50Z</time>
      </trkpt>
      <trkpt lat="47.24538" lon="-2.1581">
        <ele>5.91</ele>
        <time>2020-05-25T15:50:51Z</time>
      </trkpt>
      <trkpt lat="47.24541" lon="-2.15823">
        <ele>5.91</ele>
        <time>2020-05-25T15:50:52Z</time>
      </trkpt>
      <trkpt lat="47.24545" lon="-2.15835">
        <ele>5.91</ele>
        <time>2020-05-25T15:50:53Z</time>
      </trkpt>
      <trkpt lat="47.24551" lon="-2.15846">
        <ele>5.91</ele>
        <time>2020-05-25T15:50:54Z</time>
      </trkpt>
      <trkpt lat="47.24571" lon="-2.15878">
        <ele>5.91</ele>
        <time>2020-05-25T15:50:57Z</time>
      </trkpt>
      <trkpt lat="47.24649" lon="-2.1595">
        <ele>5.91</ele>
        <time>2020-05-25T15:51:04Z</time>
      </trkpt>
      <trkpt lat="47.24663" lon="-2.15954">
        <ele>5.91</ele>
        <time>2020-05-25T15:51:05Z</time>
      </trkpt>
      <trkpt lat="47.24678" lon="-2.15956">
        <ele>5.91</ele>
        <time>2020-05-25T15:51:06Z</time>
      </trkpt>
      <trkpt lat="47.24693" lon="-2.15955">
        <ele>6.39</ele>
        <time>2020-05-25T15:51:07Z</time>
      </trkpt>
      <trkpt lat="47.24709" lon="-2.15953">
        <ele>5.91</ele>
        <time>2020-05-25T15:51:08Z</time>
      </trkpt>
      <trkpt lat="47.24943" lon="-2.15925">
        <ele>3.98</ele>
        <time>2020-05-25T15:51:21Z</time>
      </trkpt>
      <trkpt lat="47.25217" lon="-2.15887">
        <ele>2.54</ele>
        <time>2020-05-25T15:51:35Z</time>
      </trkpt>
      <trkpt lat="47.25465" lon="-2.15853">
        <ele>3.02</ele>
        <time>2020-05-25T15:51:49Z</time>
      </trkpt>
      <trkpt lat="47.25742" lon="-2.15843">
        <ele>2.06</ele>
        <time>2020-05-25T15:52:06Z</time>
      </trkpt>
      <trkpt lat="47.26017" lon="-2.1592">
        <ele>4.46</ele>
        <time>2020-05-25T15:52:23Z</time>
      </trkpt>
      <trkpt lat="47.26416" lon="-2.16043">
        <ele>5.91</ele>
        <time>2020-05-25T15:52:48Z</time>
      </trkpt>
      <trkpt lat="47.26688" lon="-2.16127">
        <ele>5.91</ele>
        <time>2020-05-25T15:53:06Z</time>
      </trkpt>
      <trkpt lat="47.26869" lon="-2.16187">
        <ele>5.42</ele>
        <time>2020-05-25T15:53:21Z</time>
      </trkpt>
      <trkpt lat="47.27069" lon="-2.16249">
        <ele>5.42</ele>
        <time>2020-05-25T15:53:36Z</time>
      </trkpt>
      <trkpt lat="47.2729" lon="-2.16318">
        <ele>6.39</ele>
        <time>2020-05-25T15:53:51Z</time>
      </trkpt>
      <trkpt lat="47.27572" lon="-2.16415">
        <ele>9.27</ele>
        <time>2020-05-25T15:54:09Z</time>
      </trkpt>
      <trkpt lat="47.27846" lon="-2.16548">
        <ele>20.81</ele>
        <time>2020-05-25T15:54:28Z</time>
      </trkpt>
      <trkpt lat="47.28111" lon="-2.16724">
        <ele>40.51</ele>
        <time>2020-05-25T15:54:48Z</time>
      </trkpt>
      <trkpt lat="47.28296" lon="-2.16875">
        <ele>55.41</ele>
        <time>2020-05-25T15:55:03Z</time>
      </trkpt>
      <trkpt lat="47.28499" lon="-2.17046">
        <ele>64.55</ele>
        <time>2020-05-25T15:55:20Z</time>
      </trkpt>
      <trkpt lat="47.28706" lon="-2.17219">
        <ele>63.58</ele>
        <time>2020-05-25T15:55:36Z</time>
      </trkpt>
      <trkpt lat="47.28957" lon="-2.17418">
        <ele>46.76</ele>
        <time>2020-05-25T15:55:55Z</time>
      </trkpt>
      <trkpt lat="47.2925" lon="-2.176">
        <ele>25.13</ele>
        <time>2020-05-25T15:56:14Z</time>
      </trkpt>
      <trkpt lat="47.2952" lon="-2.17722">
        <ele>10.71</ele>
        <time>2020-05-25T15:56:31Z</time>
      </trkpt>
      <trkpt lat="47.29767" lon="-2.17824">
        <ele>2.54</ele>
        <time>2020-05-25T15:56:47Z</time>
      </trkpt>
      <trkpt lat="47.29975" lon="-2.17898">
        <ele>1.1</ele>
        <time>2020-05-25T15:57:00Z</time>
      </trkpt>
      <trkpt lat="47.29987" lon="-2.179">
        <ele>0.62</ele>
        <time>2020-05-25T15:57:01Z</time>
      </trkpt>
      <trkpt lat="47.29999" lon="-2.17899">
        <ele>0.62</ele>
        <time>2020-05-25T15:57:02Z</time>
      </trkpt>
      <trkpt lat="47.30011" lon="-2.17896">
        <ele>0.62</ele>
        <time>2020-05-25T15:57:03Z</time>
      </trkpt>
      <trkpt lat="47.30022" lon="-2.17891">
        <ele>0.62</ele>
        <time>2020-05-25T15:57:04Z</time>
      </trkpt>
      <trkpt lat="47.30032" lon="-2.17882">
        <ele>0.14</ele>
        <time>2020-05-25T15:57:05Z</time>
      </trkpt>
      <trkpt lat="47.3004" lon="-2.1787">
        <ele>0.14</ele>
        <time>2020-05-25T15:57:06Z</time>
      </trkpt>
      <trkpt lat="47.30048" lon="-2.17858">
        <ele>0.14</ele>
        <time>2020-05-25T15:57:07Z</time>
      </trkpt>
      <trkpt lat="47.30055" lon="-2.17844">
        <ele>0.14</ele>
        <time>2020-05-25T15:57:08Z</time>
      </trkpt>
      <trkpt lat="47.30118" lon="-2.17747">
        <ele>-0.34</ele>
        <time>2020-05-25T15:57:17Z</time>
      </trkpt>
      <trkpt lat="47.30124" lon="-2.17739">
        <ele>-0.34</ele>
        <time>2020-05-25T15:57:18Z</time>
      </trkpt>
      <trkpt lat="47.30129" lon="-2.1773">
        <ele>-0.34</ele>
        <time>2020-05-25T15:57:19Z</time>
      </trkpt>
      <trkpt lat="47.30133" lon="-2.17719">
        <ele>-0.82</ele>
        <time>2020-05-25T15:57:20Z</time>
      </trkpt>
      <trkpt lat="47.30142" lon="-2.17698">
        <ele>-0.82</ele>
        <time>2020-05-25T15:57:22Z</time>
      </trkpt>
      <trkpt lat="47.30148" lon="-2.1769">
        <ele>-0.82</ele>
        <time>2020-05-25T15:57:23Z</time>
      </trkpt>
      <trkpt lat="47.30154" lon="-2.17684">
        <ele>-0.82</ele>
        <time>2020-05-25T15:57:24Z</time>
      </trkpt>
      <trkpt lat="47.30162" lon="-2.1768">
        <ele>-0.82</ele>
        <time>2020-05-25T15:57:25Z</time>
      </trkpt>
      <trkpt lat="47.3017" lon="-2.1768">
        <ele>-0.82</ele>
        <time>2020-05-25T15:57:26Z</time>
      </trkpt>
      <trkpt lat="47.30178" lon="-2.17683">
        <ele>-0.82</ele>
        <time>2020-05-25T15:57:27Z</time>
      </trkpt>
      <trkpt lat="47.30185" lon="-2.17688">
        <ele>-0.82</ele>
        <time>2020-05-25T15:57:28Z</time>
      </trkpt>
      <trkpt lat="47.30192" lon="-2.17694">
        <ele>-0.82</ele>
        <time>2020-05-25T15:57:29Z</time>
      </trkpt>
      <trkpt lat="47.30199" lon="-2.17698">
        <ele>-0.82</ele>
        <time>2020-05-25T15:57:30Z</time>
      </trkpt>
      <trkpt lat="47.30207" lon="-2.177">
        <ele>-0.82</ele>
        <time>2020-05-25T15:57:31Z</time>
      </trkpt>
      <trkpt lat="47.30216" lon="-2.17699">
        <ele>-0.82</ele>
        <time>2020-05-25T15:57:32Z</time>
      </trkpt>
      <trkpt lat="47.30224" lon="-2.17696">
        <ele>-0.82</ele>
        <time>2020-05-25T15:57:33Z</time>
      </trkpt>
      <trkpt lat="47.30232" lon="-2.17691">
        <ele>-0.82</ele>
        <time>2020-05-25T15:57:34Z</time>
      </trkpt>
      <trkpt lat="47.30344" lon="-2.17634">
        <ele>-0.82</ele>
        <time>2020-05-25T15:57:44Z</time>
      </trkpt>
      <trkpt lat="47.30584" lon="-2.17512">
        <ele>0.62</ele>
        <time>2020-05-25T15:57:59Z</time>
      </trkpt>
      <trkpt lat="47.30881" lon="-2.17361">
        <ele>3.02</ele>
        <time>2020-05-25T15:58:17Z</time>
      </trkpt>
      <trkpt lat="47.30953" lon="-2.17322">
        <ele>3.02</ele>
        <time>2020-05-25T15:58:24Z</time>
      </trkpt>
      <trkpt lat="47.30958" lon="-2.17318">
        <ele>2.54</ele>
        <time>2020-05-25T15:58:25Z</time>
      </trkpt>
      <trkpt lat="47.30963" lon="-2.17313">
        <ele>2.54</ele>
        <time>2020-05-25T15:58:26Z</time>
      </trkpt>
      <trkpt lat="47.30967" lon="-2.17311">
        <ele>2.06</ele>
        <time>2020-05-25T15:58:27Z</time>
      </trkpt>
      <trkpt lat="47.30971" lon="-2.17312">
        <ele>2.06</ele>
        <time>2020-05-25T15:58:28Z</time>
      </trkpt>
      <trkpt lat="47.30975" lon="-2.17317">
        <ele>2.06</ele>
        <time>2020-05-25T15:58:29Z</time>
      </trkpt>
      <trkpt lat="47.30979" lon="-2.17325">
        <ele>1.58</ele>
        <time>2020-05-25T15:58:30Z</time>
      </trkpt>
      <trkpt lat="47.30982" lon="-2.17334">
        <ele>1.58</ele>
        <time>2020-05-25T15:58:31Z</time>
      </trkpt>
      <trkpt lat="47.30987" lon="-2.17345">
        <ele>1.58</ele>
        <time>2020-05-25T15:58:32Z</time>
      </trkpt>
      <trkpt lat="47.30994" lon="-2.17356">
        <ele>1.58</ele>
        <time>2020-05-25T15:58:33Z</time>
      </trkpt>
      <trkpt lat="47.31063" lon="-2.17462">
        <ele>0.62</ele>
        <time>2020-05-25T15:58:42Z</time>
      </trkpt>
      <trkpt lat="47.31068" lon="-2.17467">
        <ele>0.62</ele>
        <time>2020-05-25T15:58:43Z</time>
      </trkpt>
      <trkpt lat="47.31073" lon="-2.17469">
        <ele>0.62</ele>
        <time>2020-05-25T15:58:44Z</time>
      </trkpt>
      <trkpt lat="47.31075" lon="-2.1747">
        <ele>0.62</ele>
        <time>2020-05-25T15:58:45Z</time>
      </trkpt>
      <trkpt lat="47.31076" lon="-2.1747">
        <ele>0.62</ele>
        <time>2020-05-25T15:58:46Z</time>
      </trkpt>
      <trkpt lat="47.31079" lon="-2.1747">
        <ele>0.62</ele>
        <time>2020-05-25T15:58:47Z</time>
      </trkpt>
      <trkpt lat="47.31081" lon="-2.17468">
        <ele>0.14</ele>
        <time>2020-05-25T15:58:48Z</time>
      </trkpt>
      <trkpt lat="47.31086" lon="-2.17464">
        <ele>0.14</ele>
        <time>2020-05-25T15:58:49Z</time>
      </trkpt>
      <trkpt lat="47.3113" lon="-2.1741">
        <ele>0.62</ele>
        <time>2020-05-25T15:58:55Z</time>
      </trkpt>
      <trkpt lat="47.31254" lon="-2.17263">
        <ele>2.06</ele>
        <time>2020-05-25T15:59:06Z</time>
      </trkpt>
      <trkpt lat="47.31382" lon="-2.17113">
        <ele>3.5</ele>
        <time>2020-05-25T15:59:19Z</time>
      </trkpt>
      <trkpt lat="47.31497" lon="-2.16976">
        <ele>4.46</ele>
        <time>2020-05-25T15:59:33Z</time>
      </trkpt>
      <trkpt lat="47.31623" lon="-2.16822">
        <ele>5.91</ele>
        <time>2020-05-25T15:59:49Z</time>
      </trkpt>
      <trkpt lat="47.31727" lon="-2.16662">
        <ele>5.42</ele>
        <time>2020-05-25T16:00:04Z</time>
      </trkpt>
      <trkpt lat="47.31763" lon="-2.16498">
        <ele>5.42</ele>
        <time>2020-05-25T16:00:16Z</time>
      </trkpt>
      <trkpt lat="47.31769" lon="-2.16343">
        <ele>4.94</ele>
        <time>2020-05-25T16:00:28Z</time>
      </trkpt>
      <trkpt lat="47.31767" lon="-2.16332">
        <ele>4.94</ele>
        <time>2020-05-25T16:00:29Z</time>
      </trkpt>
      <trkpt lat="47.31764" lon="-2.16322">
        <ele>4.94</ele>
        <time>2020-05-25T16:00:30Z</time>
      </trkpt>
      <trkpt lat="47.31759" lon="-2.16312">
        <ele>4.46</ele>
        <time>2020-05-25T16:00:31Z</time>
      </trkpt>
      <trkpt lat="47.31755" lon="-2.16303">
        <ele>4.46</ele>
        <time>2020-05-25T16:00:32Z</time>
      </trkpt>
      <trkpt lat="47.31751" lon="-2.16293">
        <ele>4.46</ele>
        <time>2020-05-25T16:00:33Z</time>
      </trkpt>
      <trkpt lat="47.31749" lon="-2.16283">
        <ele>4.46</ele>
        <time>2020-05-25T16:00:34Z</time>
      </trkpt>
      <trkpt lat="47.31748" lon="-2.16273">
        <ele>4.46</ele>
        <time>2020-05-25T16:00:35Z</time>
      </trkpt>
      <trkpt lat="47.31748" lon="-2.16263">
        <ele>3.98</ele>
        <time>2020-05-25T16:00:36Z</time>
      </trkpt>
      <trkpt lat="47.3175" lon="-2.16254">
        <ele>3.98</ele>
        <time>2020-05-25T16:00:37Z</time>
      </trkpt>
      <trkpt lat="47.31754" lon="-2.16246">
        <ele>3.98</ele>
        <time>2020-05-25T16:00:38Z</time>
      </trkpt>
      <trkpt lat="47.31759" lon="-2.1624">
        <ele>3.98</ele>
        <time>2020-05-25T16:00:39Z</time>
      </trkpt>
      <trkpt lat="47.31765" lon="-2.16235">
        <ele>3.98</ele>
        <time>2020-05-25T16:00:40Z</time>
      </trkpt>
      <trkpt lat="47.31772" lon="-2.16232">
        <ele>3.98</ele>
        <time>2020-05-25T16:00:41Z</time>
      </trkpt>
      <trkpt lat="47.3178" lon="-2.16232">
        <ele>3.98</ele>
        <time>2020-05-25T16:00:42Z</time>
      </trkpt>
      <trkpt lat="47.31788" lon="-2.16234">
        <ele>3.98</ele>
        <time>2020-05-25T16:00:43Z</time>
      </trkpt>
      <trkpt lat="47.31795" lon="-2.16237">
        <ele>3.98</ele>
        <time>2020-05-25T16:00:44Z</time>
      </trkpt>
      <trkpt lat="47.3181" lon="-2.16242">
        <ele>3.98</ele>
        <time>2020-05-25T16:00:46Z</time>
      </trkpt>
      <trkpt lat="47.31818" lon="-2.16243">
        <ele>3.98</ele>
        <time>2020-05-25T16:00:47Z</time>
      </trkpt>
      <trkpt lat="47.31827" lon="-2.16242">
        <ele>3.98</ele>
        <time>2020-05-25T16:00:48Z</time>
      </trkpt>
      <trkpt lat="47.31836" lon="-2.1624">
        <ele>4.46</ele>
        <time>2020-05-25T16:00:49Z</time>
      </trkpt>
      <trkpt lat="47.31845" lon="-2.16237">
        <ele>4.46</ele>
        <time>2020-05-25T16:00:50Z</time>
      </trkpt>
      <trkpt lat="47.31946" lon="-2.16231">
        <ele>6.87</ele>
        <time>2020-05-25T16:01:00Z</time>
      </trkpt>
      <trkpt lat="47.32024" lon="-2.16294">
        <ele>9.27</ele>
        <time>2020-05-25T16:01:09Z</time>
      </trkpt>
      <trkpt lat="47.32143" lon="-2.16447">
        <ele>9.75</ele>
        <time>2020-05-25T16:01:24Z</time>
      </trkpt>
      <trkpt lat="47.32199" lon="-2.16485">
        <ele>7.83</ele>
        <time>2020-05-25T16:01:31Z</time>
      </trkpt>
      <trkpt lat="47.32205" lon="-2.16486">
        <ele>7.35</ele>
        <time>2020-05-25T16:01:32Z</time>
      </trkpt>
      <trkpt lat="47.32212" lon="-2.16484">
        <ele>6.87</ele>
        <time>2020-05-25T16:01:33Z</time>
      </trkpt>
      <trkpt lat="47.32218" lon="-2.1648">
        <ele>6.39</ele>
        <time>2020-05-25T16:01:34Z</time>
      </trkpt>
      <trkpt lat="47.32224" lon="-2.16473">
        <ele>6.39</ele>
        <time>2020-05-25T16:01:35Z</time>
      </trkpt>
      <trkpt lat="47.32229" lon="-2.16463">
        <ele>5.91</ele>
        <time>2020-05-25T16:01:36Z</time>
      </trkpt>
      <trkpt lat="47.32234" lon="-2.16451">
        <ele>5.91</ele>
        <time>2020-05-25T16:01:37Z</time>
      </trkpt>
      <trkpt lat="47.32239" lon="-2.16437">
        <ele>5.91</ele>
        <time>2020-05-25T16:01:38Z</time>
      </trkpt>
      <trkpt lat="47.32295" lon="-2.16332">
        <ele>4.94</ele>
        <time>2020-05-25T16:01:44Z</time>
      </trkpt>
      <trkpt lat="47.32388" lon="-2.16159">
        <ele>3.98</ele>
        <time>2020-05-25T16:01:53Z</time>
      </trkpt>
      <trkpt lat="47.32394" lon="-2.16138">
        <ele>3.98</ele>
        <time>2020-05-25T16:01:54Z</time>
      </trkpt>
      <trkpt lat="47.32398" lon="-2.16116">
        <ele>3.98</ele>
        <time>2020-05-25T16:01:55Z</time>
      </trkpt>
      <trkpt lat="47.32399" lon="-2.16092">
        <ele>3.5</ele>
        <time>2020-05-25T16:01:56Z</time>
      </trkpt>
      <trkpt lat="47.324" lon="-2.16067">
        <ele>3.5</ele>
        <time>2020-05-25T16:01:57Z</time>
      </trkpt>
      <trkpt lat="47.32399" lon="-2.16042">
        <ele>3.5</ele>
        <time>2020-05-25T16:01:58Z</time>
      </trkpt>
      <trkpt lat="47.32396" lon="-2.15777">
        <ele>2.54</ele>
        <time>2020-05-25T16:02:07Z</time>
      </trkpt>
      <trkpt lat="47.32422" lon="-2.1533">
        <ele>3.02</ele>
        <time>2020-05-25T16:02:21Z</time>
      </trkpt>
      <trkpt lat="47.32491" lon="-2.14838">
        <ele>3.98</ele>
        <time>2020-05-25T16:02:37Z</time>
      </trkpt>
      <trkpt lat="47.32562" lon="-2.14369">
        <ele>3.5</ele>
        <time>2020-05-25T16:02:52Z</time>
      </trkpt>
      <trkpt lat="47.32644" lon="-2.13928">
        <ele>8.31</ele>
        <time>2020-05-25T16:03:06Z</time>
      </trkpt>
      <trkpt lat="47.32775" lon="-2.13363">
        <ele>6.39</ele>
        <time>2020-05-25T16:03:24Z</time>
      </trkpt>
      <trkpt lat="47.32922" lon="-2.12739">
        <ele>3.02</ele>
        <time>2020-05-25T16:03:44Z</time>
      </trkpt>
      <trkpt lat="47.33035" lon="-2.1242">
        <ele>4.94</ele>
        <time>2020-05-25T16:03:55Z</time>
      </trkpt>
      <trkpt lat="47.33197" lon="-2.12107">
        <ele>4.94</ele>
        <time>2020-05-25T16:04:07Z</time>
      </trkpt>
      <trkpt lat="47.33467" lon="-2.11644">
        <ele>4.94</ele>
        <time>2020-05-25T16:04:25Z</time>
      </trkpt>
      <trkpt lat="47.33683" lon="-2.11273">
        <ele>2.06</ele>
        <time>2020-05-25T16:04:39Z</time>
      </trkpt>
      <trkpt lat="47.33846" lon="-2.1098">
        <ele>3.02</ele>
        <time>2020-05-25T16:04:50Z</time>
      </trkpt>
      <trkpt lat="47.33958" lon="-2.10716">
        <ele>6.39</ele>
        <time>2020-05-25T16:05:00Z</time>
      </trkpt>
      <trkpt lat="47.34051" lon="-2.10393">
        <ele>8.79</ele>
        <time>2020-05-25T16:05:11Z</time>
      </trkpt>
      <trkpt lat="47.34221" lon="-2.09642">
        <ele>11.19</ele>
        <time>2020-05-25T16:05:35Z</time>
      </trkpt>
      <trkpt lat="47.34309" lon="-2.09241">
        <ele>11.67</ele>
        <time>2020-05-25T16:05:47Z</time>
      </trkpt>
      <trkpt lat="47.34466" lon="-2.08556">
        <ele>12.15</ele>
        <time>2020-05-25T16:06:09Z</time>
      </trkpt>
      <trkpt lat="47.34628" lon="-2.07909">
        <ele>11.19</ele>
        <time>2020-05-25T16:06:30Z</time>
      </trkpt>
      <trkpt lat="47.34776" lon="-2.07324">
        <ele>9.27</ele>
        <time>2020-05-25T16:06:49Z</time>
      </trkpt>
      <trkpt lat="47.34938" lon="-2.06748">
        <ele>6.39</ele>
        <time>2020-05-25T16:07:08Z</time>
      </trkpt>
      <trkpt lat="47.35107" lon="-2.06361">
        <ele>4.46</ele>
        <time>2020-05-25T16:07:22Z</time>
      </trkpt>
      <trkpt lat="47.3534" lon="-2.05841">
        <ele>1.1</ele>
        <time>2020-05-25T16:07:41Z</time>
      </trkpt>
      <trkpt lat="47.35572" lon="-2.05318">
        <ele>-0.34</ele>
        <time>2020-05-25T16:08:00Z</time>
      </trkpt>
      <trkpt lat="47.35778" lon="-2.0485">
        <ele>2.54</ele>
        <time>2020-05-25T16:08:17Z</time>
      </trkpt>
      <trkpt lat="47.35856" lon="-2.04587">
        <ele>2.54</ele>
        <time>2020-05-25T16:08:26Z</time>
      </trkpt>
      <trkpt lat="47.35895" lon="-2.04266">
        <ele>3.02</ele>
        <time>2020-05-25T16:08:36Z</time>
      </trkpt>
      <trkpt lat="47.35887" lon="-2.03871">
        <ele>4.94</ele>
        <time>2020-05-25T16:08:48Z</time>
      </trkpt>
      <trkpt lat="47.35826" lon="-2.0329">
        <ele>3.5</ele>
        <time>2020-05-25T16:09:06Z</time>
      </trkpt>
      <trkpt lat="47.35778" lon="-2.02835">
        <ele>6.87</ele>
        <time>2020-05-25T16:09:20Z</time>
      </trkpt>
      <trkpt lat="47.35739" lon="-2.02345">
        <ele>3.02</ele>
        <time>2020-05-25T16:09:35Z</time>
      </trkpt>
      <trkpt lat="47.35733" lon="-2.0182">
        <ele>1.1</ele>
        <time>2020-05-25T16:09:51Z</time>
      </trkpt>
      <trkpt lat="47.35743" lon="-2.0113">
        <ele>1.1</ele>
        <time>2020-05-25T16:10:12Z</time>
      </trkpt>
      <trkpt lat="47.35742" lon="-2.00669">
        <ele>3.02</ele>
        <time>2020-05-25T16:10:26Z</time>
      </trkpt>
      <trkpt lat="47.35705" lon="-2.00049">
        <ele>3.98</ele>
        <time>2020-05-25T16:10:45Z</time>
      </trkpt>
      <trkpt lat="47.35639" lon="-1.99433">
        <ele>3.98</ele>
        <time>2020-05-25T16:11:04Z</time>
      </trkpt>
      <trkpt lat="47.35626" lon="-1.99006">
        <ele>1.58</ele>
        <time>2020-05-25T16:11:17Z</time>
      </trkpt>
      <trkpt lat="47.3567" lon="-1.98518">
        <ele>1.58</ele>
        <time>2020-05-25T16:11:32Z</time>
      </trkpt>
      <trkpt lat="47.3576" lon="-1.97976">
        <ele>3.02</ele>
        <time>2020-05-25T16:11:49Z</time>
      </trkpt>
      <trkpt lat="47.35869" lon="-1.97373">
        <ele>5.91</ele>
        <time>2020-05-25T16:12:08Z</time>
      </trkpt>
      <trkpt lat="47.3597" lon="-1.96841">
        <ele>8.79</ele>
        <time>2020-05-25T16:12:25Z</time>
      </trkpt>
      <trkpt lat="47.36027" lon="-1.96618">
        <ele>10.71</ele>
        <time>2020-05-25T16:12:34Z</time>
      </trkpt>
      <trkpt lat="47.36058" lon="-1.96488">
        <ele>12.15</ele>
        <time>2020-05-25T16:12:42Z</time>
      </trkpt>
      <trkpt lat="47.36099" lon="-1.96323">
        <ele>15.52</ele>
        <time>2020-05-25T16:12:54Z</time>
      </trkpt>
      <trkpt lat="47.36169" lon="-1.96038">
        <ele>21.29</ele>
        <time>2020-05-25T16:13:09Z</time>
      </trkpt>
      <trkpt lat="47.3622" lon="-1.95829">
        <ele>23.69</ele>
        <time>2020-05-25T16:13:21Z</time>
      </trkpt>
      <trkpt lat="47.36248" lon="-1.95745">
        <ele>21.29</ele>
        <time>2020-05-25T16:13:28Z</time>
      </trkpt>
      <trkpt lat="47.36248" lon="-1.95738">
        <ele>20.81</ele>
        <time>2020-05-25T16:13:29Z</time>
      </trkpt>
      <trkpt lat="47.36248" lon="-1.95732">
        <ele>20.32</ele>
        <time>2020-05-25T16:13:30Z</time>
      </trkpt>
      <trkpt lat="47.36247" lon="-1.95727">
        <ele>20.32</ele>
        <time>2020-05-25T16:13:31Z</time>
      </trkpt>
      <trkpt lat="47.36246" lon="-1.95722">
        <ele>20.32</ele>
        <time>2020-05-25T16:13:32Z</time>
      </trkpt>
      <trkpt lat="47.36242" lon="-1.95716">
        <ele>20.32</ele>
        <time>2020-05-25T16:13:33Z</time>
      </trkpt>
      <trkpt lat="47.36238" lon="-1.9571">
        <ele>20.32</ele>
        <time>2020-05-25T16:13:34Z</time>
      </trkpt>
      <trkpt lat="47.36233" lon="-1.95703">
        <ele>20.32</ele>
        <time>2020-05-25T16:13:35Z</time>
      </trkpt>
      <trkpt lat="47.36228" lon="-1.95697">
        <ele>20.32</ele>
        <time>2020-05-25T16:13:36Z</time>
      </trkpt>
      <trkpt lat="47.36221" lon="-1.95692">
        <ele>20.32</ele>
        <time>2020-05-25T16:13:37Z</time>
      </trkpt>
      <trkpt lat="47.36214" lon="-1.95687">
        <ele>19.84</ele>
        <time>2020-05-25T16:13:38Z</time>
      </trkpt>
      <trkpt lat="47.36123" lon="-1.95614">
        <ele>16.96</ele>
        <time>2020-05-25T16:13:50Z</time>
      </trkpt>
      <trkpt lat="47.36087" lon="-1.9558">
        <ele>16.48</ele>
        <time>2020-05-25T16:13:57Z</time>
      </trkpt>
      <trkpt lat="47.36083" lon="-1.95577">
        <ele>16.48</ele>
        <time>2020-05-25T16:13:58Z</time>
      </trkpt>
      <trkpt lat="47.36079" lon="-1.95573">
        <ele>16.48</ele>
        <time>2020-05-25T16:13:59Z</time>
      </trkpt>
      <trkpt lat="47.36075" lon="-1.95568">
        <ele>16.48</ele>
        <time>2020-05-25T16:14:00Z</time>
      </trkpt>
      <trkpt lat="47.36073" lon="-1.95562">
        <ele>16.48</ele>
        <time>2020-05-25T16:14:01Z</time>
      </trkpt>
      <trkpt lat="47.36072" lon="-1.95555">
        <ele>16.96</ele>
        <time>2020-05-25T16:14:02Z</time>
      </trkpt>
      <trkpt lat="47.36071" lon="-1.95547">
        <ele>16.96</ele>
        <time>2020-05-25T16:14:03Z</time>
      </trkpt>
      <trkpt lat="47.36071" lon="-1.95538">
        <ele>16.96</ele>
        <time>2020-05-25T16:14:04Z</time>
      </trkpt>
      <trkpt lat="47.3607" lon="-1.9553">
        <ele>16.96</ele>
        <time>2020-05-25T16:14:05Z</time>
      </trkpt>
      <trkpt lat="47.36068" lon="-1.95521">
        <ele>16.96</ele>
        <time>2020-05-25T16:14:06Z</time>
      </trkpt>
      <trkpt lat="47.36065" lon="-1.95512">
        <ele>16.96</ele>
        <time>2020-05-25T16:14:07Z</time>
      </trkpt>
      <trkpt lat="47.36062" lon="-1.95503">
        <ele>17.44</ele>
        <time>2020-05-25T16:14:08Z</time>
      </trkpt>
      <trkpt lat="47.36008" lon="-1.95375">
        <ele>17.92</ele>
        <time>2020-05-25T16:14:20Z</time>
      </trkpt>
      <trkpt lat="47.35924" lon="-1.95177">
        <ele>17.92</ele>
        <time>2020-05-25T16:14:34Z</time>
      </trkpt>
      <trkpt lat="47.35878" lon="-1.95063">
        <ele>16.96</ele>
        <time>2020-05-25T16:14:44Z</time>
      </trkpt>
      <trkpt lat="47.35869" lon="-1.95057">
        <ele>16.96</ele>
        <time>2020-05-25T16:14:47Z</time>
      </trkpt>
      <trkpt lat="47.35865" lon="-1.95055">
        <ele>16.96</ele>
        <time>2020-05-25T16:14:48Z</time>
      </trkpt>
      <trkpt lat="47.3586" lon="-1.95052">
        <ele>16.96</ele>
        <time>2020-05-25T16:14:49Z</time>
      </trkpt>
      <trkpt lat="47.35858" lon="-1.95047">
        <ele>17.44</ele>
        <time>2020-05-25T16:14:50Z</time>
      </trkpt>
      <trkpt lat="47.35858" lon="-1.9504">
        <ele>17.44</ele>
        <time>2020-05-25T16:14:51Z</time>
      </trkpt>
      <trkpt lat="47.3586" lon="-1.95032">
        <ele>17.44</ele>
        <time>2020-05-25T16:14:52Z</time>
      </trkpt>
      <trkpt lat="47.3586" lon="-1.95024">
        <ele>17.44</ele>
        <time>2020-05-25T16:14:53Z</time>
      </trkpt>
      <trkpt lat="47.35859" lon="-1.95015">
        <ele>17.44</ele>
        <time>2020-05-25T16:14:54Z</time>
      </trkpt>
      <trkpt lat="47.35856" lon="-1.95007">
        <ele>17.44</ele>
        <time>2020-05-25T16:14:55Z</time>
      </trkpt>
      <trkpt lat="47.35853" lon="-1.94998">
        <ele>17.44</ele>
        <time>2020-05-25T16:14:56Z</time>
      </trkpt>
      <trkpt lat="47.35816" lon="-1.94903">
        <ele>17.92</ele>
        <time>2020-05-25T16:15:03Z</time>
      </trkpt>
      <trkpt lat="47.35776" lon="-1.94729">
        <ele>21.29</ele>
        <time>2020-05-25T16:15:13Z</time>
      </trkpt>
      <trkpt lat="47.35772" lon="-1.94711">
        <ele>21.77</ele>
        <time>2020-05-25T16:15:14Z</time>
      </trkpt>
      <trkpt lat="47.35766" lon="-1.94694">
        <ele>21.77</ele>
        <time>2020-05-25T16:15:15Z</time>
      </trkpt>
      <trkpt lat="47.35759" lon="-1.94678">
        <ele>22.25</ele>
        <time>2020-05-25T16:15:16Z</time>
      </trkpt>
      <trkpt lat="47.35751" lon="-1.94663">
        <ele>22.25</ele>
        <time>2020-05-25T16:15:17Z</time>
      </trkpt>
      <trkpt lat="47.35743" lon="-1.94649">
        <ele>22.25</ele>
        <time>2020-05-25T16:15:18Z</time>
      </trkpt>
      <trkpt lat="47.35733" lon="-1.94636">
        <ele>22.73</ele>
        <time>2020-05-25T16:15:19Z</time>
      </trkpt>
      <trkpt lat="47.35723" lon="-1.94625">
        <ele>22.73</ele>
        <time>2020-05-25T16:15:20Z</time>
      </trkpt>
      <trkpt lat="47.35713" lon="-1.94613">
        <ele>23.21</ele>
        <time>2020-05-25T16:15:21Z</time>
      </trkpt>
      <trkpt lat="47.35626" lon="-1.94477">
        <ele>22.73</ele>
        <time>2020-05-25T16:15:31Z</time>
      </trkpt>
      <trkpt lat="47.3548" lon="-1.94173">
        <ele>20.81</ele>
        <time>2020-05-25T16:15:51Z</time>
      </trkpt>
      <trkpt lat="47.35437" lon="-1.93999">
        <ele>22.25</ele>
        <time>2020-05-25T16:16:01Z</time>
      </trkpt>
      <trkpt lat="47.35385" lon="-1.93768">
        <ele>23.21</ele>
        <time>2020-05-25T16:16:15Z</time>
      </trkpt>
      <trkpt lat="47.3533" lon="-1.93649">
        <ele>20.81</ele>
        <time>2020-05-25T16:16:26Z</time>
      </trkpt>
      <trkpt lat="47.35289" lon="-1.93578">
        <ele>17.44</ele>
        <time>2020-05-25T16:16:37Z</time>
      </trkpt>
      <trkpt lat="47.3521" lon="-1.93439">
        <ele>12.63</ele>
        <time>2020-05-25T16:16:52Z</time>
      </trkpt>
      <trkpt lat="47.35178" lon="-1.93376">
        <ele>10.71</ele>
        <time>2020-05-25T16:17:02Z</time>
      </trkpt>
      <trkpt lat="47.35119" lon="-1.93257">
        <ele>9.75</ele>
        <time>2020-05-25T16:17:10Z</time>
      </trkpt>
      <trkpt lat="47.34979" lon="-1.9296">
        <ele>18.4</ele>
        <time>2020-05-25T16:17:26Z</time>
      </trkpt>
      <trkpt lat="47.34907" lon="-1.92786">
        <ele>21.77</ele>
        <time>2020-05-25T16:17:36Z</time>
      </trkpt>
      <trkpt lat="47.34891" lon="-1.92752">
        <ele>21.77</ele>
        <time>2020-05-25T16:17:40Z</time>
      </trkpt>
      <trkpt lat="47.34888" lon="-1.9275">
        <ele>21.29</ele>
        <time>2020-05-25T16:17:41Z</time>
      </trkpt>
      <trkpt lat="47.34886" lon="-1.9275">
        <ele>21.29</ele>
        <time>2020-05-25T16:17:42Z</time>
      </trkpt>
      <trkpt lat="47.34883" lon="-1.92751">
        <ele>20.81</ele>
        <time>2020-05-25T16:17:43Z</time>
      </trkpt>
      <trkpt lat="47.34881" lon="-1.92752">
        <ele>20.81</ele>
        <time>2020-05-25T16:17:44Z</time>
      </trkpt>
      <trkpt lat="47.34878" lon="-1.92755">
        <ele>20.81</ele>
        <time>2020-05-25T16:17:45Z</time>
      </trkpt>
      <trkpt lat="47.34875" lon="-1.92758">
        <ele>20.81</ele>
        <time>2020-05-25T16:17:46Z</time>
      </trkpt>
      <trkpt lat="47.34832" lon="-1.928">
        <ele>19.84</ele>
        <time>2020-05-25T16:17:52Z</time>
      </trkpt>
      <trkpt lat="47.34811" lon="-1.92813">
        <ele>19.36</ele>
        <time>2020-05-25T16:17:54Z</time>
      </trkpt>
      <trkpt lat="47.348" lon="-1.92816">
        <ele>18.88</ele>
        <time>2020-05-25T16:17:55Z</time>
      </trkpt>
      <trkpt lat="47.34788" lon="-1.92815">
        <ele>18.88</ele>
        <time>2020-05-25T16:17:56Z</time>
      </trkpt>
      <trkpt lat="47.34777" lon="-1.9281">
        <ele>18.4</ele>
        <time>2020-05-25T16:17:57Z</time>
      </trkpt>
      <trkpt lat="47.34765" lon="-1.92802">
        <ele>17.92</ele>
        <time>2020-05-25T16:17:58Z</time>
      </trkpt>
      <trkpt lat="47.34754" lon="-1.92793">
        <ele>17.44</ele>
        <time>2020-05-25T16:17:59Z</time>
      </trkpt>
      <trkpt lat="47.34742" lon="-1.92784">
        <ele>16.96</ele>
        <time>2020-05-25T16:18:00Z</time>
      </trkpt>
      <trkpt lat="47.34603" lon="-1.92648">
        <ele>10.71</ele>
        <time>2020-05-25T16:18:11Z</time>
      </trkpt>
      <trkpt lat="47.34508" lon="-1.9252">
        <ele>6.39</ele>
        <time>2020-05-25T16:18:20Z</time>
      </trkpt>
      <trkpt lat="47.34471" lon="-1.92488">
        <ele>5.42</ele>
        <time>2020-05-25T16:18:23Z</time>
      </trkpt>
      <trkpt lat="47.34459" lon="-1.92475">
        <ele>4.94</ele>
        <time>2020-05-25T16:18:24Z</time>
      </trkpt>
      <trkpt lat="47.34381" lon="-1.92343">
        <ele>3.5</ele>
        <time>2020-05-25T16:18:32Z</time>
      </trkpt>
      <trkpt lat="47.34307" lon="-1.92243">
        <ele>2.06</ele>
        <time>2020-05-25T16:18:39Z</time>
      </trkpt>
      <trkpt lat="47.34299" lon="-1.92226">
        <ele>2.06</ele>
        <time>2020-05-25T16:18:40Z</time>
      </trkpt>
      <trkpt lat="47.34293" lon="-1.92209">
        <ele>1.58</ele>
        <time>2020-05-25T16:18:41Z</time>
      </trkpt>
      <trkpt lat="47.34259" lon="-1.92119">
        <ele>1.58</ele>
        <time>2020-05-25T16:18:46Z</time>
      </trkpt>
      <trkpt lat="47.34248" lon="-1.92103">
        <ele>1.58</ele>
        <time>2020-05-25T16:18:47Z</time>
      </trkpt>
      <trkpt lat="47.3413" lon="-1.91972">
        <ele>1.58</ele>
        <time>2020-05-25T16:18:57Z</time>
      </trkpt>
      <trkpt lat="47.34118" lon="-1.91963">
        <ele>1.58</ele>
        <time>2020-05-25T16:18:58Z</time>
      </trkpt>
      <trkpt lat="47.34105" lon="-1.91956">
        <ele>1.58</ele>
        <time>2020-05-25T16:18:59Z</time>
      </trkpt>
      <trkpt lat="47.33977" lon="-1.91901">
        <ele>3.02</ele>
        <time>2020-05-25T16:19:09Z</time>
      </trkpt>
      <trkpt lat="47.33944" lon="-1.91894">
        <ele>3.5</ele>
        <time>2020-05-25T16:19:12Z</time>
      </trkpt>
      <trkpt lat="47.33933" lon="-1.91895">
        <ele>3.5</ele>
        <time>2020-05-25T16:19:13Z</time>
      </trkpt>
      <trkpt lat="47.33922" lon="-1.91898">
        <ele>3.98</ele>
        <time>2020-05-25T16:19:14Z</time>
      </trkpt>
      <trkpt lat="47.33816" lon="-1.91956">
        <ele>3.5</ele>
        <time>2020-05-25T16:19:23Z</time>
      </trkpt>
      <trkpt lat="47.33746" lon="-1.91988">
        <ele>3.5</ele>
        <time>2020-05-25T16:19:31Z</time>
      </trkpt>
      <trkpt lat="47.33742" lon="-1.91993">
        <ele>3.5</ele>
        <time>2020-05-25T16:19:32Z</time>
      </trkpt>
      <trkpt lat="47.3374" lon="-1.91998">
        <ele>3.02</ele>
        <time>2020-05-25T16:19:33Z</time>
      </trkpt>
      <trkpt lat="47.33702" lon="-1.92089">
        <ele>3.02</ele>
        <time>2020-05-25T16:19:45Z</time>
      </trkpt>
      <trkpt lat="47.33697" lon="-1.92093">
        <ele>3.02</ele>
        <time>2020-05-25T16:19:46Z</time>
      </trkpt>
      <trkpt lat="47.33692" lon="-1.92096">
        <ele>3.02</ele>
        <time>2020-05-25T16:19:47Z</time>
      </trkpt>
      <trkpt lat="47.33686" lon="-1.92098">
        <ele>3.5</ele>
        <time>2020-05-25T16:19:48Z</time>
      </trkpt>
      <trkpt lat="47.33681" lon="-1.921">
        <ele>3.98</ele>
        <time>2020-05-25T16:19:49Z</time>
      </trkpt>
      <trkpt lat="47.33667" lon="-1.92108">
        <ele>4.46</ele>
        <time>2020-05-25T16:19:52Z</time>
      </trkpt>
      <trkpt lat="47.33663" lon="-1.92112">
        <ele>4.46</ele>
        <time>2020-05-25T16:19:53Z</time>
      </trkpt>
      <trkpt lat="47.3366" lon="-1.92117">
        <ele>4.94</ele>
        <time>2020-05-25T16:19:54Z</time>
      </trkpt>
      <trkpt lat="47.33657" lon="-1.92123">
        <ele>4.94</ele>
        <time>2020-05-25T16:19:55Z</time>
      </trkpt>
      <trkpt lat="47.33655" lon="-1.9213">
        <ele>4.94</ele>
        <time>2020-05-25T16:19:56Z</time>
      </trkpt>
      <trkpt lat="47.33653" lon="-1.92137">
        <ele>4.94</ele>
        <time>2020-05-25T16:19:57Z</time>
      </trkpt>
      <trkpt lat="47.33642" lon="-1.92174">
        <ele>4.94</ele>
        <time>2020-05-25T16:20:04Z</time>
      </trkpt>
      <trkpt lat="47.3364" lon="-1.92175">
        <ele>4.94</ele>
        <time>2020-05-25T16:20:05Z</time>
      </trkpt>
      <trkpt lat="47.33638" lon="-1.92175">
        <ele>3.98</ele>
        <time>2020-05-25T16:20:19Z</time>
      </trkpt>
      <trkpt lat="47.33636" lon="-1.92177">
        <ele>3.5</ele>
        <time>2020-05-25T16:20:46Z</time>
      </trkpt>
      <trkpt lat="47.3362" lon="-1.92193">
        <ele>3.5</ele>
        <time>2020-05-25T16:21:01Z</time>
      </trkpt>
      <trkpt lat="47.3362" lon="-1.92193">
        <ele>3.98</ele>
        <time>2020-05-25T16:21:25Z</time>
      </trkpt>
      <trkpt lat="47.33621" lon="-1.92195">
        <ele>1.58</ele>
        <time>2020-05-25T16:21:58Z</time>
      </trkpt>
      <trkpt lat="47.33621" lon="-1.92195">
        <ele>0.14</ele>
        <time>2020-05-25T16:22:32Z</time>
      </trkpt>
      <trkpt lat="47.33621" lon="-1.92196">
        <ele>-1.3</ele>
        <time>2020-05-25T16:23:03Z</time>
      </trkpt>
      <trkpt lat="47.33621" lon="-1.92197">
        <ele>-2.27</ele>
        <time>2020-05-25T16:23:37Z</time>
      </trkpt>
      <trkpt lat="47.33623" lon="-1.92199">
        <ele>-3.23</ele>
        <time>2020-05-25T16:24:13Z</time>
      </trkpt>
      <trkpt lat="47.33624" lon="-1.92199">
        <ele>-4.19</ele>
        <time>2020-05-25T16:24:49Z</time>
      </trkpt>
      <trkpt lat="47.33624" lon="-1.92197">
        <ele>-5.15</ele>
        <time>2020-05-25T16:25:31Z</time>
      </trkpt>
      <trkpt lat="47.33625" lon="-1.92197">
        <ele>-6.59</ele>
        <time>2020-05-25T16:26:04Z</time>
      </trkpt>
      <trkpt lat="47.33625" lon="-1.92197">
        <ele>-7.07</ele>
        <time>2020-05-25T16:26:40Z</time>
      </trkpt>
      <trkpt lat="47.33625" lon="-1.92198">
        <ele>-6.11</ele>
        <time>2020-05-25T16:27:13Z</time>
      </trkpt>
      <trkpt lat="47.33625" lon="-1.92198">
        <ele>-6.11</ele>
        <time>2020-05-25T16:27:51Z</time>
      </trkpt>
      <trkpt lat="47.33624" lon="-1.92197">
        <ele>-6.59</ele>
        <time>2020-05-25T16:28:27Z</time>
      </trkpt>
      <trkpt lat="47.33625" lon="-1.92196">
        <ele>-6.59</ele>
        <time>2020-05-25T16:29:02Z</time>
      </trkpt>
      <trkpt lat="47.33626" lon="-1.92196">
        <ele>-6.11</ele>
        <time>2020-05-25T16:29:31Z</time>
      </trkpt>
      <trkpt lat="47.33626" lon="-1.92195">
        <ele>-6.11</ele>
        <time>2020-05-25T16:30:03Z</time>
      </trkpt>
      <trkpt lat="47.33625" lon="-1.92196">
        <ele>-6.11</ele>
        <time>2020-05-25T16:30:35Z</time>
      </trkpt>
      <trkpt lat="47.33625" lon="-1.92197">
        <ele>-5.15</ele>
        <time>2020-05-25T16:31:08Z</time>
      </trkpt>
      <trkpt lat="47.33625" lon="-1.92196">
        <ele>-4.19</ele>
        <time>2020-05-25T16:31:41Z</time>
      </trkpt>
      <trkpt lat="47.33624" lon="-1.92196">
        <ele>-3.71</ele>
        <time>2020-05-25T16:32:10Z</time>
      </trkpt>
      <trkpt lat="47.33623" lon="-1.92196">
        <ele>-3.71</ele>
        <time>2020-05-25T16:32:48Z</time>
      </trkpt>
      <trkpt lat="47.33622" lon="-1.92196">
        <ele>-3.23</ele>
        <time>2020-05-25T16:33:19Z</time>
      </trkpt>
      <trkpt lat="47.33622" lon="-1.92197">
        <ele>-1.79</ele>
        <time>2020-05-25T16:33:49Z</time>
      </trkpt>
      <trkpt lat="47.33622" lon="-1.92197">
        <ele>-1.79</ele>
        <time>2020-05-25T16:34:21Z</time>
      </trkpt>
      <trkpt lat="47.33622" lon="-1.92197">
        <ele>-1.3</ele>
        <time>2020-05-25T16:34:53Z</time>
      </trkpt>
      <trkpt lat="47.33622" lon="-1.92197">
        <ele>-0.34</ele>
        <time>2020-05-25T16:35:26Z</time>
      </trkpt>
      <trkpt lat="47.33621" lon="-1.92197">
        <ele>-0.34</ele>
        <time>2020-05-25T16:36:03Z</time>
      </trkpt>
      <trkpt lat="47.33621" lon="-1.92197">
        <ele>-0.34</ele>
        <time>2020-05-25T16:36:34Z</time>
      </trkpt>
      <trkpt lat="47.3362" lon="-1.92196">
        <ele>-1.3</ele>
        <time>2020-05-25T16:37:06Z</time>
      </trkpt>
      <trkpt lat="47.3362" lon="-1.92196">
        <ele>-2.27</ele>
        <time>2020-05-25T16:37:39Z</time>
      </trkpt>
      <trkpt lat="47.3362" lon="-1.92196">
        <ele>-2.75</ele>
        <time>2020-05-25T16:38:11Z</time>
      </trkpt>
      <trkpt lat="47.3362" lon="-1.92196">
        <ele>-3.23</ele>
        <time>2020-05-25T16:38:44Z</time>
      </trkpt>
      <trkpt lat="47.3362" lon="-1.92196">
        <ele>-3.71</ele>
        <time>2020-05-25T16:39:16Z</time>
      </trkpt>
      <trkpt lat="47.3362" lon="-1.92197">
        <ele>-3.71</ele>
        <time>2020-05-25T16:39:48Z</time>
      </trkpt>
      <trkpt lat="47.33621" lon="-1.92193">
        <ele>-3.23</ele>
        <time>2020-05-25T16:40:17Z</time>
      </trkpt>
      <trkpt lat="47.33621" lon="-1.92195">
        <ele>-3.23</ele>
        <time>2020-05-25T16:40:27Z</time>
      </trkpt>
      <trkpt lat="47.33622" lon="-1.92198">
        <ele>-3.23</ele>
        <time>2020-05-25T16:40:29Z</time>
      </trkpt>
      <trkpt lat="47.33624" lon="-1.92198">
        <ele>-1.79</ele>
        <time>2020-05-25T16:40:43Z</time>
      </trkpt>
      <trkpt lat="47.33626" lon="-1.92201">
        <ele>-0.34</ele>
        <time>2020-05-25T16:40:58Z</time>
      </trkpt>
      <trkpt lat="47.3363" lon="-1.9221">
        <ele>0.62</ele>
        <time>2020-05-25T16:41:13Z</time>
      </trkpt>
      <trkpt lat="47.3363" lon="-1.92212">
        <ele>1.58</ele>
        <time>2020-05-25T16:41:35Z</time>
      </trkpt>
      <trkpt lat="47.33631" lon="-1.92212">
        <ele>2.54</ele>
        <time>2020-05-25T16:42:07Z</time>
      </trkpt>
      <trkpt lat="47.3363" lon="-1.92212">
        <ele>2.06</ele>
        <time>2020-05-25T16:42:37Z</time>
      </trkpt>
      <trkpt lat="47.3363" lon="-1.92211">
        <ele>1.1</ele>
        <time>2020-05-25T16:43:09Z</time>
      </trkpt>
      <trkpt lat="47.3363" lon="-1.92212">
        <ele>1.1</ele>
        <time>2020-05-25T16:43:48Z</time>
      </trkpt>
      <trkpt lat="47.33629" lon="-1.92212">
        <ele>0.14</ele>
        <time>2020-05-25T16:44:17Z</time>
      </trkpt>
      <trkpt lat="47.33628" lon="-1.92213">
        <ele>-0.34</ele>
        <time>2020-05-25T16:44:56Z</time>
      </trkpt>
      <trkpt lat="47.33628" lon="-1.92214">
        <ele>-0.82</ele>
        <time>2020-05-25T16:45:26Z</time>
      </trkpt>
      <trkpt lat="47.33628" lon="-1.92214">
        <ele>-0.34</ele>
        <time>2020-05-25T16:45:58Z</time>
      </trkpt>
      <trkpt lat="47.33629" lon="-1.92214">
        <ele>-0.34</ele>
        <time>2020-05-25T16:46:28Z</time>
      </trkpt>
      <trkpt lat="47.3363" lon="-1.92215">
        <ele>0.14</ele>
        <time>2020-05-25T16:46:58Z</time>
      </trkpt>
      <trkpt lat="47.3363" lon="-1.92215">
        <ele>-0.34</ele>
        <time>2020-05-25T16:47:27Z</time>
      </trkpt>
      <trkpt lat="47.3363" lon="-1.92215">
        <ele>-0.34</ele>
        <time>2020-05-25T16:48:00Z</time>
      </trkpt>
      <trkpt lat="47.3363" lon="-1.92215">
        <ele>0.14</ele>
        <time>2020-05-25T16:48:37Z</time>
      </trkpt>
      <trkpt lat="47.3363" lon="-1.92214">
        <ele>1.58</ele>
        <time>2020-05-25T16:49:10Z</time>
      </trkpt>
      <trkpt lat="47.3363" lon="-1.92214">
        <ele>2.06</ele>
        <time>2020-05-25T16:49:44Z</time>
      </trkpt>
      <trkpt lat="47.3363" lon="-1.92214">
        <ele>2.06</ele>
        <time>2020-05-25T16:50:12Z</time>
      </trkpt>
      <trkpt lat="47.3363" lon="-1.92214">
        <ele>2.54</ele>
        <time>2020-05-25T16:50:31Z</time>
      </trkpt>
      <trkpt lat="47.33631" lon="-1.92214">
        <ele>2.54</ele>
        <time>2020-05-25T16:50:51Z</time>
      </trkpt>
      <trkpt lat="47.3363" lon="-1.92213">
        <ele>3.02</ele>
        <time>2020-05-25T16:50:54Z</time>
      </trkpt>
      <trkpt lat="47.3363" lon="-1.92213">
        <ele>2.06</ele>
        <time>2020-05-25T16:51:03Z</time>
      </trkpt>
      <trkpt lat="47.33631" lon="-1.92217">
        <ele>0.62</ele>
        <time>2020-05-25T16:51:15Z</time>
      </trkpt>
      <trkpt lat="47.33631" lon="-1.92218">
        <ele>0.62</ele>
        <time>2020-05-25T16:51:42Z</time>
      </trkpt>
      <trkpt lat="47.33631" lon="-1.92219">
        <ele>0.62</ele>
        <time>2020-05-25T16:52:10Z</time>
      </trkpt>
      <trkpt lat="47.33631" lon="-1.92219">
        <ele>0.14</ele>
        <time>2020-05-25T16:52:44Z</time>
      </trkpt>
      <trkpt lat="47.33631" lon="-1.92219">
        <ele>0.62</ele>
        <time>2020-05-25T16:53:12Z</time>
      </trkpt>
      <trkpt lat="47.33631" lon="-1.92219">
        <ele>1.1</ele>
        <time>2020-05-25T16:53:40Z</time>
      </trkpt>
      <trkpt lat="47.33631" lon="-1.92219">
        <ele>1.1</ele>
        <time>2020-05-25T16:53:58Z</time>
      </trkpt>
      <trkpt lat="47.33628" lon="-1.92213">
        <ele>2.06</ele>
        <time>2020-05-25T16:54:16Z</time>
      </trkpt>
      <trkpt lat="47.33626" lon="-1.92214">
        <ele>4.46</ele>
        <time>2020-05-25T16:54:32Z</time>
      </trkpt>
      <trkpt lat="47.33626" lon="-1.92221">
        <ele>6.87</ele>
        <time>2020-05-25T16:54:50Z</time>
      </trkpt>
      <trkpt lat="47.3363" lon="-1.92218">
        <ele>10.23</ele>
        <time>2020-05-25T16:55:07Z</time>
      </trkpt>
      <trkpt lat="47.33624" lon="-1.92213">
        <ele>13.6</ele>
        <time>2020-05-25T16:55:27Z</time>
      </trkpt>
      <trkpt lat="47.33626" lon="-1.92216">
        <ele>17.44</ele>
        <time>2020-05-25T16:55:46Z</time>
      </trkpt>
      <trkpt lat="47.33625" lon="-1.92217">
        <ele>21.77</ele>
        <time>2020-05-25T16:56:01Z</time>
      </trkpt>
    </trkseg>
  </trk>
  <trk>
    <name><![CDATA[Tracé actuel: 28 MAI 2020 15:02]]></name>
    <trkseg>
      <trkpt lat="47.23137" lon="-2.18139">
        <ele>76.56</ele>
        <time>2020-05-28T13:02:53Z</time>
      </trkpt>
      <trkpt lat="47.23138" lon="-2.18144">
        <ele>78.97</ele>
        <time>2020-05-28T13:03:13Z</time>
      </trkpt>
      <trkpt lat="47.23159" lon="-2.18121">
        <ele>55.89</ele>
        <time>2020-05-28T13:03:19Z</time>
      </trkpt>
      <trkpt lat="47.23191" lon="-2.18098">
        <ele>24.17</ele>
        <time>2020-05-28T13:03:35Z</time>
      </trkpt>
      <trkpt lat="47.23175" lon="-2.18117">
        <ele>19.36</ele>
        <time>2020-05-28T13:03:49Z</time>
      </trkpt>
      <trkpt lat="47.23161" lon="-2.18164">
        <ele>2.06</ele>
        <time>2020-05-28T13:04:04Z</time>
      </trkpt>
      <trkpt lat="47.23161" lon="-2.1822">
        <ele>0.14</ele>
        <time>2020-05-28T13:04:15Z</time>
      </trkpt>
      <trkpt lat="47.23148" lon="-2.18219">
        <ele>0.14</ele>
        <time>2020-05-28T13:04:21Z</time>
      </trkpt>
      <trkpt lat="47.23117" lon="-2.18169">
        <ele>-0.82</ele>
        <time>2020-05-28T13:04:37Z</time>
      </trkpt>
      <trkpt lat="47.2311" lon="-2.18163">
        <ele>-0.82</ele>
        <time>2020-05-28T13:04:50Z</time>
      </trkpt>
      <trkpt lat="47.23085" lon="-2.18152">
        <ele>-1.79</ele>
        <time>2020-05-28T13:05:01Z</time>
      </trkpt>
      <trkpt lat="47.23054" lon="-2.18155">
        <ele>-2.27</ele>
        <time>2020-05-28T13:05:10Z</time>
      </trkpt>
      <trkpt lat="47.23045" lon="-2.18159">
        <ele>-2.27</ele>
        <time>2020-05-28T13:05:12Z</time>
      </trkpt>
      <trkpt lat="47.22979" lon="-2.18178">
        <ele>-3.23</ele>
        <time>2020-05-28T13:05:25Z</time>
      </trkpt>
      <trkpt lat="47.22901" lon="-2.18165">
        <ele>-4.19</ele>
        <time>2020-05-28T13:05:34Z</time>
      </trkpt>
      <trkpt lat="47.2279" lon="-2.18109">
        <ele>-3.71</ele>
        <time>2020-05-28T13:05:46Z</time>
      </trkpt>
      <trkpt lat="47.22756" lon="-2.1806">
        <ele>-3.23</ele>
        <time>2020-05-28T13:05:51Z</time>
      </trkpt>
      <trkpt lat="47.22715" lon="-2.17986">
        <ele>-2.75</ele>
        <time>2020-05-28T13:05:59Z</time>
      </trkpt>
      <trkpt lat="47.22641" lon="-2.17937">
        <ele>-3.23</ele>
        <time>2020-05-28T13:06:08Z</time>
      </trkpt>
      <trkpt lat="47.22539" lon="-2.17872">
        <ele>-3.23</ele>
        <time>2020-05-28T13:06:19Z</time>
      </trkpt>
      <trkpt lat="47.22509" lon="-2.17811">
        <ele>-3.23</ele>
        <time>2020-05-28T13:06:25Z</time>
      </trkpt>
      <trkpt lat="47.2246" lon="-2.17753">
        <ele>-2.75</ele>
        <time>2020-05-28T13:06:33Z</time>
      </trkpt>
      <trkpt lat="47.22439" lon="-2.17729">
        <ele>-2.27</ele>
        <time>2020-05-28T13:06:37Z</time>
      </trkpt>
      <trkpt lat="47.22373" lon="-2.17659">
        <ele>-3.71</ele>
        <time>2020-05-28T13:06:47Z</time>
      </trkpt>
      <trkpt lat="47.22275" lon="-2.17575">
        <ele>-3.23</ele>
        <time>2020-05-28T13:06:59Z</time>
      </trkpt>
      <trkpt lat="47.22188" lon="-2.17494">
        <ele>-2.75</ele>
        <time>2020-05-28T13:07:10Z</time>
      </trkpt>
      <trkpt lat="47.22117" lon="-2.17416">
        <ele>-2.27</ele>
        <time>2020-05-28T13:07:18Z</time>
      </trkpt>
      <trkpt lat="47.22073" lon="-2.17389">
        <ele>-2.27</ele>
        <time>2020-05-28T13:07:23Z</time>
      </trkpt>
      <trkpt lat="47.22048" lon="-2.17374">
        <ele>-1.79</ele>
        <time>2020-05-28T13:07:26Z</time>
      </trkpt>
      <trkpt lat="47.22008" lon="-2.17359">
        <ele>-1.79</ele>
        <time>2020-05-28T13:07:31Z</time>
      </trkpt>
      <trkpt lat="47.21984" lon="-2.17386">
        <ele>-2.27</ele>
        <time>2020-05-28T13:07:36Z</time>
      </trkpt>
      <trkpt lat="47.22013" lon="-2.17418">
        <ele>-2.27</ele>
        <time>2020-05-28T13:07:41Z</time>
      </trkpt>
      <trkpt lat="47.22105" lon="-2.17509">
        <ele>-2.27</ele>
        <time>2020-05-28T13:07:54Z</time>
      </trkpt>
      <trkpt lat="47.22204" lon="-2.17586">
        <ele>-2.75</ele>
        <time>2020-05-28T13:08:07Z</time>
      </trkpt>
      <trkpt lat="47.22227" lon="-2.17609">
        <ele>-2.75</ele>
        <time>2020-05-28T13:08:10Z</time>
      </trkpt>
      <trkpt lat="47.22313" lon="-2.17654">
        <ele>-3.23</ele>
        <time>2020-05-28T13:08:19Z</time>
      </trkpt>
      <trkpt lat="47.22331" lon="-2.17701">
        <ele>-3.23</ele>
        <time>2020-05-28T13:08:24Z</time>
      </trkpt>
      <trkpt lat="47.22307" lon="-2.17697">
        <ele>-3.23</ele>
        <time>2020-05-28T13:08:28Z</time>
      </trkpt>
      <trkpt lat="47.2228" lon="-2.17664">
        <ele>-3.23</ele>
        <time>2020-05-28T13:08:34Z</time>
      </trkpt>
      <trkpt lat="47.22193" lon="-2.17581">
        <ele>-2.75</ele>
        <time>2020-05-28T13:08:52Z</time>
      </trkpt>
      <trkpt lat="47.22142" lon="-2.17548">
        <ele>-2.75</ele>
        <time>2020-05-28T13:09:01Z</time>
      </trkpt>
      <trkpt lat="47.2206" lon="-2.17472">
        <ele>-3.23</ele>
        <time>2020-05-28T13:09:13Z</time>
      </trkpt>
      <trkpt lat="47.22001" lon="-2.17407">
        <ele>-3.23</ele>
        <time>2020-05-28T13:09:20Z</time>
      </trkpt>
      <trkpt lat="47.21925" lon="-2.17271">
        <ele>-3.23</ele>
        <time>2020-05-28T13:09:30Z</time>
      </trkpt>
      <trkpt lat="47.21911" lon="-2.17239">
        <ele>-2.75</ele>
        <time>2020-05-28T13:09:32Z</time>
      </trkpt>
      <trkpt lat="47.21855" lon="-2.1716">
        <ele>-2.27</ele>
        <time>2020-05-28T13:09:39Z</time>
      </trkpt>
      <trkpt lat="47.21799" lon="-2.17091">
        <ele>-1.79</ele>
        <time>2020-05-28T13:09:47Z</time>
      </trkpt>
      <trkpt lat="47.21703" lon="-2.17006">
        <ele>-1.79</ele>
        <time>2020-05-28T13:09:59Z</time>
      </trkpt>
      <trkpt lat="47.21587" lon="-2.16918">
        <ele>-1.79</ele>
        <time>2020-05-28T13:10:11Z</time>
      </trkpt>
      <trkpt lat="47.21495" lon="-2.16862">
        <ele>-1.3</ele>
        <time>2020-05-28T13:10:21Z</time>
      </trkpt>
      <trkpt lat="47.21411" lon="-2.16793">
        <ele>-1.79</ele>
        <time>2020-05-28T13:10:31Z</time>
      </trkpt>
      <trkpt lat="47.21399" lon="-2.16742">
        <ele>-1.79</ele>
        <time>2020-05-28T13:10:36Z</time>
      </trkpt>
      <trkpt lat="47.21423" lon="-2.16753">
        <ele>-1.3</ele>
        <time>2020-05-28T13:10:41Z</time>
      </trkpt>
      <trkpt lat="47.21431" lon="-2.16794">
        <ele>-1.79</ele>
        <time>2020-05-28T13:10:46Z</time>
      </trkpt>
      <trkpt lat="47.21479" lon="-2.16903">
        <ele>-1.79</ele>
        <time>2020-05-28T13:11:00Z</time>
      </trkpt>
      <trkpt lat="47.21483" lon="-2.16912">
        <ele>-1.79</ele>
        <time>2020-05-28T13:11:01Z</time>
      </trkpt>
      <trkpt lat="47.21532" lon="-2.17001">
        <ele>-1.79</ele>
        <time>2020-05-28T13:11:10Z</time>
      </trkpt>
      <trkpt lat="47.21566" lon="-2.16997">
        <ele>-2.27</ele>
        <time>2020-05-28T13:11:15Z</time>
      </trkpt>
      <trkpt lat="47.21562" lon="-2.16977">
        <ele>-2.27</ele>
        <time>2020-05-28T13:11:18Z</time>
      </trkpt>
      <trkpt lat="47.215" lon="-2.16922">
        <ele>-1.79</ele>
        <time>2020-05-28T13:11:28Z</time>
      </trkpt>
      <trkpt lat="47.21475" lon="-2.16883">
        <ele>-2.27</ele>
        <time>2020-05-28T13:11:34Z</time>
      </trkpt>
      <trkpt lat="47.21489" lon="-2.16889">
        <ele>-2.27</ele>
        <time>2020-05-28T13:11:38Z</time>
      </trkpt>
      <trkpt lat="47.21501" lon="-2.16897">
        <ele>-2.27</ele>
        <time>2020-05-28T13:11:51Z</time>
      </trkpt>
      <trkpt lat="47.2151" lon="-2.16902">
        <ele>-3.23</ele>
        <time>2020-05-28T13:12:11Z</time>
      </trkpt>
      <trkpt lat="47.21528" lon="-2.16907">
        <ele>-3.23</ele>
        <time>2020-05-28T13:12:32Z</time>
      </trkpt>
      <trkpt lat="47.21543" lon="-2.16907">
        <ele>-2.75</ele>
        <time>2020-05-28T13:12:42Z</time>
      </trkpt>
      <trkpt lat="47.21559" lon="-2.16912">
        <ele>-2.75</ele>
        <time>2020-05-28T13:12:58Z</time>
      </trkpt>
      <trkpt lat="47.21594" lon="-2.16943">
        <ele>-2.75</ele>
        <time>2020-05-28T13:13:15Z</time>
      </trkpt>
      <trkpt lat="47.21657" lon="-2.16993">
        <ele>-2.75</ele>
        <time>2020-05-28T13:13:26Z</time>
      </trkpt>
      <trkpt lat="47.21702" lon="-2.17036">
        <ele>-2.75</ele>
        <time>2020-05-28T13:13:33Z</time>
      </trkpt>
      <trkpt lat="47.21767" lon="-2.17064">
        <ele>-2.75</ele>
        <time>2020-05-28T13:13:44Z</time>
      </trkpt>
      <trkpt lat="47.21778" lon="-2.17066">
        <ele>-2.75</ele>
        <time>2020-05-28T13:13:46Z</time>
      </trkpt>
      <trkpt lat="47.21832" lon="-2.17128">
        <ele>-2.27</ele>
        <time>2020-05-28T13:13:57Z</time>
      </trkpt>
      <trkpt lat="47.2192" lon="-2.17241">
        <ele>-2.75</ele>
        <time>2020-05-28T13:14:11Z</time>
      </trkpt>
      <trkpt lat="47.22002" lon="-2.17346">
        <ele>-3.23</ele>
        <time>2020-05-28T13:14:22Z</time>
      </trkpt>
      <trkpt lat="47.22012" lon="-2.17362">
        <ele>-3.23</ele>
        <time>2020-05-28T13:14:24Z</time>
      </trkpt>
      <trkpt lat="47.22102" lon="-2.17492">
        <ele>-4.19</ele>
        <time>2020-05-28T13:14:39Z</time>
      </trkpt>
      <trkpt lat="47.22144" lon="-2.17558">
        <ele>-4.67</ele>
        <time>2020-05-28T13:14:45Z</time>
      </trkpt>
      <trkpt lat="47.22178" lon="-2.17572">
        <ele>-4.67</ele>
        <time>2020-05-28T13:14:49Z</time>
      </trkpt>
      <trkpt lat="47.22275" lon="-2.17619">
        <ele>-3.71</ele>
        <time>2020-05-28T13:15:00Z</time>
      </trkpt>
      <trkpt lat="47.22294" lon="-2.17652">
        <ele>-4.19</ele>
        <time>2020-05-28T13:15:04Z</time>
      </trkpt>
      <trkpt lat="47.22277" lon="-2.17645">
        <ele>-5.15</ele>
        <time>2020-05-28T13:15:09Z</time>
      </trkpt>
      <trkpt lat="47.22231" lon="-2.17612">
        <ele>-5.63</ele>
        <time>2020-05-28T13:15:17Z</time>
      </trkpt>
      <trkpt lat="47.22133" lon="-2.17498">
        <ele>-4.67</ele>
        <time>2020-05-28T13:15:31Z</time>
      </trkpt>
      <trkpt lat="47.22035" lon="-2.17397">
        <ele>-4.19</ele>
        <time>2020-05-28T13:15:44Z</time>
      </trkpt>
      <trkpt lat="47.21975" lon="-2.17275">
        <ele>-3.23</ele>
        <time>2020-05-28T13:15:55Z</time>
      </trkpt>
      <trkpt lat="47.21967" lon="-2.17252">
        <ele>-3.23</ele>
        <time>2020-05-28T13:15:57Z</time>
      </trkpt>
      <trkpt lat="47.2198" lon="-2.17218">
        <ele>-2.75</ele>
        <time>2020-05-28T13:16:02Z</time>
      </trkpt>
      <trkpt lat="47.21991" lon="-2.17225">
        <ele>-2.75</ele>
        <time>2020-05-28T13:16:04Z</time>
      </trkpt>
      <trkpt lat="47.22027" lon="-2.17259">
        <ele>-2.75</ele>
        <time>2020-05-28T13:16:11Z</time>
      </trkpt>
      <trkpt lat="47.22118" lon="-2.17325">
        <ele>-2.75</ele>
        <time>2020-05-28T13:16:22Z</time>
      </trkpt>
      <trkpt lat="47.22209" lon="-2.17413">
        <ele>-2.27</ele>
        <time>2020-05-28T13:16:30Z</time>
      </trkpt>
      <trkpt lat="47.22269" lon="-2.17486">
        <ele>-2.27</ele>
        <time>2020-05-28T13:16:36Z</time>
      </trkpt>
      <trkpt lat="47.22334" lon="-2.17545">
        <ele>-2.27</ele>
        <time>2020-05-28T13:16:44Z</time>
      </trkpt>
      <trkpt lat="47.22367" lon="-2.17575">
        <ele>-2.27</ele>
        <time>2020-05-28T13:16:49Z</time>
      </trkpt>
      <trkpt lat="47.22426" lon="-2.17664">
        <ele>-2.75</ele>
        <time>2020-05-28T13:17:00Z</time>
      </trkpt>
      <trkpt lat="47.22452" lon="-2.17697">
        <ele>-3.23</ele>
        <time>2020-05-28T13:17:04Z</time>
      </trkpt>
      <trkpt lat="47.22528" lon="-2.17822">
        <ele>-3.71</ele>
        <time>2020-05-28T13:17:15Z</time>
      </trkpt>
      <trkpt lat="47.22638" lon="-2.17918">
        <ele>-3.71</ele>
        <time>2020-05-28T13:17:26Z</time>
      </trkpt>
      <trkpt lat="47.22696" lon="-2.17969">
        <ele>-4.19</ele>
        <time>2020-05-28T13:17:33Z</time>
      </trkpt>
      <trkpt lat="47.22752" lon="-2.17986">
        <ele>-4.19</ele>
        <time>2020-05-28T13:17:40Z</time>
      </trkpt>
      <trkpt lat="47.22758" lon="-2.17994">
        <ele>-4.19</ele>
        <time>2020-05-28T13:17:41Z</time>
      </trkpt>
      <trkpt lat="47.22851" lon="-2.18103">
        <ele>-4.19</ele>
        <time>2020-05-28T13:17:53Z</time>
      </trkpt>
      <trkpt lat="47.2286" lon="-2.18111">
        <ele>-4.19</ele>
        <time>2020-05-28T13:17:54Z</time>
      </trkpt>
      <trkpt lat="47.22892" lon="-2.18094">
        <ele>-3.71</ele>
        <time>2020-05-28T13:17:59Z</time>
      </trkpt>
      <trkpt lat="47.22883" lon="-2.18082">
        <ele>-3.71</ele>
        <time>2020-05-28T13:18:01Z</time>
      </trkpt>
      <trkpt lat="47.22796" lon="-2.18025">
        <ele>-3.71</ele>
        <time>2020-05-28T13:18:15Z</time>
      </trkpt>
      <trkpt lat="47.22779" lon="-2.18012">
        <ele>-3.71</ele>
        <time>2020-05-28T13:18:17Z</time>
      </trkpt>
      <trkpt lat="47.22674" lon="-2.1791">
        <ele>-3.71</ele>
        <time>2020-05-28T13:18:31Z</time>
      </trkpt>
      <trkpt lat="47.22626" lon="-2.17861">
        <ele>-3.71</ele>
        <time>2020-05-28T13:18:37Z</time>
      </trkpt>
      <trkpt lat="47.22576" lon="-2.1783">
        <ele>-4.19</ele>
        <time>2020-05-28T13:18:42Z</time>
      </trkpt>
      <trkpt lat="47.22477" lon="-2.17729">
        <ele>-4.19</ele>
        <time>2020-05-28T13:18:53Z</time>
      </trkpt>
      <trkpt lat="47.22381" lon="-2.17637">
        <ele>-4.19</ele>
        <time>2020-05-28T13:19:02Z</time>
      </trkpt>
      <trkpt lat="47.22327" lon="-2.17573">
        <ele>-3.71</ele>
        <time>2020-05-28T13:19:07Z</time>
      </trkpt>
      <trkpt lat="47.22273" lon="-2.17527">
        <ele>-3.23</ele>
        <time>2020-05-28T13:19:12Z</time>
      </trkpt>
      <trkpt lat="47.22171" lon="-2.17444">
        <ele>-3.23</ele>
        <time>2020-05-28T13:19:23Z</time>
      </trkpt>
      <trkpt lat="47.22163" lon="-2.17437">
        <ele>-2.75</ele>
        <time>2020-05-28T13:19:24Z</time>
      </trkpt>
      <trkpt lat="47.22059" lon="-2.17308">
        <ele>-2.75</ele>
        <time>2020-05-28T13:19:38Z</time>
      </trkpt>
      <trkpt lat="47.22039" lon="-2.17283">
        <ele>-2.75</ele>
        <time>2020-05-28T13:19:41Z</time>
      </trkpt>
      <trkpt lat="47.21905" lon="-2.17175">
        <ele>-2.75</ele>
        <time>2020-05-28T13:19:58Z</time>
      </trkpt>
      <trkpt lat="47.21815" lon="-2.17108">
        <ele>-2.75</ele>
        <time>2020-05-28T13:20:09Z</time>
      </trkpt>
      <trkpt lat="47.21806" lon="-2.17067">
        <ele>-2.75</ele>
        <time>2020-05-28T13:20:14Z</time>
      </trkpt>
      <trkpt lat="47.21829" lon="-2.17077">
        <ele>-2.27</ele>
        <time>2020-05-28T13:20:18Z</time>
      </trkpt>
      <trkpt lat="47.21842" lon="-2.17094">
        <ele>-2.27</ele>
        <time>2020-05-28T13:20:21Z</time>
      </trkpt>
      <trkpt lat="47.21918" lon="-2.17184">
        <ele>-2.27</ele>
        <time>2020-05-28T13:20:40Z</time>
      </trkpt>
      <trkpt lat="47.21926" lon="-2.17194">
        <ele>-2.27</ele>
        <time>2020-05-28T13:20:43Z</time>
      </trkpt>
      <trkpt lat="47.21956" lon="-2.17205">
        <ele>-2.27</ele>
        <time>2020-05-28T13:20:55Z</time>
      </trkpt>
      <trkpt lat="47.21995" lon="-2.17249">
        <ele>-2.27</ele>
        <time>2020-05-28T13:21:05Z</time>
      </trkpt>
      <trkpt lat="47.22058" lon="-2.17322">
        <ele>-2.75</ele>
        <time>2020-05-28T13:21:19Z</time>
      </trkpt>
      <trkpt lat="47.2213" lon="-2.17416">
        <ele>-2.75</ele>
        <time>2020-05-28T13:21:33Z</time>
      </trkpt>
      <trkpt lat="47.22233" lon="-2.17509">
        <ele>-2.27</ele>
        <time>2020-05-28T13:21:45Z</time>
      </trkpt>
      <trkpt lat="47.22328" lon="-2.17579">
        <ele>-2.27</ele>
        <time>2020-05-28T13:21:58Z</time>
      </trkpt>
      <trkpt lat="47.22343" lon="-2.17592">
        <ele>-2.27</ele>
        <time>2020-05-28T13:22:00Z</time>
      </trkpt>
      <trkpt lat="47.22365" lon="-2.1762">
        <ele>-2.27</ele>
        <time>2020-05-28T13:22:03Z</time>
      </trkpt>
      <trkpt lat="47.22421" lon="-2.17652">
        <ele>-2.27</ele>
        <time>2020-05-28T13:22:09Z</time>
      </trkpt>
      <trkpt lat="47.22528" lon="-2.17742">
        <ele>-2.27</ele>
        <time>2020-05-28T13:22:22Z</time>
      </trkpt>
      <trkpt lat="47.22623" lon="-2.17836">
        <ele>-2.27</ele>
        <time>2020-05-28T13:22:34Z</time>
      </trkpt>
      <trkpt lat="47.22741" lon="-2.17972">
        <ele>-2.75</ele>
        <time>2020-05-28T13:22:49Z</time>
      </trkpt>
      <trkpt lat="47.22856" lon="-2.18071">
        <ele>-2.75</ele>
        <time>2020-05-28T13:23:03Z</time>
      </trkpt>
      <trkpt lat="47.22956" lon="-2.18162">
        <ele>-2.75</ele>
        <time>2020-05-28T13:23:16Z</time>
      </trkpt>
      <trkpt lat="47.23011" lon="-2.18213">
        <ele>-2.75</ele>
        <time>2020-05-28T13:23:22Z</time>
      </trkpt>
      <trkpt lat="47.23053" lon="-2.18217">
        <ele>-2.75</ele>
        <time>2020-05-28T13:23:27Z</time>
      </trkpt>
      <trkpt lat="47.2312" lon="-2.18196">
        <ele>-2.27</ele>
        <time>2020-05-28T13:23:39Z</time>
      </trkpt>
      <trkpt lat="47.23128" lon="-2.18167">
        <ele>-1.79</ele>
        <time>2020-05-28T13:23:46Z</time>
      </trkpt>
      <trkpt lat="47.23126" lon="-2.18165">
        <ele>-1.79</ele>
        <time>2020-05-28T13:23:47Z</time>
      </trkpt>
      <trkpt lat="47.23069" lon="-2.1815">
        <ele>-1.79</ele>
        <time>2020-05-28T13:24:11Z</time>
      </trkpt>
      <trkpt lat="47.23039" lon="-2.18126">
        <ele>-1.79</ele>
        <time>2020-05-28T13:24:22Z</time>
      </trkpt>
      <trkpt lat="47.22974" lon="-2.18088">
        <ele>-2.27</ele>
        <time>2020-05-28T13:24:33Z</time>
      </trkpt>
      <trkpt lat="47.22937" lon="-2.18065">
        <ele>-1.79</ele>
        <time>2020-05-28T13:24:38Z</time>
      </trkpt>
      <trkpt lat="47.22845" lon="-2.17971">
        <ele>-0.82</ele>
        <time>2020-05-28T13:24:51Z</time>
      </trkpt>
      <trkpt lat="47.22747" lon="-2.17886">
        <ele>-0.34</ele>
        <time>2020-05-28T13:25:04Z</time>
      </trkpt>
      <trkpt lat="47.22605" lon="-2.17783">
        <ele>-0.34</ele>
        <time>2020-05-28T13:25:21Z</time>
      </trkpt>
      <trkpt lat="47.22557" lon="-2.17749">
        <ele>-0.34</ele>
        <time>2020-05-28T13:25:26Z</time>
      </trkpt>
      <trkpt lat="47.22518" lon="-2.17706">
        <ele>-0.34</ele>
        <time>2020-05-28T13:25:30Z</time>
      </trkpt>
      <trkpt lat="47.22408" lon="-2.1761">
        <ele>-0.34</ele>
        <time>2020-05-28T13:25:42Z</time>
      </trkpt>
      <trkpt lat="47.22275" lon="-2.17528">
        <ele>0.14</ele>
        <time>2020-05-28T13:25:55Z</time>
      </trkpt>
      <trkpt lat="47.22236" lon="-2.17497">
        <ele>0.14</ele>
        <time>2020-05-28T13:25:59Z</time>
      </trkpt>
      <trkpt lat="47.22195" lon="-2.17433">
        <ele>0.14</ele>
        <time>2020-05-28T13:26:05Z</time>
      </trkpt>
      <trkpt lat="47.22126" lon="-2.17369">
        <ele>0.14</ele>
        <time>2020-05-28T13:26:13Z</time>
      </trkpt>
      <trkpt lat="47.22083" lon="-2.1734">
        <ele>0.14</ele>
        <time>2020-05-28T13:26:18Z</time>
      </trkpt>
      <trkpt lat="47.21993" lon="-2.17268">
        <ele>0.62</ele>
        <time>2020-05-28T13:26:30Z</time>
      </trkpt>
      <trkpt lat="47.21873" lon="-2.17173">
        <ele>0.14</ele>
        <time>2020-05-28T13:26:45Z</time>
      </trkpt>
      <trkpt lat="47.21762" lon="-2.1706">
        <ele>0.14</ele>
        <time>2020-05-28T13:26:58Z</time>
      </trkpt>
      <trkpt lat="47.21728" lon="-2.17024">
        <ele>0.62</ele>
        <time>2020-05-28T13:27:02Z</time>
      </trkpt>
      <trkpt lat="47.21618" lon="-2.1694">
        <ele>1.1</ele>
        <time>2020-05-28T13:27:16Z</time>
      </trkpt>
      <trkpt lat="47.21508" lon="-2.16862">
        <ele>0.62</ele>
        <time>2020-05-28T13:27:30Z</time>
      </trkpt>
      <trkpt lat="47.21507" lon="-2.16827">
        <ele>1.1</ele>
        <time>2020-05-28T13:27:35Z</time>
      </trkpt>
      <trkpt lat="47.21518" lon="-2.16834">
        <ele>1.1</ele>
        <time>2020-05-28T13:27:37Z</time>
      </trkpt>
      <trkpt lat="47.21588" lon="-2.16894">
        <ele>0.62</ele>
        <time>2020-05-28T13:27:52Z</time>
      </trkpt>
      <trkpt lat="47.21596" lon="-2.169">
        <ele>0.62</ele>
        <time>2020-05-28T13:27:54Z</time>
      </trkpt>
      <trkpt lat="47.21627" lon="-2.16899">
        <ele>1.1</ele>
        <time>2020-05-28T13:28:03Z</time>
      </trkpt>
      <trkpt lat="47.21656" lon="-2.16924">
        <ele>0.62</ele>
        <time>2020-05-28T13:28:21Z</time>
      </trkpt>
      <trkpt lat="47.21711" lon="-2.16983">
        <ele>-0.34</ele>
        <time>2020-05-28T13:28:40Z</time>
      </trkpt>
      <trkpt lat="47.21749" lon="-2.17027">
        <ele>-0.34</ele>
        <time>2020-05-28T13:28:50Z</time>
      </trkpt>
      <trkpt lat="47.21828" lon="-2.17099">
        <ele>-0.34</ele>
        <time>2020-05-28T13:29:05Z</time>
      </trkpt>
      <trkpt lat="47.21907" lon="-2.17203">
        <ele>0.14</ele>
        <time>2020-05-28T13:29:21Z</time>
      </trkpt>
      <trkpt lat="47.21948" lon="-2.17241">
        <ele>0.14</ele>
        <time>2020-05-28T13:29:27Z</time>
      </trkpt>
      <trkpt lat="47.22048" lon="-2.17298">
        <ele>0.14</ele>
        <time>2020-05-28T13:29:39Z</time>
      </trkpt>
      <trkpt lat="47.22161" lon="-2.17402">
        <ele>0.14</ele>
        <time>2020-05-28T13:29:53Z</time>
      </trkpt>
      <trkpt lat="47.22264" lon="-2.17493">
        <ele>0.14</ele>
        <time>2020-05-28T13:30:07Z</time>
      </trkpt>
      <trkpt lat="47.22337" lon="-2.17559">
        <ele>0.14</ele>
        <time>2020-05-28T13:30:19Z</time>
      </trkpt>
      <trkpt lat="47.22355" lon="-2.1757">
        <ele>0.14</ele>
        <time>2020-05-28T13:30:22Z</time>
      </trkpt>
      <trkpt lat="47.22384" lon="-2.17594">
        <ele>0.14</ele>
        <time>2020-05-28T13:30:27Z</time>
      </trkpt>
      <trkpt lat="47.22446" lon="-2.17683">
        <ele>0.14</ele>
        <time>2020-05-28T13:30:37Z</time>
      </trkpt>
      <trkpt lat="47.22547" lon="-2.17791">
        <ele>-0.82</ele>
        <time>2020-05-28T13:30:48Z</time>
      </trkpt>
      <trkpt lat="47.22587" lon="-2.17819">
        <ele>-0.34</ele>
        <time>2020-05-28T13:30:52Z</time>
      </trkpt>
      <trkpt lat="47.22711" lon="-2.1795">
        <ele>-0.82</ele>
        <time>2020-05-28T13:31:07Z</time>
      </trkpt>
      <trkpt lat="47.22827" lon="-2.18098">
        <ele>-1.79</ele>
        <time>2020-05-28T13:31:22Z</time>
      </trkpt>
      <trkpt lat="47.22876" lon="-2.18155">
        <ele>-1.79</ele>
        <time>2020-05-28T13:31:28Z</time>
      </trkpt>
      <trkpt lat="47.2296" lon="-2.18202">
        <ele>-2.75</ele>
        <time>2020-05-28T13:31:37Z</time>
      </trkpt>
      <trkpt lat="47.23006" lon="-2.18194">
        <ele>-2.75</ele>
        <time>2020-05-28T13:31:44Z</time>
      </trkpt>
      <trkpt lat="47.23013" lon="-2.18171">
        <ele>-2.75</ele>
        <time>2020-05-28T13:31:49Z</time>
      </trkpt>
      <trkpt lat="47.2299" lon="-2.18159">
        <ele>-2.75</ele>
        <time>2020-05-28T13:32:01Z</time>
      </trkpt>
      <trkpt lat="47.22976" lon="-2.18149">
        <ele>-3.23</ele>
        <time>2020-05-28T13:32:24Z</time>
      </trkpt>
      <trkpt lat="47.22963" lon="-2.18146">
        <ele>-3.71</ele>
        <time>2020-05-28T13:32:42Z</time>
      </trkpt>
      <trkpt lat="47.2292" lon="-2.18123">
        <ele>-2.75</ele>
        <time>2020-05-28T13:33:03Z</time>
      </trkpt>
      <trkpt lat="47.22904" lon="-2.18112">
        <ele>-3.23</ele>
        <time>2020-05-28T13:33:20Z</time>
      </trkpt>
      <trkpt lat="47.2288" lon="-2.18096">
        <ele>-3.71</ele>
        <time>2020-05-28T13:33:34Z</time>
      </trkpt>
      <trkpt lat="47.22842" lon="-2.18073">
        <ele>-3.71</ele>
        <time>2020-05-28T13:33:53Z</time>
      </trkpt>
      <trkpt lat="47.22795" lon="-2.18038">
        <ele>-2.75</ele>
        <time>2020-05-28T13:34:11Z</time>
      </trkpt>
      <trkpt lat="47.22744" lon="-2.17998">
        <ele>-2.27</ele>
        <time>2020-05-28T13:34:31Z</time>
      </trkpt>
      <trkpt lat="47.22702" lon="-2.17958">
        <ele>-2.27</ele>
        <time>2020-05-28T13:34:53Z</time>
      </trkpt>
      <trkpt lat="47.22652" lon="-2.17927">
        <ele>-2.27</ele>
        <time>2020-05-28T13:35:09Z</time>
      </trkpt>
      <trkpt lat="47.22631" lon="-2.17886">
        <ele>-2.27</ele>
        <time>2020-05-28T13:35:17Z</time>
      </trkpt>
      <trkpt lat="47.2263" lon="-2.17865">
        <ele>-1.79</ele>
        <time>2020-05-28T13:35:29Z</time>
      </trkpt>
      <trkpt lat="47.22629" lon="-2.17865">
        <ele>-1.3</ele>
        <time>2020-05-28T13:36:03Z</time>
      </trkpt>
      <trkpt lat="47.22629" lon="-2.17865">
        <ele>-0.82</ele>
        <time>2020-05-28T13:36:31Z</time>
      </trkpt>
      <trkpt lat="47.22629" lon="-2.17865">
        <ele>-0.82</ele>
        <time>2020-05-28T13:37:08Z</time>
      </trkpt>
      <trkpt lat="47.22629" lon="-2.17865">
        <ele>-0.82</ele>
        <time>2020-05-28T13:37:34Z</time>
      </trkpt>
      <trkpt lat="47.22628" lon="-2.17862">
        <ele>-0.82</ele>
        <time>2020-05-28T13:38:02Z</time>
      </trkpt>
      <trkpt lat="47.22613" lon="-2.17827">
        <ele>-0.82</ele>
        <time>2020-05-28T13:38:19Z</time>
      </trkpt>
      <trkpt lat="47.22565" lon="-2.17768">
        <ele>-0.82</ele>
        <time>2020-05-28T13:38:40Z</time>
      </trkpt>
      <trkpt lat="47.22557" lon="-2.17761">
        <ele>-0.82</ele>
        <time>2020-05-28T13:38:43Z</time>
      </trkpt>
      <trkpt lat="47.22553" lon="-2.17779">
        <ele>-0.82</ele>
        <time>2020-05-28T13:38:50Z</time>
      </trkpt>
      <trkpt lat="47.22594" lon="-2.17797">
        <ele>-0.82</ele>
        <time>2020-05-28T13:39:09Z</time>
      </trkpt>
      <trkpt lat="47.22625" lon="-2.17802">
        <ele>0.14</ele>
        <time>2020-05-28T13:39:34Z</time>
      </trkpt>
      <trkpt lat="47.22634" lon="-2.17806">
        <ele>-0.82</ele>
        <time>2020-05-28T13:39:56Z</time>
      </trkpt>
      <trkpt lat="47.22677" lon="-2.17819">
        <ele>0.14</ele>
        <time>2020-05-28T13:40:22Z</time>
      </trkpt>
      <trkpt lat="47.22686" lon="-2.17823">
        <ele>0.14</ele>
        <time>2020-05-28T13:40:42Z</time>
      </trkpt>
      <trkpt lat="47.22687" lon="-2.17824">
        <ele>0.14</ele>
        <time>2020-05-28T13:41:17Z</time>
      </trkpt>
      <trkpt lat="47.22702" lon="-2.17837">
        <ele>0.62</ele>
        <time>2020-05-28T13:41:40Z</time>
      </trkpt>
      <trkpt lat="47.2274" lon="-2.17879">
        <ele>0.62</ele>
        <time>2020-05-28T13:41:59Z</time>
      </trkpt>
      <trkpt lat="47.22786" lon="-2.17919">
        <ele>0.62</ele>
        <time>2020-05-28T13:42:19Z</time>
      </trkpt>
      <trkpt lat="47.22851" lon="-2.17979">
        <ele>0.62</ele>
        <time>2020-05-28T13:42:49Z</time>
      </trkpt>
      <trkpt lat="47.22908" lon="-2.18034">
        <ele>1.1</ele>
        <time>2020-05-28T13:43:11Z</time>
      </trkpt>
      <trkpt lat="47.22952" lon="-2.1808">
        <ele>1.1</ele>
        <time>2020-05-28T13:43:27Z</time>
      </trkpt>
      <trkpt lat="47.22962" lon="-2.18104">
        <ele>0.62</ele>
        <time>2020-05-28T13:43:32Z</time>
      </trkpt>
      <trkpt lat="47.22965" lon="-2.18122">
        <ele>0.62</ele>
        <time>2020-05-28T13:43:36Z</time>
      </trkpt>
      <trkpt lat="47.22957" lon="-2.18129">
        <ele>0.14</ele>
        <time>2020-05-28T13:43:42Z</time>
      </trkpt>
      <trkpt lat="47.22925" lon="-2.1811">
        <ele>-0.82</ele>
        <time>2020-05-28T13:44:04Z</time>
      </trkpt>
      <trkpt lat="47.22876" lon="-2.18074">
        <ele>-0.34</ele>
        <time>2020-05-28T13:44:25Z</time>
      </trkpt>
      <trkpt lat="47.22812" lon="-2.18022">
        <ele>-0.34</ele>
        <time>2020-05-28T13:44:43Z</time>
      </trkpt>
      <trkpt lat="47.22748" lon="-2.17969">
        <ele>-0.34</ele>
        <time>2020-05-28T13:45:03Z</time>
      </trkpt>
      <trkpt lat="47.22681" lon="-2.17912">
        <ele>-0.82</ele>
        <time>2020-05-28T13:45:26Z</time>
      </trkpt>
      <trkpt lat="47.22655" lon="-2.17888">
        <ele>-0.82</ele>
        <time>2020-05-28T13:45:43Z</time>
      </trkpt>
      <trkpt lat="47.22637" lon="-2.17872">
        <ele>-1.79</ele>
        <time>2020-05-28T13:46:09Z</time>
      </trkpt>
      <trkpt lat="47.22634" lon="-2.17868">
        <ele>-1.79</ele>
        <time>2020-05-28T13:46:31Z</time>
      </trkpt>
      <trkpt lat="47.22633" lon="-2.17868">
        <ele>-1.79</ele>
        <time>2020-05-28T13:47:01Z</time>
      </trkpt>
      <trkpt lat="47.22623" lon="-2.17861">
        <ele>-1.79</ele>
        <time>2020-05-28T13:47:24Z</time>
      </trkpt>
      <trkpt lat="47.22582" lon="-2.17833">
        <ele>-1.79</ele>
        <time>2020-05-28T13:47:37Z</time>
      </trkpt>
      <trkpt lat="47.22566" lon="-2.17826">
        <ele>-1.79</ele>
        <time>2020-05-28T13:47:41Z</time>
      </trkpt>
      <trkpt lat="47.22503" lon="-2.17775">
        <ele>-2.27</ele>
        <time>2020-05-28T13:47:54Z</time>
      </trkpt>
      <trkpt lat="47.22454" lon="-2.17727">
        <ele>-2.27</ele>
        <time>2020-05-28T13:48:03Z</time>
      </trkpt>
      <trkpt lat="47.22412" lon="-2.17691">
        <ele>-2.27</ele>
        <time>2020-05-28T13:48:14Z</time>
      </trkpt>
      <trkpt lat="47.22413" lon="-2.1767">
        <ele>-2.27</ele>
        <time>2020-05-28T13:48:20Z</time>
      </trkpt>
      <trkpt lat="47.22421" lon="-2.17674">
        <ele>-2.27</ele>
        <time>2020-05-28T13:48:22Z</time>
      </trkpt>
      <trkpt lat="47.22446" lon="-2.17693">
        <ele>-1.79</ele>
        <time>2020-05-28T13:48:27Z</time>
      </trkpt>
      <trkpt lat="47.2247" lon="-2.17721">
        <ele>-1.79</ele>
        <time>2020-05-28T13:48:33Z</time>
      </trkpt>
      <trkpt lat="47.22552" lon="-2.17781">
        <ele>-0.82</ele>
        <time>2020-05-28T13:48:48Z</time>
      </trkpt>
      <trkpt lat="47.22617" lon="-2.17837">
        <ele>0.14</ele>
        <time>2020-05-28T13:49:01Z</time>
      </trkpt>
      <trkpt lat="47.22705" lon="-2.17905">
        <ele>0.14</ele>
        <time>2020-05-28T13:49:15Z</time>
      </trkpt>
      <trkpt lat="47.22737" lon="-2.17948">
        <ele>0.62</ele>
        <time>2020-05-28T13:49:21Z</time>
      </trkpt>
      <trkpt lat="47.22797" lon="-2.17982">
        <ele>0.62</ele>
        <time>2020-05-28T13:49:30Z</time>
      </trkpt>
      <trkpt lat="47.22813" lon="-2.17996">
        <ele>0.62</ele>
        <time>2020-05-28T13:49:34Z</time>
      </trkpt>
      <trkpt lat="47.22878" lon="-2.18064">
        <ele>0.62</ele>
        <time>2020-05-28T13:49:49Z</time>
      </trkpt>
      <trkpt lat="47.22935" lon="-2.18126">
        <ele>0.14</ele>
        <time>2020-05-28T13:50:05Z</time>
      </trkpt>
      <trkpt lat="47.22952" lon="-2.18141">
        <ele>-0.34</ele>
        <time>2020-05-28T13:50:08Z</time>
      </trkpt>
      <trkpt lat="47.23013" lon="-2.18178">
        <ele>-0.34</ele>
        <time>2020-05-28T13:50:17Z</time>
      </trkpt>
      <trkpt lat="47.23025" lon="-2.18183">
        <ele>0.14</ele>
        <time>2020-05-28T13:50:19Z</time>
      </trkpt>
      <trkpt lat="47.23083" lon="-2.18225">
        <ele>0.14</ele>
        <time>2020-05-28T13:50:30Z</time>
      </trkpt>
      <trkpt lat="47.2313" lon="-2.18229">
        <ele>0.62</ele>
        <time>2020-05-28T13:50:40Z</time>
      </trkpt>
      <trkpt lat="47.2318" lon="-2.18244">
        <ele>0.62</ele>
        <time>2020-05-28T13:50:53Z</time>
      </trkpt>
      <trkpt lat="47.23201" lon="-2.18259">
        <ele>0.62</ele>
        <time>2020-05-28T13:50:57Z</time>
      </trkpt>
      <trkpt lat="47.23209" lon="-2.18296">
        <ele>0.62</ele>
        <time>2020-05-28T13:51:03Z</time>
      </trkpt>
      <trkpt lat="47.23176" lon="-2.18298">
        <ele>0.14</ele>
        <time>2020-05-28T13:51:10Z</time>
      </trkpt>
      <trkpt lat="47.2312" lon="-2.18261">
        <ele>-0.82</ele>
        <time>2020-05-28T13:51:24Z</time>
      </trkpt>
      <trkpt lat="47.231" lon="-2.18233">
        <ele>-1.3</ele>
        <time>2020-05-28T13:51:37Z</time>
      </trkpt>
      <trkpt lat="47.23066" lon="-2.18205">
        <ele>-1.3</ele>
        <time>2020-05-28T13:52:00Z</time>
      </trkpt>
      <trkpt lat="47.2306" lon="-2.18202">
        <ele>-2.27</ele>
        <time>2020-05-28T13:52:22Z</time>
      </trkpt>
      <trkpt lat="47.2306" lon="-2.18201">
        <ele>-2.27</ele>
        <time>2020-05-28T13:52:56Z</time>
      </trkpt>
      <trkpt lat="47.23054" lon="-2.18197">
        <ele>-2.27</ele>
        <time>2020-05-28T13:53:19Z</time>
      </trkpt>
      <trkpt lat="47.2304" lon="-2.18191">
        <ele>-2.27</ele>
        <time>2020-05-28T13:53:33Z</time>
      </trkpt>
      <trkpt lat="47.23037" lon="-2.18193">
        <ele>-1.79</ele>
        <time>2020-05-28T13:53:39Z</time>
      </trkpt>
      <trkpt lat="47.23024" lon="-2.182">
        <ele>-2.27</ele>
        <time>2020-05-28T13:53:46Z</time>
      </trkpt>
      <trkpt lat="47.22992" lon="-2.1818">
        <ele>-2.27</ele>
        <time>2020-05-28T13:53:53Z</time>
      </trkpt>
      <trkpt lat="47.22979" lon="-2.18176">
        <ele>-2.75</ele>
        <time>2020-05-28T13:53:55Z</time>
      </trkpt>
      <trkpt lat="47.22888" lon="-2.18108">
        <ele>-2.27</ele>
        <time>2020-05-28T13:54:08Z</time>
      </trkpt>
      <trkpt lat="47.22803" lon="-2.18041">
        <ele>-1.79</ele>
        <time>2020-05-28T13:54:21Z</time>
      </trkpt>
      <trkpt lat="47.22714" lon="-2.17965">
        <ele>-1.79</ele>
        <time>2020-05-28T13:54:35Z</time>
      </trkpt>
      <trkpt lat="47.22666" lon="-2.17895">
        <ele>-2.27</ele>
        <time>2020-05-28T13:54:42Z</time>
      </trkpt>
      <trkpt lat="47.22555" lon="-2.17796">
        <ele>-2.27</ele>
        <time>2020-05-28T13:54:53Z</time>
      </trkpt>
      <trkpt lat="47.2243" lon="-2.17695">
        <ele>-2.75</ele>
        <time>2020-05-28T13:55:06Z</time>
      </trkpt>
      <trkpt lat="47.22305" lon="-2.17585">
        <ele>-2.75</ele>
        <time>2020-05-28T13:55:19Z</time>
      </trkpt>
      <trkpt lat="47.22273" lon="-2.17563">
        <ele>-2.75</ele>
        <time>2020-05-28T13:55:22Z</time>
      </trkpt>
      <trkpt lat="47.22147" lon="-2.17444">
        <ele>-2.27</ele>
        <time>2020-05-28T13:55:35Z</time>
      </trkpt>
      <trkpt lat="47.22046" lon="-2.17324">
        <ele>-1.79</ele>
        <time>2020-05-28T13:55:47Z</time>
      </trkpt>
      <trkpt lat="47.21911" lon="-2.17205">
        <ele>-1.3</ele>
        <time>2020-05-28T13:56:00Z</time>
      </trkpt>
      <trkpt lat="47.21901" lon="-2.17197">
        <ele>-1.3</ele>
        <time>2020-05-28T13:56:01Z</time>
      </trkpt>
      <trkpt lat="47.2186" lon="-2.17169">
        <ele>-1.3</ele>
        <time>2020-05-28T13:56:05Z</time>
      </trkpt>
      <trkpt lat="47.21807" lon="-2.17107">
        <ele>-1.3</ele>
        <time>2020-05-28T13:56:11Z</time>
      </trkpt>
      <trkpt lat="47.21741" lon="-2.17045">
        <ele>-0.82</ele>
        <time>2020-05-28T13:56:20Z</time>
      </trkpt>
      <trkpt lat="47.21711" lon="-2.17066">
        <ele>-1.79</ele>
        <time>2020-05-28T13:56:25Z</time>
      </trkpt>
      <trkpt lat="47.2172" lon="-2.17079">
        <ele>-3.23</ele>
        <time>2020-05-28T13:56:27Z</time>
      </trkpt>
      <trkpt lat="47.21733" lon="-2.17091">
        <ele>-3.71</ele>
        <time>2020-05-28T13:56:29Z</time>
      </trkpt>
      <trkpt lat="47.21742" lon="-2.17141">
        <ele>-4.67</ele>
        <time>2020-05-28T13:56:35Z</time>
      </trkpt>
      <trkpt lat="47.21748" lon="-2.1716">
        <ele>-4.67</ele>
        <time>2020-05-28T13:56:39Z</time>
      </trkpt>
      <trkpt lat="47.21752" lon="-2.17142">
        <ele>-4.67</ele>
        <time>2020-05-28T13:56:44Z</time>
      </trkpt>
      <trkpt lat="47.21743" lon="-2.17139">
        <ele>-4.19</ele>
        <time>2020-05-28T13:56:55Z</time>
      </trkpt>
      <trkpt lat="47.21741" lon="-2.17139">
        <ele>-4.19</ele>
        <time>2020-05-28T13:57:01Z</time>
      </trkpt>
      <trkpt lat="47.2173" lon="-2.17136">
        <ele>-4.19</ele>
        <time>2020-05-28T13:57:14Z</time>
      </trkpt>
      <trkpt lat="47.21695" lon="-2.17121">
        <ele>-4.19</ele>
        <time>2020-05-28T13:57:28Z</time>
      </trkpt>
      <trkpt lat="47.21662" lon="-2.17112">
        <ele>-4.19</ele>
        <time>2020-05-28T13:57:43Z</time>
      </trkpt>
      <trkpt lat="47.21649" lon="-2.17114">
        <ele>-3.71</ele>
        <time>2020-05-28T13:57:46Z</time>
      </trkpt>
      <trkpt lat="47.21622" lon="-2.17096">
        <ele>-3.71</ele>
        <time>2020-05-28T13:57:51Z</time>
      </trkpt>
      <trkpt lat="47.21615" lon="-2.17082">
        <ele>-3.71</ele>
        <time>2020-05-28T13:57:53Z</time>
      </trkpt>
      <trkpt lat="47.21598" lon="-2.17061">
        <ele>-3.23</ele>
        <time>2020-05-28T13:57:57Z</time>
      </trkpt>
      <trkpt lat="47.21545" lon="-2.17004">
        <ele>-3.23</ele>
        <time>2020-05-28T13:58:09Z</time>
      </trkpt>
      <trkpt lat="47.21507" lon="-2.16977">
        <ele>-3.23</ele>
        <time>2020-05-28T13:58:16Z</time>
      </trkpt>
      <trkpt lat="47.21484" lon="-2.16954">
        <ele>-3.23</ele>
        <time>2020-05-28T13:58:20Z</time>
      </trkpt>
      <trkpt lat="47.21468" lon="-2.16893">
        <ele>-3.71</ele>
        <time>2020-05-28T13:58:28Z</time>
      </trkpt>
      <trkpt lat="47.21493" lon="-2.16906">
        <ele>-3.23</ele>
        <time>2020-05-28T13:58:33Z</time>
      </trkpt>
      <trkpt lat="47.21546" lon="-2.16926">
        <ele>-3.23</ele>
        <time>2020-05-28T13:58:42Z</time>
      </trkpt>
      <trkpt lat="47.21608" lon="-2.16932">
        <ele>-2.27</ele>
        <time>2020-05-28T13:58:51Z</time>
      </trkpt>
      <trkpt lat="47.21694" lon="-2.16978">
        <ele>-0.82</ele>
        <time>2020-05-28T13:59:03Z</time>
      </trkpt>
      <trkpt lat="47.21735" lon="-2.17">
        <ele>-0.34</ele>
        <time>2020-05-28T13:59:09Z</time>
      </trkpt>
      <trkpt lat="47.21782" lon="-2.1705">
        <ele>-0.82</ele>
        <time>2020-05-28T13:59:16Z</time>
      </trkpt>
      <trkpt lat="47.21868" lon="-2.17178">
        <ele>-1.3</ele>
        <time>2020-05-28T13:59:27Z</time>
      </trkpt>
      <trkpt lat="47.21898" lon="-2.17215">
        <ele>-1.3</ele>
        <time>2020-05-28T13:59:30Z</time>
      </trkpt>
      <trkpt lat="47.21936" lon="-2.17266">
        <ele>-1.3</ele>
        <time>2020-05-28T13:59:34Z</time>
      </trkpt>
      <trkpt lat="47.22011" lon="-2.17403">
        <ele>-1.3</ele>
        <time>2020-05-28T13:59:44Z</time>
      </trkpt>
      <trkpt lat="47.22094" lon="-2.17513">
        <ele>-1.3</ele>
        <time>2020-05-28T13:59:53Z</time>
      </trkpt>
      <trkpt lat="47.22129" lon="-2.1752">
        <ele>-1.79</ele>
        <time>2020-05-28T13:59:57Z</time>
      </trkpt>
      <trkpt lat="47.22118" lon="-2.17493">
        <ele>-1.3</ele>
        <time>2020-05-28T14:00:01Z</time>
      </trkpt>
      <trkpt lat="47.22107" lon="-2.17483">
        <ele>-1.3</ele>
        <time>2020-05-28T14:00:03Z</time>
      </trkpt>
      <trkpt lat="47.22056" lon="-2.17425">
        <ele>-1.3</ele>
        <time>2020-05-28T14:00:13Z</time>
      </trkpt>
      <trkpt lat="47.22035" lon="-2.17408">
        <ele>-1.3</ele>
        <time>2020-05-28T14:00:17Z</time>
      </trkpt>
      <trkpt lat="47.22004" lon="-2.17381">
        <ele>-1.79</ele>
        <time>2020-05-28T14:00:22Z</time>
      </trkpt>
      <trkpt lat="47.21976" lon="-2.17335">
        <ele>-1.79</ele>
        <time>2020-05-28T14:00:27Z</time>
      </trkpt>
      <trkpt lat="47.21961" lon="-2.17306">
        <ele>-1.79</ele>
        <time>2020-05-28T14:00:30Z</time>
      </trkpt>
      <trkpt lat="47.2197" lon="-2.1728">
        <ele>-1.79</ele>
        <time>2020-05-28T14:00:35Z</time>
      </trkpt>
      <trkpt lat="47.21989" lon="-2.17301">
        <ele>-1.3</ele>
        <time>2020-05-28T14:00:39Z</time>
      </trkpt>
      <trkpt lat="47.22077" lon="-2.17342">
        <ele>-1.3</ele>
        <time>2020-05-28T14:00:51Z</time>
      </trkpt>
      <trkpt lat="47.22112" lon="-2.17365">
        <ele>-0.82</ele>
        <time>2020-05-28T14:00:55Z</time>
      </trkpt>
      <trkpt lat="47.22142" lon="-2.17398">
        <ele>-0.82</ele>
        <time>2020-05-28T14:00:59Z</time>
      </trkpt>
      <trkpt lat="47.22233" lon="-2.17474">
        <ele>0.14</ele>
        <time>2020-05-28T14:01:10Z</time>
      </trkpt>
      <trkpt lat="47.22303" lon="-2.17538">
        <ele>1.1</ele>
        <time>2020-05-28T14:01:20Z</time>
      </trkpt>
      <trkpt lat="47.22355" lon="-2.17564">
        <ele>1.58</ele>
        <time>2020-05-28T14:01:26Z</time>
      </trkpt>
      <trkpt lat="47.22472" lon="-2.1764">
        <ele>1.1</ele>
        <time>2020-05-28T14:01:38Z</time>
      </trkpt>
      <trkpt lat="47.22599" lon="-2.17723">
        <ele>1.58</ele>
        <time>2020-05-28T14:01:50Z</time>
      </trkpt>
      <trkpt lat="47.22696" lon="-2.1782">
        <ele>2.06</ele>
        <time>2020-05-28T14:02:02Z</time>
      </trkpt>
      <trkpt lat="47.22795" lon="-2.17923">
        <ele>1.58</ele>
        <time>2020-05-28T14:02:15Z</time>
      </trkpt>
      <trkpt lat="47.22917" lon="-2.1805">
        <ele>0.62</ele>
        <time>2020-05-28T14:02:30Z</time>
      </trkpt>
      <trkpt lat="47.22996" lon="-2.18102">
        <ele>0.14</ele>
        <time>2020-05-28T14:02:41Z</time>
      </trkpt>
      <trkpt lat="47.22999" lon="-2.18139">
        <ele>-0.34</ele>
        <time>2020-05-28T14:02:46Z</time>
      </trkpt>
      <trkpt lat="47.22976" lon="-2.18122">
        <ele>-0.34</ele>
        <time>2020-05-28T14:02:51Z</time>
      </trkpt>
      <trkpt lat="47.22946" lon="-2.18123">
        <ele>-0.82</ele>
        <time>2020-05-28T14:02:59Z</time>
      </trkpt>
      <trkpt lat="47.2294" lon="-2.1812">
        <ele>-0.82</ele>
        <time>2020-05-28T14:03:01Z</time>
      </trkpt>
      <trkpt lat="47.229" lon="-2.18075">
        <ele>-1.3</ele>
        <time>2020-05-28T14:03:18Z</time>
      </trkpt>
      <trkpt lat="47.22882" lon="-2.18054">
        <ele>-1.79</ele>
        <time>2020-05-28T14:03:32Z</time>
      </trkpt>
      <trkpt lat="47.22881" lon="-2.18054">
        <ele>-1.79</ele>
        <time>2020-05-28T14:03:44Z</time>
      </trkpt>
      <trkpt lat="47.22854" lon="-2.18051">
        <ele>-2.27</ele>
        <time>2020-05-28T14:03:58Z</time>
      </trkpt>
      <trkpt lat="47.22808" lon="-2.18026">
        <ele>-2.75</ele>
        <time>2020-05-28T14:04:14Z</time>
      </trkpt>
      <trkpt lat="47.22798" lon="-2.18043">
        <ele>-3.23</ele>
        <time>2020-05-28T14:04:19Z</time>
      </trkpt>
      <trkpt lat="47.22807" lon="-2.18049">
        <ele>-3.23</ele>
        <time>2020-05-28T14:04:21Z</time>
      </trkpt>
      <trkpt lat="47.22902" lon="-2.18107">
        <ele>-2.75</ele>
        <time>2020-05-28T14:04:39Z</time>
      </trkpt>
      <trkpt lat="47.22992" lon="-2.1816">
        <ele>-2.27</ele>
        <time>2020-05-28T14:04:50Z</time>
      </trkpt>
      <trkpt lat="47.2309" lon="-2.18211">
        <ele>-1.79</ele>
        <time>2020-05-28T14:05:02Z</time>
      </trkpt>
      <trkpt lat="47.23217" lon="-2.18284">
        <ele>-1.79</ele>
        <time>2020-05-28T14:05:16Z</time>
      </trkpt>
      <trkpt lat="47.23234" lon="-2.18293">
        <ele>-1.3</ele>
        <time>2020-05-28T14:05:18Z</time>
      </trkpt>
      <trkpt lat="47.23247" lon="-2.18325">
        <ele>-1.79</ele>
        <time>2020-05-28T14:05:24Z</time>
      </trkpt>
      <trkpt lat="47.23234" lon="-2.18315">
        <ele>-1.79</ele>
        <time>2020-05-28T14:05:28Z</time>
      </trkpt>
      <trkpt lat="47.23206" lon="-2.18299">
        <ele>-1.3</ele>
        <time>2020-05-28T14:05:36Z</time>
      </trkpt>
      <trkpt lat="47.23166" lon="-2.18253">
        <ele>-1.3</ele>
        <time>2020-05-28T14:05:50Z</time>
      </trkpt>
      <trkpt lat="47.23126" lon="-2.18236">
        <ele>-2.27</ele>
        <time>2020-05-28T14:06:09Z</time>
      </trkpt>
      <trkpt lat="47.23092" lon="-2.18222">
        <ele>-2.27</ele>
        <time>2020-05-28T14:06:28Z</time>
      </trkpt>
      <trkpt lat="47.23058" lon="-2.18217">
        <ele>-2.27</ele>
        <time>2020-05-28T14:06:54Z</time>
      </trkpt>
      <trkpt lat="47.22979" lon="-2.18188">
        <ele>-2.75</ele>
        <time>2020-05-28T14:07:19Z</time>
      </trkpt>
      <trkpt lat="47.22909" lon="-2.18144">
        <ele>-3.23</ele>
        <time>2020-05-28T14:07:34Z</time>
      </trkpt>
      <trkpt lat="47.22821" lon="-2.18084">
        <ele>-3.23</ele>
        <time>2020-05-28T14:07:51Z</time>
      </trkpt>
      <trkpt lat="47.22773" lon="-2.18015">
        <ele>-3.23</ele>
        <time>2020-05-28T14:08:01Z</time>
      </trkpt>
      <trkpt lat="47.22677" lon="-2.17904">
        <ele>-2.27</ele>
        <time>2020-05-28T14:08:16Z</time>
      </trkpt>
      <trkpt lat="47.2264" lon="-2.17863">
        <ele>-2.27</ele>
        <time>2020-05-28T14:08:20Z</time>
      </trkpt>
      <trkpt lat="47.22513" lon="-2.17749">
        <ele>-1.79</ele>
        <time>2020-05-28T14:08:32Z</time>
      </trkpt>
      <trkpt lat="47.22474" lon="-2.17709">
        <ele>-1.79</ele>
        <time>2020-05-28T14:08:36Z</time>
      </trkpt>
      <trkpt lat="47.22442" lon="-2.17684">
        <ele>-1.79</ele>
        <time>2020-05-28T14:08:39Z</time>
      </trkpt>
      <trkpt lat="47.2234" lon="-2.17613">
        <ele>-2.27</ele>
        <time>2020-05-28T14:08:48Z</time>
      </trkpt>
      <trkpt lat="47.22308" lon="-2.17579">
        <ele>-2.75</ele>
        <time>2020-05-28T14:08:51Z</time>
      </trkpt>
      <trkpt lat="47.22276" lon="-2.17553">
        <ele>-2.27</ele>
        <time>2020-05-28T14:08:54Z</time>
      </trkpt>
      <trkpt lat="47.2218" lon="-2.1748">
        <ele>-2.75</ele>
        <time>2020-05-28T14:09:05Z</time>
      </trkpt>
      <trkpt lat="47.22075" lon="-2.17362">
        <ele>-2.27</ele>
        <time>2020-05-28T14:09:20Z</time>
      </trkpt>
      <trkpt lat="47.21983" lon="-2.17235">
        <ele>-1.79</ele>
        <time>2020-05-28T14:09:33Z</time>
      </trkpt>
      <trkpt lat="47.21932" lon="-2.17193">
        <ele>-1.3</ele>
        <time>2020-05-28T14:09:39Z</time>
      </trkpt>
      <trkpt lat="47.21925" lon="-2.17163">
        <ele>-1.3</ele>
        <time>2020-05-28T14:09:44Z</time>
      </trkpt>
      <trkpt lat="47.21933" lon="-2.17172">
        <ele>-1.79</ele>
        <time>2020-05-28T14:09:46Z</time>
      </trkpt>
      <trkpt lat="47.21968" lon="-2.17211">
        <ele>-1.79</ele>
        <time>2020-05-28T14:09:57Z</time>
      </trkpt>
      <trkpt lat="47.22037" lon="-2.17275">
        <ele>-1.79</ele>
        <time>2020-05-28T14:10:16Z</time>
      </trkpt>
      <trkpt lat="47.22108" lon="-2.17339">
        <ele>-1.3</ele>
        <time>2020-05-28T14:10:30Z</time>
      </trkpt>
      <trkpt lat="47.22196" lon="-2.17426">
        <ele>-0.82</ele>
        <time>2020-05-28T14:10:42Z</time>
      </trkpt>
      <trkpt lat="47.22311" lon="-2.17521">
        <ele>-1.79</ele>
        <time>2020-05-28T14:10:56Z</time>
      </trkpt>
      <trkpt lat="47.22374" lon="-2.17576">
        <ele>-1.3</ele>
        <time>2020-05-28T14:11:04Z</time>
      </trkpt>
      <trkpt lat="47.22414" lon="-2.17604">
        <ele>-1.79</ele>
        <time>2020-05-28T14:11:09Z</time>
      </trkpt>
      <trkpt lat="47.22446" lon="-2.17634">
        <ele>-1.3</ele>
        <time>2020-05-28T14:11:14Z</time>
      </trkpt>
      <trkpt lat="47.22509" lon="-2.17666">
        <ele>-1.3</ele>
        <time>2020-05-28T14:11:24Z</time>
      </trkpt>
      <trkpt lat="47.22567" lon="-2.17722">
        <ele>-1.79</ele>
        <time>2020-05-28T14:11:37Z</time>
      </trkpt>
      <trkpt lat="47.22631" lon="-2.17761">
        <ele>-1.79</ele>
        <time>2020-05-28T14:11:49Z</time>
      </trkpt>
      <trkpt lat="47.22741" lon="-2.1786">
        <ele>-1.79</ele>
        <time>2020-05-28T14:12:07Z</time>
      </trkpt>
      <trkpt lat="47.22846" lon="-2.17954">
        <ele>-2.27</ele>
        <time>2020-05-28T14:12:23Z</time>
      </trkpt>
      <trkpt lat="47.22949" lon="-2.1805">
        <ele>-2.27</ele>
        <time>2020-05-28T14:12:39Z</time>
      </trkpt>
      <trkpt lat="47.22959" lon="-2.1811">
        <ele>-2.27</ele>
        <time>2020-05-28T14:12:45Z</time>
      </trkpt>
      <trkpt lat="47.22929" lon="-2.18124">
        <ele>-2.27</ele>
        <time>2020-05-28T14:12:50Z</time>
      </trkpt>
      <trkpt lat="47.2286" lon="-2.18093">
        <ele>-2.75</ele>
        <time>2020-05-28T14:13:00Z</time>
      </trkpt>
      <trkpt lat="47.22832" lon="-2.18068">
        <ele>-2.75</ele>
        <time>2020-05-28T14:13:04Z</time>
      </trkpt>
      <trkpt lat="47.22748" lon="-2.17949">
        <ele>-2.27</ele>
        <time>2020-05-28T14:13:19Z</time>
      </trkpt>
      <trkpt lat="47.2267" lon="-2.17885">
        <ele>-1.79</ele>
        <time>2020-05-28T14:13:29Z</time>
      </trkpt>
      <trkpt lat="47.22537" lon="-2.17777">
        <ele>-1.79</ele>
        <time>2020-05-28T14:13:43Z</time>
      </trkpt>
      <trkpt lat="47.2247" lon="-2.17706">
        <ele>-1.79</ele>
        <time>2020-05-28T14:13:50Z</time>
      </trkpt>
      <trkpt lat="47.22435" lon="-2.17673">
        <ele>-1.79</ele>
        <time>2020-05-28T14:13:54Z</time>
      </trkpt>
      <trkpt lat="47.22391" lon="-2.1765">
        <ele>-1.79</ele>
        <time>2020-05-28T14:13:59Z</time>
      </trkpt>
      <trkpt lat="47.22289" lon="-2.17574">
        <ele>-2.27</ele>
        <time>2020-05-28T14:14:12Z</time>
      </trkpt>
      <trkpt lat="47.22291" lon="-2.17537">
        <ele>-2.27</ele>
        <time>2020-05-28T14:14:17Z</time>
      </trkpt>
      <trkpt lat="47.22307" lon="-2.17544">
        <ele>-2.27</ele>
        <time>2020-05-28T14:14:20Z</time>
      </trkpt>
      <trkpt lat="47.22323" lon="-2.17552">
        <ele>-2.27</ele>
        <time>2020-05-28T14:14:23Z</time>
      </trkpt>
      <trkpt lat="47.22356" lon="-2.17545">
        <ele>-1.79</ele>
        <time>2020-05-28T14:14:30Z</time>
      </trkpt>
      <trkpt lat="47.22416" lon="-2.17557">
        <ele>-1.3</ele>
        <time>2020-05-28T14:14:43Z</time>
      </trkpt>
      <trkpt lat="47.22447" lon="-2.17585">
        <ele>-1.3</ele>
        <time>2020-05-28T14:14:57Z</time>
      </trkpt>
      <trkpt lat="47.22457" lon="-2.17658">
        <ele>-1.3</ele>
        <time>2020-05-28T14:15:15Z</time>
      </trkpt>
      <trkpt lat="47.22487" lon="-2.17769">
        <ele>-2.27</ele>
        <time>2020-05-28T14:15:40Z</time>
      </trkpt>
      <trkpt lat="47.22483" lon="-2.17824">
        <ele>-3.23</ele>
        <time>2020-05-28T14:15:53Z</time>
      </trkpt>
      <trkpt lat="47.22491" lon="-2.17857">
        <ele>-3.71</ele>
        <time>2020-05-28T14:16:13Z</time>
      </trkpt>
      <trkpt lat="47.22505" lon="-2.17907">
        <ele>-3.23</ele>
        <time>2020-05-28T14:16:33Z</time>
      </trkpt>
      <trkpt lat="47.22516" lon="-2.17925">
        <ele>-3.71</ele>
        <time>2020-05-28T14:16:38Z</time>
      </trkpt>
      <trkpt lat="47.22543" lon="-2.17937">
        <ele>-3.71</ele>
        <time>2020-05-28T14:16:45Z</time>
      </trkpt>
      <trkpt lat="47.22555" lon="-2.17936">
        <ele>-3.71</ele>
        <time>2020-05-28T14:16:48Z</time>
      </trkpt>
      <trkpt lat="47.22574" lon="-2.17929">
        <ele>-3.23</ele>
        <time>2020-05-28T14:16:52Z</time>
      </trkpt>
      <trkpt lat="47.22595" lon="-2.17926">
        <ele>-3.23</ele>
        <time>2020-05-28T14:16:56Z</time>
      </trkpt>
      <trkpt lat="47.22622" lon="-2.17938">
        <ele>-3.71</ele>
        <time>2020-05-28T14:17:01Z</time>
      </trkpt>
      <trkpt lat="47.22679" lon="-2.18005">
        <ele>-3.71</ele>
        <time>2020-05-28T14:17:12Z</time>
      </trkpt>
      <trkpt lat="47.22724" lon="-2.18062">
        <ele>-3.71</ele>
        <time>2020-05-28T14:17:23Z</time>
      </trkpt>
      <trkpt lat="47.2273" lon="-2.18083">
        <ele>-4.19</ele>
        <time>2020-05-28T14:17:27Z</time>
      </trkpt>
      <trkpt lat="47.22732" lon="-2.18105">
        <ele>-4.19</ele>
        <time>2020-05-28T14:17:31Z</time>
      </trkpt>
      <trkpt lat="47.22767" lon="-2.18131">
        <ele>-5.15</ele>
        <time>2020-05-28T14:17:42Z</time>
      </trkpt>
      <trkpt lat="47.22794" lon="-2.1813">
        <ele>-5.15</ele>
        <time>2020-05-28T14:17:48Z</time>
      </trkpt>
      <trkpt lat="47.22807" lon="-2.18125">
        <ele>-4.67</ele>
        <time>2020-05-28T14:17:51Z</time>
      </trkpt>
      <trkpt lat="47.22849" lon="-2.18127">
        <ele>-4.19</ele>
        <time>2020-05-28T14:18:02Z</time>
      </trkpt>
      <trkpt lat="47.2293" lon="-2.18178">
        <ele>-5.15</ele>
        <time>2020-05-28T14:18:16Z</time>
      </trkpt>
      <trkpt lat="47.22944" lon="-2.18185">
        <ele>-5.15</ele>
        <time>2020-05-28T14:18:18Z</time>
      </trkpt>
      <trkpt lat="47.22966" lon="-2.18207">
        <ele>-5.63</ele>
        <time>2020-05-28T14:18:22Z</time>
      </trkpt>
      <trkpt lat="47.23032" lon="-2.18238">
        <ele>-5.63</ele>
        <time>2020-05-28T14:18:33Z</time>
      </trkpt>
      <trkpt lat="47.2306" lon="-2.18282">
        <ele>-5.63</ele>
        <time>2020-05-28T14:18:40Z</time>
      </trkpt>
      <trkpt lat="47.23072" lon="-2.18287">
        <ele>-5.63</ele>
        <time>2020-05-28T14:18:42Z</time>
      </trkpt>
      <trkpt lat="47.23103" lon="-2.18287">
        <ele>-5.63</ele>
        <time>2020-05-28T14:18:47Z</time>
      </trkpt>
      <trkpt lat="47.23149" lon="-2.18307">
        <ele>-5.63</ele>
        <time>2020-05-28T14:18:55Z</time>
      </trkpt>
      <trkpt lat="47.23239" lon="-2.18369">
        <ele>-5.63</ele>
        <time>2020-05-28T14:19:08Z</time>
      </trkpt>
      <trkpt lat="47.23337" lon="-2.18427">
        <ele>-6.11</ele>
        <time>2020-05-28T14:19:22Z</time>
      </trkpt>
      <trkpt lat="47.23344" lon="-2.18429">
        <ele>-6.11</ele>
        <time>2020-05-28T14:19:23Z</time>
      </trkpt>
      <trkpt lat="47.23355" lon="-2.18414">
        <ele>-6.11</ele>
        <time>2020-05-28T14:19:28Z</time>
      </trkpt>
      <trkpt lat="47.23335" lon="-2.18426">
        <ele>-6.11</ele>
        <time>2020-05-28T14:19:33Z</time>
      </trkpt>
      <trkpt lat="47.23323" lon="-2.18419">
        <ele>-6.11</ele>
        <time>2020-05-28T14:19:36Z</time>
      </trkpt>
      <trkpt lat="47.23273" lon="-2.1839">
        <ele>-5.63</ele>
        <time>2020-05-28T14:19:55Z</time>
      </trkpt>
      <trkpt lat="47.2325" lon="-2.18375">
        <ele>-4.67</ele>
        <time>2020-05-28T14:20:16Z</time>
      </trkpt>
      <trkpt lat="47.23243" lon="-2.18372">
        <ele>-5.15</ele>
        <time>2020-05-28T14:20:38Z</time>
      </trkpt>
      <trkpt lat="47.23208" lon="-2.18348">
        <ele>-4.67</ele>
        <time>2020-05-28T14:20:58Z</time>
      </trkpt>
      <trkpt lat="47.23173" lon="-2.18327">
        <ele>-4.19</ele>
        <time>2020-05-28T14:21:20Z</time>
      </trkpt>
      <trkpt lat="47.23133" lon="-2.18299">
        <ele>-4.19</ele>
        <time>2020-05-28T14:21:41Z</time>
      </trkpt>
      <trkpt lat="47.23106" lon="-2.1828">
        <ele>-4.67</ele>
        <time>2020-05-28T14:21:48Z</time>
      </trkpt>
      <trkpt lat="47.23039" lon="-2.18219">
        <ele>-4.19</ele>
        <time>2020-05-28T14:22:02Z</time>
      </trkpt>
      <trkpt lat="47.23013" lon="-2.18193">
        <ele>-4.19</ele>
        <time>2020-05-28T14:22:06Z</time>
      </trkpt>
      <trkpt lat="47.22978" lon="-2.18175">
        <ele>-4.19</ele>
        <time>2020-05-28T14:22:10Z</time>
      </trkpt>
      <trkpt lat="47.22919" lon="-2.18125">
        <ele>-3.71</ele>
        <time>2020-05-28T14:22:16Z</time>
      </trkpt>
      <trkpt lat="47.22826" lon="-2.18049">
        <ele>-3.23</ele>
        <time>2020-05-28T14:22:27Z</time>
      </trkpt>
      <trkpt lat="47.22713" lon="-2.17948">
        <ele>-2.75</ele>
        <time>2020-05-28T14:22:40Z</time>
      </trkpt>
      <trkpt lat="47.22596" lon="-2.17839">
        <ele>-2.27</ele>
        <time>2020-05-28T14:22:53Z</time>
      </trkpt>
      <trkpt lat="47.22483" lon="-2.17729">
        <ele>-1.79</ele>
        <time>2020-05-28T14:23:06Z</time>
      </trkpt>
      <trkpt lat="47.22376" lon="-2.1763">
        <ele>-1.3</ele>
        <time>2020-05-28T14:23:20Z</time>
      </trkpt>
      <trkpt lat="47.2237" lon="-2.17583">
        <ele>-0.82</ele>
        <time>2020-05-28T14:23:25Z</time>
      </trkpt>
      <trkpt lat="47.22376" lon="-2.17584">
        <ele>-1.3</ele>
        <time>2020-05-28T14:23:26Z</time>
      </trkpt>
      <trkpt lat="47.2249" lon="-2.17649">
        <ele>-2.75</ele>
        <time>2020-05-28T14:23:43Z</time>
      </trkpt>
      <trkpt lat="47.22598" lon="-2.17726">
        <ele>-3.23</ele>
        <time>2020-05-28T14:23:59Z</time>
      </trkpt>
      <trkpt lat="47.22693" lon="-2.17826">
        <ele>-3.23</ele>
        <time>2020-05-28T14:24:11Z</time>
      </trkpt>
      <trkpt lat="47.22742" lon="-2.17877">
        <ele>-3.23</ele>
        <time>2020-05-28T14:24:17Z</time>
      </trkpt>
      <trkpt lat="47.22776" lon="-2.17865">
        <ele>-3.23</ele>
        <time>2020-05-28T14:24:22Z</time>
      </trkpt>
      <trkpt lat="47.22762" lon="-2.17845">
        <ele>-3.23</ele>
        <time>2020-05-28T14:24:25Z</time>
      </trkpt>
      <trkpt lat="47.22673" lon="-2.17763">
        <ele>-2.75</ele>
        <time>2020-05-28T14:24:37Z</time>
      </trkpt>
      <trkpt lat="47.22588" lon="-2.17711">
        <ele>-2.75</ele>
        <time>2020-05-28T14:24:46Z</time>
      </trkpt>
      <trkpt lat="47.22496" lon="-2.17642">
        <ele>-1.79</ele>
        <time>2020-05-28T14:24:55Z</time>
      </trkpt>
      <trkpt lat="47.22378" lon="-2.17553">
        <ele>-1.3</ele>
        <time>2020-05-28T14:25:08Z</time>
      </trkpt>
      <trkpt lat="47.22306" lon="-2.17519">
        <ele>-0.34</ele>
        <time>2020-05-28T14:25:18Z</time>
      </trkpt>
      <trkpt lat="47.22251" lon="-2.17491">
        <ele>-0.34</ele>
        <time>2020-05-28T14:25:31Z</time>
      </trkpt>
      <trkpt lat="47.22219" lon="-2.17461">
        <ele>-0.82</ele>
        <time>2020-05-28T14:25:48Z</time>
      </trkpt>
      <trkpt lat="47.22205" lon="-2.1745">
        <ele>-0.82</ele>
        <time>2020-05-28T14:26:03Z</time>
      </trkpt>
      <trkpt lat="47.22164" lon="-2.17418">
        <ele>-0.82</ele>
        <time>2020-05-28T14:26:21Z</time>
      </trkpt>
      <trkpt lat="47.22134" lon="-2.17404">
        <ele>-0.82</ele>
        <time>2020-05-28T14:26:39Z</time>
      </trkpt>
      <trkpt lat="47.2208" lon="-2.17348">
        <ele>-1.79</ele>
        <time>2020-05-28T14:27:00Z</time>
      </trkpt>
      <trkpt lat="47.22015" lon="-2.17281">
        <ele>-1.79</ele>
        <time>2020-05-28T14:27:21Z</time>
      </trkpt>
      <trkpt lat="47.21938" lon="-2.17222">
        <ele>-1.79</ele>
        <time>2020-05-28T14:27:36Z</time>
      </trkpt>
      <trkpt lat="47.21839" lon="-2.17136">
        <ele>-1.79</ele>
        <time>2020-05-28T14:27:50Z</time>
      </trkpt>
      <trkpt lat="47.21726" lon="-2.17023">
        <ele>-1.79</ele>
        <time>2020-05-28T14:28:05Z</time>
      </trkpt>
      <trkpt lat="47.21697" lon="-2.16998">
        <ele>-1.79</ele>
        <time>2020-05-28T14:28:09Z</time>
      </trkpt>
      <trkpt lat="47.21586" lon="-2.16931">
        <ele>-2.27</ele>
        <time>2020-05-28T14:28:21Z</time>
      </trkpt>
      <trkpt lat="47.21576" lon="-2.16927">
        <ele>-2.27</ele>
        <time>2020-05-28T14:28:22Z</time>
      </trkpt>
      <trkpt lat="47.21552" lon="-2.16884">
        <ele>-1.79</ele>
        <time>2020-05-28T14:28:27Z</time>
      </trkpt>
      <trkpt lat="47.21581" lon="-2.16883">
        <ele>-1.79</ele>
        <time>2020-05-28T14:28:32Z</time>
      </trkpt>
      <trkpt lat="47.21609" lon="-2.16905">
        <ele>-1.79</ele>
        <time>2020-05-28T14:28:37Z</time>
      </trkpt>
      <trkpt lat="47.2163" lon="-2.16911">
        <ele>-2.27</ele>
        <time>2020-05-28T14:28:41Z</time>
      </trkpt>
      <trkpt lat="47.21642" lon="-2.16912">
        <ele>-1.79</ele>
        <time>2020-05-28T14:28:43Z</time>
      </trkpt>
      <trkpt lat="47.21671" lon="-2.16926">
        <ele>-1.79</ele>
        <time>2020-05-28T14:28:48Z</time>
      </trkpt>
      <trkpt lat="47.21765" lon="-2.1703">
        <ele>-1.79</ele>
        <time>2020-05-28T14:29:06Z</time>
      </trkpt>
      <trkpt lat="47.21788" lon="-2.17078">
        <ele>-1.79</ele>
        <time>2020-05-28T14:29:13Z</time>
      </trkpt>
      <trkpt lat="47.21857" lon="-2.17155">
        <ele>-2.75</ele>
        <time>2020-05-28T14:29:31Z</time>
      </trkpt>
      <trkpt lat="47.21898" lon="-2.17187">
        <ele>-2.27</ele>
        <time>2020-05-28T14:29:40Z</time>
      </trkpt>
      <trkpt lat="47.21984" lon="-2.17239">
        <ele>-2.27</ele>
        <time>2020-05-28T14:29:56Z</time>
      </trkpt>
      <trkpt lat="47.22076" lon="-2.17337">
        <ele>-2.27</ele>
        <time>2020-05-28T14:30:12Z</time>
      </trkpt>
      <trkpt lat="47.22097" lon="-2.1737">
        <ele>-2.27</ele>
        <time>2020-05-28T14:30:16Z</time>
      </trkpt>
      <trkpt lat="47.2218" lon="-2.17447">
        <ele>-2.75</ele>
        <time>2020-05-28T14:30:27Z</time>
      </trkpt>
      <trkpt lat="47.22303" lon="-2.17519">
        <ele>-2.27</ele>
        <time>2020-05-28T14:30:39Z</time>
      </trkpt>
      <trkpt lat="47.22393" lon="-2.17602">
        <ele>-2.27</ele>
        <time>2020-05-28T14:30:50Z</time>
      </trkpt>
      <trkpt lat="47.22503" lon="-2.17705">
        <ele>-3.23</ele>
        <time>2020-05-28T14:31:04Z</time>
      </trkpt>
      <trkpt lat="47.22617" lon="-2.1777">
        <ele>-3.23</ele>
        <time>2020-05-28T14:31:16Z</time>
      </trkpt>
      <trkpt lat="47.22668" lon="-2.17817">
        <ele>-3.23</ele>
        <time>2020-05-28T14:31:21Z</time>
      </trkpt>
      <trkpt lat="47.22729" lon="-2.17853">
        <ele>-3.23</ele>
        <time>2020-05-28T14:31:26Z</time>
      </trkpt>
      <trkpt lat="47.22769" lon="-2.17894">
        <ele>-3.23</ele>
        <time>2020-05-28T14:31:30Z</time>
      </trkpt>
      <trkpt lat="47.22879" lon="-2.18">
        <ele>-3.71</ele>
        <time>2020-05-28T14:31:42Z</time>
      </trkpt>
      <trkpt lat="47.23022" lon="-2.181">
        <ele>-4.19</ele>
        <time>2020-05-28T14:31:58Z</time>
      </trkpt>
      <trkpt lat="47.23098" lon="-2.18152">
        <ele>-4.67</ele>
        <time>2020-05-28T14:32:05Z</time>
      </trkpt>
      <trkpt lat="47.2312" lon="-2.1817">
        <ele>-4.67</ele>
        <time>2020-05-28T14:32:07Z</time>
      </trkpt>
      <trkpt lat="47.23152" lon="-2.18159">
        <ele>-4.67</ele>
        <time>2020-05-28T14:32:11Z</time>
      </trkpt>
      <trkpt lat="47.23166" lon="-2.18131">
        <ele>-4.67</ele>
        <time>2020-05-28T14:32:16Z</time>
      </trkpt>
      <trkpt lat="47.23184" lon="-2.18118">
        <ele>-4.67</ele>
        <time>2020-05-28T14:32:23Z</time>
      </trkpt>
      <trkpt lat="47.23185" lon="-2.18113">
        <ele>-3.23</ele>
        <time>2020-05-28T14:32:37Z</time>
      </trkpt>
      <trkpt lat="47.23185" lon="-2.18113">
        <ele>-2.27</ele>
        <time>2020-05-28T14:32:59Z</time>
      </trkpt>
    </trkseg>
  </trk>
</gpx>